<?xml version="1.0" encoding="UTF-8" standalone="no" ?>
<gpx xmlns="http://www.topografix.com/GPX/1/1" xmlns:xsi="http://www.w3.org/2001/XMLSchema-instance" xsi:schemaLocation="http://www.topografix.com/GPX/1/1 http://www.topografix.com/GPX/1/1/gpx.xsd" version="1.1" creator="VisuGPX - https://www.visugpx.com">
  <metadata>
    <name>Bajardo-Apricale</name>
    <desc><![CDATA[AlpineQuest Track 14/03/2018 14:48:37]]></desc>
  </metadata>
  <trk>
    <name><![CDATA[apri]]></name>
    <trkseg>
      <trkpt lat="43.90356" lon="7.71971">
        <ele>901.3</ele>
        <time>2018-03-14T13:48:37Z</time>
      </trkpt>
      <trkpt lat="43.90354" lon="7.7197">
        <ele>902.669</ele>
        <time>2018-03-14T13:49:03Z</time>
      </trkpt>
      <trkpt lat="43.90357" lon="7.7197">
        <ele>904.367</ele>
        <time>2018-03-14T13:49:41Z</time>
      </trkpt>
      <trkpt lat="43.90359" lon="7.7197">
        <ele>904.736</ele>
        <time>2018-03-14T13:49:47Z</time>
      </trkpt>
      <trkpt lat="43.90362" lon="7.71969">
        <ele>904.706</ele>
        <time>2018-03-14T13:49:53Z</time>
      </trkpt>
      <trkpt lat="43.90361" lon="7.71966">
        <ele>904.285</ele>
        <time>2018-03-14T13:50:17Z</time>
      </trkpt>
      <trkpt lat="43.90359" lon="7.71963">
        <ele>904.1</ele>
        <time>2018-03-14T13:50:20Z</time>
      </trkpt>
      <trkpt lat="43.90357" lon="7.71959">
        <ele>904.107</ele>
        <time>2018-03-14T13:50:23Z</time>
      </trkpt>
      <trkpt lat="43.90356" lon="7.71955">
        <ele>904.193</ele>
        <time>2018-03-14T13:50:46Z</time>
      </trkpt>
      <trkpt lat="43.90354" lon="7.71951">
        <ele>904.412</ele>
        <time>2018-03-14T13:50:50Z</time>
      </trkpt>
      <trkpt lat="43.90352" lon="7.71947">
        <ele>904.557</ele>
        <time>2018-03-14T13:50:52Z</time>
      </trkpt>
      <trkpt lat="43.9035" lon="7.71945">
        <ele>904.661</ele>
        <time>2018-03-14T13:50:54Z</time>
      </trkpt>
      <trkpt lat="43.90348" lon="7.71941">
        <ele>904.73</ele>
        <time>2018-03-14T13:50:56Z</time>
      </trkpt>
      <trkpt lat="43.90346" lon="7.71937">
        <ele>904.701</ele>
        <time>2018-03-14T13:50:59Z</time>
      </trkpt>
      <trkpt lat="43.90349" lon="7.71932">
        <ele>907.118</ele>
        <time>2018-03-14T13:51:58Z</time>
      </trkpt>
      <trkpt lat="43.9035" lon="7.71926">
        <ele>906.778</ele>
        <time>2018-03-14T13:52:00Z</time>
      </trkpt>
      <trkpt lat="43.9035" lon="7.7192">
        <ele>906.454</ele>
        <time>2018-03-14T13:52:02Z</time>
      </trkpt>
      <trkpt lat="43.90347" lon="7.71911">
        <ele>905.798</ele>
        <time>2018-03-14T13:52:07Z</time>
      </trkpt>
      <trkpt lat="43.90345" lon="7.71906">
        <ele>905.663</ele>
        <time>2018-03-14T13:52:09Z</time>
      </trkpt>
      <trkpt lat="43.90343" lon="7.71902">
        <ele>905.526</ele>
        <time>2018-03-14T13:52:11Z</time>
      </trkpt>
      <trkpt lat="43.90341" lon="7.71898">
        <ele>905.435</ele>
        <time>2018-03-14T13:52:13Z</time>
      </trkpt>
      <trkpt lat="43.9034" lon="7.71893">
        <ele>905.41</ele>
        <time>2018-03-14T13:52:15Z</time>
      </trkpt>
      <trkpt lat="43.90338" lon="7.71889">
        <ele>905.404</ele>
        <time>2018-03-14T13:52:17Z</time>
      </trkpt>
      <trkpt lat="43.90334" lon="7.71886">
        <ele>906.191</ele>
        <time>2018-03-14T13:52:37Z</time>
      </trkpt>
      <trkpt lat="43.90329" lon="7.71877">
        <ele>906.302</ele>
        <time>2018-03-14T13:52:39Z</time>
      </trkpt>
      <trkpt lat="43.90324" lon="7.71871">
        <ele>908.827</ele>
        <time>2018-03-14T13:52:45Z</time>
      </trkpt>
      <trkpt lat="43.90322" lon="7.7187">
        <ele>910.674</ele>
        <time>2018-03-14T13:52:53Z</time>
      </trkpt>
      <trkpt lat="43.9032" lon="7.71866">
        <ele>911.122</ele>
        <time>2018-03-14T13:52:56Z</time>
      </trkpt>
      <trkpt lat="43.90319" lon="7.71862">
        <ele>911.204</ele>
        <time>2018-03-14T13:52:58Z</time>
      </trkpt>
      <trkpt lat="43.90319" lon="7.71857">
        <ele>910.969</ele>
        <time>2018-03-14T13:53:00Z</time>
      </trkpt>
      <trkpt lat="43.90318" lon="7.71851">
        <ele>910.394</ele>
        <time>2018-03-14T13:53:03Z</time>
      </trkpt>
      <trkpt lat="43.90317" lon="7.71848">
        <ele>909.775</ele>
        <time>2018-03-14T13:53:07Z</time>
      </trkpt>
      <trkpt lat="43.90316" lon="7.71844">
        <ele>909.007</ele>
        <time>2018-03-14T13:53:58Z</time>
      </trkpt>
      <trkpt lat="43.90314" lon="7.71839">
        <ele>908.545</ele>
        <time>2018-03-14T13:54:01Z</time>
      </trkpt>
      <trkpt lat="43.90313" lon="7.71834">
        <ele>908.254</ele>
        <time>2018-03-14T13:54:04Z</time>
      </trkpt>
      <trkpt lat="43.90311" lon="7.71829">
        <ele>908.116</ele>
        <time>2018-03-14T13:54:06Z</time>
      </trkpt>
      <trkpt lat="43.9031" lon="7.71823">
        <ele>907.875</ele>
        <time>2018-03-14T13:54:08Z</time>
      </trkpt>
      <trkpt lat="43.90308" lon="7.71819">
        <ele>907.698</ele>
        <time>2018-03-14T13:54:10Z</time>
      </trkpt>
      <trkpt lat="43.90307" lon="7.71815">
        <ele>907.476</ele>
        <time>2018-03-14T13:54:12Z</time>
      </trkpt>
      <trkpt lat="43.90306" lon="7.7181">
        <ele>906.812</ele>
        <time>2018-03-14T13:54:27Z</time>
      </trkpt>
      <trkpt lat="43.90304" lon="7.71805">
        <ele>906.632</ele>
        <time>2018-03-14T13:54:30Z</time>
      </trkpt>
      <trkpt lat="43.90301" lon="7.718">
        <ele>906.707</ele>
        <time>2018-03-14T13:54:32Z</time>
      </trkpt>
      <trkpt lat="43.90299" lon="7.71796">
        <ele>906.734</ele>
        <time>2018-03-14T13:54:34Z</time>
      </trkpt>
      <trkpt lat="43.90297" lon="7.71791">
        <ele>907.043</ele>
        <time>2018-03-14T13:54:37Z</time>
      </trkpt>
      <trkpt lat="43.90295" lon="7.71789">
        <ele>907.178</ele>
        <time>2018-03-14T13:54:39Z</time>
      </trkpt>
      <trkpt lat="43.90293" lon="7.71784">
        <ele>907.321</ele>
        <time>2018-03-14T13:54:42Z</time>
      </trkpt>
      <trkpt lat="43.90291" lon="7.7178">
        <ele>907.39</ele>
        <time>2018-03-14T13:54:45Z</time>
      </trkpt>
      <trkpt lat="43.90289" lon="7.71775">
        <ele>907.101</ele>
        <time>2018-03-14T13:54:48Z</time>
      </trkpt>
      <trkpt lat="43.90288" lon="7.71771">
        <ele>907.037</ele>
        <time>2018-03-14T13:54:50Z</time>
      </trkpt>
      <trkpt lat="43.90288" lon="7.71767">
        <ele>906.989</ele>
        <time>2018-03-14T13:54:52Z</time>
      </trkpt>
      <trkpt lat="43.90288" lon="7.71762">
        <ele>906.83</ele>
        <time>2018-03-14T13:54:54Z</time>
      </trkpt>
      <trkpt lat="43.90285" lon="7.71759">
        <ele>907.043</ele>
        <time>2018-03-14T13:55:31Z</time>
      </trkpt>
      <trkpt lat="43.90282" lon="7.7176">
        <ele>906.924</ele>
        <time>2018-03-14T13:55:34Z</time>
      </trkpt>
      <trkpt lat="43.90282" lon="7.71765">
        <ele>907.195</ele>
        <time>2018-03-14T13:56:08Z</time>
      </trkpt>
      <trkpt lat="43.9028" lon="7.71767">
        <ele>906.995</ele>
        <time>2018-03-14T13:56:19Z</time>
      </trkpt>
      <trkpt lat="43.90278" lon="7.7177">
        <ele>907.227</ele>
        <time>2018-03-14T13:56:22Z</time>
      </trkpt>
      <trkpt lat="43.90276" lon="7.71774">
        <ele>907.048</ele>
        <time>2018-03-14T13:56:26Z</time>
      </trkpt>
      <trkpt lat="43.90275" lon="7.7177">
        <ele>906.898</ele>
        <time>2018-03-14T13:56:32Z</time>
      </trkpt>
      <trkpt lat="43.90274" lon="7.71766">
        <ele>906.516</ele>
        <time>2018-03-14T13:56:39Z</time>
      </trkpt>
      <trkpt lat="43.90277" lon="7.71767">
        <ele>905.858</ele>
        <time>2018-03-14T13:56:47Z</time>
      </trkpt>
      <trkpt lat="43.9028" lon="7.71768">
        <ele>905.84</ele>
        <time>2018-03-14T13:56:58Z</time>
      </trkpt>
      <trkpt lat="43.90279" lon="7.71772">
        <ele>906.122</ele>
        <time>2018-03-14T13:57:01Z</time>
      </trkpt>
      <trkpt lat="43.90279" lon="7.71778">
        <ele>906.109</ele>
        <time>2018-03-14T13:57:03Z</time>
      </trkpt>
      <trkpt lat="43.90277" lon="7.71781">
        <ele>906.046</ele>
        <time>2018-03-14T13:57:06Z</time>
      </trkpt>
      <trkpt lat="43.90273" lon="7.71783">
        <ele>905.771</ele>
        <time>2018-03-14T13:57:13Z</time>
      </trkpt>
      <trkpt lat="43.9027" lon="7.71784">
        <ele>905.518</ele>
        <time>2018-03-14T13:57:25Z</time>
      </trkpt>
      <trkpt lat="43.90269" lon="7.71781">
        <ele>905.303</ele>
        <time>2018-03-14T13:57:33Z</time>
      </trkpt>
      <trkpt lat="43.90266" lon="7.71783">
        <ele>903.451</ele>
        <time>2018-03-14T13:57:49Z</time>
      </trkpt>
      <trkpt lat="43.90266" lon="7.71788">
        <ele>899.726</ele>
        <time>2018-03-14T13:58:47Z</time>
      </trkpt>
      <trkpt lat="43.90267" lon="7.71792">
        <ele>898.954</ele>
        <time>2018-03-14T13:59:07Z</time>
      </trkpt>
      <trkpt lat="43.90265" lon="7.71796">
        <ele>898.729</ele>
        <time>2018-03-14T13:59:10Z</time>
      </trkpt>
      <trkpt lat="43.90263" lon="7.718">
        <ele>898.323</ele>
        <time>2018-03-14T13:59:13Z</time>
      </trkpt>
      <trkpt lat="43.9026" lon="7.71802">
        <ele>897.928</ele>
        <time>2018-03-14T13:59:16Z</time>
      </trkpt>
      <trkpt lat="43.90256" lon="7.71803">
        <ele>897.635</ele>
        <time>2018-03-14T13:59:19Z</time>
      </trkpt>
      <trkpt lat="43.90253" lon="7.71804">
        <ele>897.125</ele>
        <time>2018-03-14T13:59:43Z</time>
      </trkpt>
      <trkpt lat="43.90253" lon="7.71808">
        <ele>897.033</ele>
        <time>2018-03-14T13:59:53Z</time>
      </trkpt>
      <trkpt lat="43.90252" lon="7.71812">
        <ele>895.571</ele>
        <time>2018-03-14T14:00:17Z</time>
      </trkpt>
      <trkpt lat="43.9025" lon="7.71816">
        <ele>895.149</ele>
        <time>2018-03-14T14:00:20Z</time>
      </trkpt>
      <trkpt lat="43.90247" lon="7.71818">
        <ele>894.593</ele>
        <time>2018-03-14T14:00:23Z</time>
      </trkpt>
      <trkpt lat="43.90245" lon="7.7182">
        <ele>893.927</ele>
        <time>2018-03-14T14:00:26Z</time>
      </trkpt>
      <trkpt lat="43.90244" lon="7.71824">
        <ele>892.996</ele>
        <time>2018-03-14T14:00:29Z</time>
      </trkpt>
      <trkpt lat="43.90245" lon="7.71828">
        <ele>890.604</ele>
        <time>2018-03-14T14:01:11Z</time>
      </trkpt>
      <trkpt lat="43.90242" lon="7.7183">
        <ele>888.382</ele>
        <time>2018-03-14T14:01:34Z</time>
      </trkpt>
      <trkpt lat="43.9024" lon="7.71833">
        <ele>887.926</ele>
        <time>2018-03-14T14:01:36Z</time>
      </trkpt>
      <trkpt lat="43.90238" lon="7.71836">
        <ele>887.399</ele>
        <time>2018-03-14T14:01:38Z</time>
      </trkpt>
      <trkpt lat="43.90238" lon="7.7184">
        <ele>886.22</ele>
        <time>2018-03-14T14:01:43Z</time>
      </trkpt>
      <trkpt lat="43.90236" lon="7.71843">
        <ele>885.396</ele>
        <time>2018-03-14T14:02:09Z</time>
      </trkpt>
      <trkpt lat="43.90234" lon="7.71846">
        <ele>884.524</ele>
        <time>2018-03-14T14:02:19Z</time>
      </trkpt>
      <trkpt lat="43.90232" lon="7.71849">
        <ele>883.093</ele>
        <time>2018-03-14T14:02:26Z</time>
      </trkpt>
      <trkpt lat="43.9023" lon="7.71848">
        <ele>880.817</ele>
        <time>2018-03-14T14:02:44Z</time>
      </trkpt>
      <trkpt lat="43.90228" lon="7.71852">
        <ele>879.318</ele>
        <time>2018-03-14T14:02:48Z</time>
      </trkpt>
      <trkpt lat="43.9023" lon="7.71855">
        <ele>877.652</ele>
        <time>2018-03-14T14:02:52Z</time>
      </trkpt>
      <trkpt lat="43.90231" lon="7.71858">
        <ele>876.203</ele>
        <time>2018-03-14T14:02:56Z</time>
      </trkpt>
      <trkpt lat="43.9023" lon="7.71862">
        <ele>874.644</ele>
        <time>2018-03-14T14:03:01Z</time>
      </trkpt>
      <trkpt lat="43.90228" lon="7.71865">
        <ele>874.022</ele>
        <time>2018-03-14T14:03:03Z</time>
      </trkpt>
      <trkpt lat="43.90225" lon="7.71868">
        <ele>873.475</ele>
        <time>2018-03-14T14:03:06Z</time>
      </trkpt>
      <trkpt lat="43.90227" lon="7.71872">
        <ele>873.245</ele>
        <time>2018-03-14T14:03:14Z</time>
      </trkpt>
      <trkpt lat="43.90227" lon="7.71876">
        <ele>872.953</ele>
        <time>2018-03-14T14:03:18Z</time>
      </trkpt>
      <trkpt lat="43.90225" lon="7.71879">
        <ele>872.011</ele>
        <time>2018-03-14T14:03:22Z</time>
      </trkpt>
      <trkpt lat="43.90223" lon="7.71883">
        <ele>869.554</ele>
        <time>2018-03-14T14:03:49Z</time>
      </trkpt>
      <trkpt lat="43.9022" lon="7.71884">
        <ele>867.672</ele>
        <time>2018-03-14T14:03:55Z</time>
      </trkpt>
      <trkpt lat="43.90217" lon="7.71885">
        <ele>867.271</ele>
        <time>2018-03-14T14:03:57Z</time>
      </trkpt>
      <trkpt lat="43.90215" lon="7.71887">
        <ele>867.025</ele>
        <time>2018-03-14T14:03:59Z</time>
      </trkpt>
      <trkpt lat="43.90212" lon="7.71888">
        <ele>866.562</ele>
        <time>2018-03-14T14:04:02Z</time>
      </trkpt>
      <trkpt lat="43.90209" lon="7.71891">
        <ele>865.139</ele>
        <time>2018-03-14T14:04:19Z</time>
      </trkpt>
      <trkpt lat="43.90208" lon="7.71895">
        <ele>864.413</ele>
        <time>2018-03-14T14:04:22Z</time>
      </trkpt>
      <trkpt lat="43.90206" lon="7.71899">
        <ele>863.438</ele>
        <time>2018-03-14T14:04:25Z</time>
      </trkpt>
      <trkpt lat="43.90208" lon="7.71901">
        <ele>861.872</ele>
        <time>2018-03-14T14:04:35Z</time>
      </trkpt>
      <trkpt lat="43.90211" lon="7.71904">
        <ele>860.866</ele>
        <time>2018-03-14T14:04:37Z</time>
      </trkpt>
      <trkpt lat="43.90213" lon="7.71906">
        <ele>860.043</ele>
        <time>2018-03-14T14:04:39Z</time>
      </trkpt>
      <trkpt lat="43.90217" lon="7.71906">
        <ele>858.877</ele>
        <time>2018-03-14T14:04:43Z</time>
      </trkpt>
      <trkpt lat="43.9022" lon="7.71907">
        <ele>858.69</ele>
        <time>2018-03-14T14:04:54Z</time>
      </trkpt>
      <trkpt lat="43.90223" lon="7.71909">
        <ele>858.202</ele>
        <time>2018-03-14T14:04:56Z</time>
      </trkpt>
      <trkpt lat="43.90226" lon="7.7191">
        <ele>857.802</ele>
        <time>2018-03-14T14:04:58Z</time>
      </trkpt>
      <trkpt lat="43.90223" lon="7.71912">
        <ele>857.05</ele>
        <time>2018-03-14T14:05:20Z</time>
      </trkpt>
      <trkpt lat="43.9022" lon="7.71913">
        <ele>856.712</ele>
        <time>2018-03-14T14:05:22Z</time>
      </trkpt>
      <trkpt lat="43.90216" lon="7.71912">
        <ele>856.459</ele>
        <time>2018-03-14T14:05:24Z</time>
      </trkpt>
      <trkpt lat="43.90212" lon="7.7191">
        <ele>856.172</ele>
        <time>2018-03-14T14:05:26Z</time>
      </trkpt>
      <trkpt lat="43.90208" lon="7.7191">
        <ele>855.965</ele>
        <time>2018-03-14T14:05:28Z</time>
      </trkpt>
      <trkpt lat="43.90205" lon="7.7191">
        <ele>855.862</ele>
        <time>2018-03-14T14:05:30Z</time>
      </trkpt>
      <trkpt lat="43.90208" lon="7.71912">
        <ele>853.333</ele>
        <time>2018-03-14T14:07:17Z</time>
      </trkpt>
      <trkpt lat="43.90212" lon="7.71912">
        <ele>852.683</ele>
        <time>2018-03-14T14:07:19Z</time>
      </trkpt>
      <trkpt lat="43.90214" lon="7.71917">
        <ele>851.809</ele>
        <time>2018-03-14T14:07:32Z</time>
      </trkpt>
      <trkpt lat="43.90217" lon="7.71918">
        <ele>851.583</ele>
        <time>2018-03-14T14:07:34Z</time>
      </trkpt>
      <trkpt lat="43.9022" lon="7.7192">
        <ele>851.358</ele>
        <time>2018-03-14T14:07:36Z</time>
      </trkpt>
      <trkpt lat="43.90223" lon="7.71922">
        <ele>851.033</ele>
        <time>2018-03-14T14:07:38Z</time>
      </trkpt>
      <trkpt lat="43.90225" lon="7.71925">
        <ele>850.665</ele>
        <time>2018-03-14T14:07:40Z</time>
      </trkpt>
      <trkpt lat="43.90228" lon="7.71928">
        <ele>850.204</ele>
        <time>2018-03-14T14:07:43Z</time>
      </trkpt>
      <trkpt lat="43.9023" lon="7.71931">
        <ele>849.782</ele>
        <time>2018-03-14T14:07:46Z</time>
      </trkpt>
      <trkpt lat="43.90231" lon="7.71935">
        <ele>849.073</ele>
        <time>2018-03-14T14:08:00Z</time>
      </trkpt>
      <trkpt lat="43.90231" lon="7.71939">
        <ele>848.955</ele>
        <time>2018-03-14T14:08:03Z</time>
      </trkpt>
      <trkpt lat="43.9023" lon="7.71945">
        <ele>848.604</ele>
        <time>2018-03-14T14:08:06Z</time>
      </trkpt>
      <trkpt lat="43.90227" lon="7.71949">
        <ele>848.345</ele>
        <time>2018-03-14T14:08:08Z</time>
      </trkpt>
      <trkpt lat="43.90227" lon="7.71954">
        <ele>847.696</ele>
        <time>2018-03-14T14:08:11Z</time>
      </trkpt>
      <trkpt lat="43.90227" lon="7.71959">
        <ele>847.141</ele>
        <time>2018-03-14T14:08:13Z</time>
      </trkpt>
      <trkpt lat="43.90228" lon="7.71963">
        <ele>846.605</ele>
        <time>2018-03-14T14:08:15Z</time>
      </trkpt>
      <trkpt lat="43.90229" lon="7.71967">
        <ele>846.042</ele>
        <time>2018-03-14T14:08:17Z</time>
      </trkpt>
      <trkpt lat="43.90231" lon="7.71969">
        <ele>845.611</ele>
        <time>2018-03-14T14:08:19Z</time>
      </trkpt>
      <trkpt lat="43.90233" lon="7.71974">
        <ele>845.402</ele>
        <time>2018-03-14T14:08:21Z</time>
      </trkpt>
      <trkpt lat="43.90235" lon="7.71978">
        <ele>845.076</ele>
        <time>2018-03-14T14:08:24Z</time>
      </trkpt>
      <trkpt lat="43.90237" lon="7.71982">
        <ele>845.07</ele>
        <time>2018-03-14T14:08:26Z</time>
      </trkpt>
      <trkpt lat="43.9024" lon="7.71984">
        <ele>845.138</ele>
        <time>2018-03-14T14:08:29Z</time>
      </trkpt>
      <trkpt lat="43.90237" lon="7.71988">
        <ele>844.645</ele>
        <time>2018-03-14T14:08:46Z</time>
      </trkpt>
      <trkpt lat="43.90234" lon="7.71991">
        <ele>844.365</ele>
        <time>2018-03-14T14:08:48Z</time>
      </trkpt>
      <trkpt lat="43.90231" lon="7.71993">
        <ele>844.05</ele>
        <time>2018-03-14T14:08:50Z</time>
      </trkpt>
      <trkpt lat="43.90228" lon="7.71994">
        <ele>843.341</ele>
        <time>2018-03-14T14:09:03Z</time>
      </trkpt>
      <trkpt lat="43.90226" lon="7.71997">
        <ele>842.897</ele>
        <time>2018-03-14T14:09:05Z</time>
      </trkpt>
      <trkpt lat="43.90223" lon="7.72">
        <ele>842.613</ele>
        <time>2018-03-14T14:09:07Z</time>
      </trkpt>
      <trkpt lat="43.90218" lon="7.72004">
        <ele>842.48</ele>
        <time>2018-03-14T14:09:19Z</time>
      </trkpt>
      <trkpt lat="43.90216" lon="7.72006">
        <ele>842.478</ele>
        <time>2018-03-14T14:09:21Z</time>
      </trkpt>
      <trkpt lat="43.90212" lon="7.72009">
        <ele>841.238</ele>
        <time>2018-03-14T14:09:44Z</time>
      </trkpt>
      <trkpt lat="43.90211" lon="7.72013">
        <ele>840.779</ele>
        <time>2018-03-14T14:09:46Z</time>
      </trkpt>
      <trkpt lat="43.90209" lon="7.72016">
        <ele>840.305</ele>
        <time>2018-03-14T14:09:48Z</time>
      </trkpt>
      <trkpt lat="43.90207" lon="7.7202">
        <ele>839.05</ele>
        <time>2018-03-14T14:09:52Z</time>
      </trkpt>
      <trkpt lat="43.90206" lon="7.72023">
        <ele>838.251</ele>
        <time>2018-03-14T14:09:54Z</time>
      </trkpt>
      <trkpt lat="43.90204" lon="7.72029">
        <ele>837.19</ele>
        <time>2018-03-14T14:09:57Z</time>
      </trkpt>
      <trkpt lat="43.90201" lon="7.72034">
        <ele>834.75</ele>
        <time>2018-03-14T14:10:11Z</time>
      </trkpt>
      <trkpt lat="43.902" lon="7.72039">
        <ele>834.136</ele>
        <time>2018-03-14T14:10:13Z</time>
      </trkpt>
      <trkpt lat="43.90198" lon="7.72042">
        <ele>832.41</ele>
        <time>2018-03-14T14:10:35Z</time>
      </trkpt>
      <trkpt lat="43.90196" lon="7.72046">
        <ele>831.781</ele>
        <time>2018-03-14T14:10:38Z</time>
      </trkpt>
      <trkpt lat="43.90194" lon="7.72049">
        <ele>830.804</ele>
        <time>2018-03-14T14:10:42Z</time>
      </trkpt>
      <trkpt lat="43.90189" lon="7.7206">
        <ele>829.86</ele>
        <time>2018-03-14T14:10:45Z</time>
      </trkpt>
      <trkpt lat="43.90185" lon="7.72061">
        <ele>828.549</ele>
        <time>2018-03-14T14:10:57Z</time>
      </trkpt>
      <trkpt lat="43.90182" lon="7.72062">
        <ele>828.309</ele>
        <time>2018-03-14T14:11:00Z</time>
      </trkpt>
      <trkpt lat="43.90179" lon="7.72061">
        <ele>827.227</ele>
        <time>2018-03-14T14:11:22Z</time>
      </trkpt>
      <trkpt lat="43.90176" lon="7.72063">
        <ele>826.519</ele>
        <time>2018-03-14T14:12:12Z</time>
      </trkpt>
      <trkpt lat="43.90174" lon="7.72066">
        <ele>824.289</ele>
        <time>2018-03-14T14:12:23Z</time>
      </trkpt>
      <trkpt lat="43.90171" lon="7.72069">
        <ele>822.396</ele>
        <time>2018-03-14T14:12:33Z</time>
      </trkpt>
      <trkpt lat="43.90169" lon="7.72069">
        <ele>822.96</ele>
        <time>2018-03-14T14:13:52Z</time>
      </trkpt>
      <trkpt lat="43.90168" lon="7.72073">
        <ele>822.144</ele>
        <time>2018-03-14T14:14:49Z</time>
      </trkpt>
      <trkpt lat="43.90166" lon="7.72076">
        <ele>821.1</ele>
        <time>2018-03-14T14:15:09Z</time>
      </trkpt>
      <trkpt lat="43.90165" lon="7.7208">
        <ele>820.442</ele>
        <time>2018-03-14T14:15:31Z</time>
      </trkpt>
      <trkpt lat="43.90166" lon="7.72084">
        <ele>820.442</ele>
        <time>2018-03-14T14:15:34Z</time>
      </trkpt>
      <trkpt lat="43.90167" lon="7.72088">
        <ele>820.167</ele>
        <time>2018-03-14T14:15:37Z</time>
      </trkpt>
      <trkpt lat="43.90164" lon="7.72093">
        <ele>819.18</ele>
        <time>2018-03-14T14:15:52Z</time>
      </trkpt>
      <trkpt lat="43.90163" lon="7.72097">
        <ele>818.773</ele>
        <time>2018-03-14T14:15:54Z</time>
      </trkpt>
      <trkpt lat="43.90161" lon="7.72101">
        <ele>818.21</ele>
        <time>2018-03-14T14:15:56Z</time>
      </trkpt>
      <trkpt lat="43.90158" lon="7.72106">
        <ele>817.774</ele>
        <time>2018-03-14T14:15:58Z</time>
      </trkpt>
      <trkpt lat="43.90156" lon="7.72109">
        <ele>817.457</ele>
        <time>2018-03-14T14:16:00Z</time>
      </trkpt>
      <trkpt lat="43.90155" lon="7.72113">
        <ele>817.298</ele>
        <time>2018-03-14T14:16:03Z</time>
      </trkpt>
      <trkpt lat="43.90154" lon="7.72117">
        <ele>817.313</ele>
        <time>2018-03-14T14:16:07Z</time>
      </trkpt>
      <trkpt lat="43.90154" lon="7.72122">
        <ele>817.312</ele>
        <time>2018-03-14T14:16:18Z</time>
      </trkpt>
      <trkpt lat="43.90152" lon="7.72126">
        <ele>816.793</ele>
        <time>2018-03-14T14:16:22Z</time>
      </trkpt>
      <trkpt lat="43.90149" lon="7.72128">
        <ele>815.574</ele>
        <time>2018-03-14T14:16:45Z</time>
      </trkpt>
      <trkpt lat="43.90147" lon="7.72131">
        <ele>814.634</ele>
        <time>2018-03-14T14:16:57Z</time>
      </trkpt>
      <trkpt lat="43.90144" lon="7.72132">
        <ele>814.003</ele>
        <time>2018-03-14T14:17:11Z</time>
      </trkpt>
      <trkpt lat="43.90142" lon="7.72136">
        <ele>807.974</ele>
        <time>2018-03-14T14:17:58Z</time>
      </trkpt>
      <trkpt lat="43.90139" lon="7.7214">
        <ele>807.432</ele>
        <time>2018-03-14T14:18:01Z</time>
      </trkpt>
      <trkpt lat="43.90137" lon="7.72143">
        <ele>805.244</ele>
        <time>2018-03-14T14:21:18Z</time>
      </trkpt>
      <trkpt lat="43.90139" lon="7.72147">
        <ele>804.899</ele>
        <time>2018-03-14T14:21:29Z</time>
      </trkpt>
      <trkpt lat="43.90141" lon="7.7215">
        <ele>804.5</ele>
        <time>2018-03-14T14:21:35Z</time>
      </trkpt>
      <trkpt lat="43.90141" lon="7.72156">
        <ele>804.249</ele>
        <time>2018-03-14T14:21:38Z</time>
      </trkpt>
      <trkpt lat="43.9014" lon="7.72163">
        <ele>804.26</ele>
        <time>2018-03-14T14:21:40Z</time>
      </trkpt>
      <trkpt lat="43.90138" lon="7.7217">
        <ele>804.228</ele>
        <time>2018-03-14T14:21:42Z</time>
      </trkpt>
      <trkpt lat="43.90136" lon="7.72177">
        <ele>804.072</ele>
        <time>2018-03-14T14:21:45Z</time>
      </trkpt>
      <trkpt lat="43.90135" lon="7.7218">
        <ele>803.901</ele>
        <time>2018-03-14T14:21:47Z</time>
      </trkpt>
      <trkpt lat="43.90132" lon="7.72182">
        <ele>804.155</ele>
        <time>2018-03-14T14:21:58Z</time>
      </trkpt>
      <trkpt lat="43.90133" lon="7.72186">
        <ele>803.702</ele>
        <time>2018-03-14T14:22:16Z</time>
      </trkpt>
      <trkpt lat="43.90133" lon="7.72192">
        <ele>803.079</ele>
        <time>2018-03-14T14:22:18Z</time>
      </trkpt>
      <trkpt lat="43.90134" lon="7.72195">
        <ele>802.427</ele>
        <time>2018-03-14T14:22:20Z</time>
      </trkpt>
      <trkpt lat="43.90135" lon="7.722">
        <ele>802.238</ele>
        <time>2018-03-14T14:22:33Z</time>
      </trkpt>
      <trkpt lat="43.90134" lon="7.72204">
        <ele>802.295</ele>
        <time>2018-03-14T14:22:36Z</time>
      </trkpt>
      <trkpt lat="43.90135" lon="7.7221">
        <ele>801.495</ele>
        <time>2018-03-14T14:22:45Z</time>
      </trkpt>
      <trkpt lat="43.90135" lon="7.72216">
        <ele>800.817</ele>
        <time>2018-03-14T14:22:47Z</time>
      </trkpt>
      <trkpt lat="43.90135" lon="7.72222">
        <ele>800.264</ele>
        <time>2018-03-14T14:22:49Z</time>
      </trkpt>
      <trkpt lat="43.90133" lon="7.72232">
        <ele>799.938</ele>
        <time>2018-03-14T14:22:52Z</time>
      </trkpt>
      <trkpt lat="43.90132" lon="7.72239">
        <ele>799.782</ele>
        <time>2018-03-14T14:22:54Z</time>
      </trkpt>
      <trkpt lat="43.90131" lon="7.72246">
        <ele>799.635</ele>
        <time>2018-03-14T14:22:56Z</time>
      </trkpt>
      <trkpt lat="43.9013" lon="7.72252">
        <ele>799.537</ele>
        <time>2018-03-14T14:22:58Z</time>
      </trkpt>
      <trkpt lat="43.90129" lon="7.72256">
        <ele>799.552</ele>
        <time>2018-03-14T14:23:00Z</time>
      </trkpt>
      <trkpt lat="43.90128" lon="7.7226">
        <ele>799.387</ele>
        <time>2018-03-14T14:23:03Z</time>
      </trkpt>
      <trkpt lat="43.90125" lon="7.7226">
        <ele>798.511</ele>
        <time>2018-03-14T14:23:19Z</time>
      </trkpt>
      <trkpt lat="43.90123" lon="7.72257">
        <ele>798.319</ele>
        <time>2018-03-14T14:23:21Z</time>
      </trkpt>
      <trkpt lat="43.9012" lon="7.72254">
        <ele>798.325</ele>
        <time>2018-03-14T14:23:23Z</time>
      </trkpt>
      <trkpt lat="43.90118" lon="7.7225">
        <ele>798.429</ele>
        <time>2018-03-14T14:23:25Z</time>
      </trkpt>
      <trkpt lat="43.90115" lon="7.72248">
        <ele>798.282</ele>
        <time>2018-03-14T14:23:27Z</time>
      </trkpt>
      <trkpt lat="43.90112" lon="7.72245">
        <ele>798.292</ele>
        <time>2018-03-14T14:23:29Z</time>
      </trkpt>
      <trkpt lat="43.9011" lon="7.72241">
        <ele>798.045</ele>
        <time>2018-03-14T14:23:31Z</time>
      </trkpt>
      <trkpt lat="43.90107" lon="7.72239">
        <ele>797.736</ele>
        <time>2018-03-14T14:23:33Z</time>
      </trkpt>
      <trkpt lat="43.90104" lon="7.72236">
        <ele>797.476</ele>
        <time>2018-03-14T14:23:35Z</time>
      </trkpt>
      <trkpt lat="43.90101" lon="7.72235">
        <ele>797.125</ele>
        <time>2018-03-14T14:23:37Z</time>
      </trkpt>
      <trkpt lat="43.90098" lon="7.72233">
        <ele>797.031</ele>
        <time>2018-03-14T14:23:40Z</time>
      </trkpt>
      <trkpt lat="43.90094" lon="7.72234">
        <ele>796.951</ele>
        <time>2018-03-14T14:23:57Z</time>
      </trkpt>
      <trkpt lat="43.9009" lon="7.72233">
        <ele>796.85</ele>
        <time>2018-03-14T14:23:59Z</time>
      </trkpt>
      <trkpt lat="43.90086" lon="7.72233">
        <ele>796.627</ele>
        <time>2018-03-14T14:24:01Z</time>
      </trkpt>
      <trkpt lat="43.90082" lon="7.72234">
        <ele>796.396</ele>
        <time>2018-03-14T14:24:03Z</time>
      </trkpt>
      <trkpt lat="43.90078" lon="7.72236">
        <ele>796.223</ele>
        <time>2018-03-14T14:24:05Z</time>
      </trkpt>
      <trkpt lat="43.90074" lon="7.72237">
        <ele>796.08</ele>
        <time>2018-03-14T14:24:07Z</time>
      </trkpt>
      <trkpt lat="43.90073" lon="7.7224">
        <ele>795.75</ele>
        <time>2018-03-14T14:24:20Z</time>
      </trkpt>
      <trkpt lat="43.9007" lon="7.7224">
        <ele>795.488</ele>
        <time>2018-03-14T14:24:22Z</time>
      </trkpt>
      <trkpt lat="43.90067" lon="7.7224">
        <ele>794.884</ele>
        <time>2018-03-14T14:24:25Z</time>
      </trkpt>
      <trkpt lat="43.90064" lon="7.72241">
        <ele>794.436</ele>
        <time>2018-03-14T14:24:27Z</time>
      </trkpt>
      <trkpt lat="43.90061" lon="7.72241">
        <ele>793.786</ele>
        <time>2018-03-14T14:24:29Z</time>
      </trkpt>
      <trkpt lat="43.90058" lon="7.72241">
        <ele>793.254</ele>
        <time>2018-03-14T14:24:31Z</time>
      </trkpt>
      <trkpt lat="43.90055" lon="7.72242">
        <ele>792.838</ele>
        <time>2018-03-14T14:24:33Z</time>
      </trkpt>
      <trkpt lat="43.90052" lon="7.72244">
        <ele>792.671</ele>
        <time>2018-03-14T14:24:35Z</time>
      </trkpt>
      <trkpt lat="43.90048" lon="7.72246">
        <ele>792.66</ele>
        <time>2018-03-14T14:24:37Z</time>
      </trkpt>
      <trkpt lat="43.90046" lon="7.72248">
        <ele>792.601</ele>
        <time>2018-03-14T14:24:39Z</time>
      </trkpt>
      <trkpt lat="43.90043" lon="7.7225">
        <ele>792.458</ele>
        <time>2018-03-14T14:24:41Z</time>
      </trkpt>
      <trkpt lat="43.9004" lon="7.72253">
        <ele>792.329</ele>
        <time>2018-03-14T14:24:43Z</time>
      </trkpt>
      <trkpt lat="43.90038" lon="7.72256">
        <ele>792.26</ele>
        <time>2018-03-14T14:24:45Z</time>
      </trkpt>
      <trkpt lat="43.90036" lon="7.72259">
        <ele>792.085</ele>
        <time>2018-03-14T14:24:47Z</time>
      </trkpt>
      <trkpt lat="43.90033" lon="7.72261">
        <ele>792.139</ele>
        <time>2018-03-14T14:24:49Z</time>
      </trkpt>
      <trkpt lat="43.90031" lon="7.72265">
        <ele>792.226</ele>
        <time>2018-03-14T14:24:51Z</time>
      </trkpt>
      <trkpt lat="43.90028" lon="7.72268">
        <ele>792.657</ele>
        <time>2018-03-14T14:24:55Z</time>
      </trkpt>
      <trkpt lat="43.90028" lon="7.72273">
        <ele>791.571</ele>
        <time>2018-03-14T14:25:10Z</time>
      </trkpt>
      <trkpt lat="43.90025" lon="7.72277">
        <ele>790.866</ele>
        <time>2018-03-14T14:25:12Z</time>
      </trkpt>
      <trkpt lat="43.90022" lon="7.7228">
        <ele>790.367</ele>
        <time>2018-03-14T14:25:14Z</time>
      </trkpt>
      <trkpt lat="43.9002" lon="7.72283">
        <ele>789.82</ele>
        <time>2018-03-14T14:25:16Z</time>
      </trkpt>
      <trkpt lat="43.90017" lon="7.72286">
        <ele>789.111</ele>
        <time>2018-03-14T14:25:19Z</time>
      </trkpt>
      <trkpt lat="43.90013" lon="7.72285">
        <ele>788.72</ele>
        <time>2018-03-14T14:25:23Z</time>
      </trkpt>
      <trkpt lat="43.90005" lon="7.7228">
        <ele>788.401</ele>
        <time>2018-03-14T14:25:26Z</time>
      </trkpt>
      <trkpt lat="43.90002" lon="7.7228">
        <ele>788.619</ele>
        <time>2018-03-14T14:25:29Z</time>
      </trkpt>
      <trkpt lat="43.89999" lon="7.72278">
        <ele>788.619</ele>
        <time>2018-03-14T14:25:41Z</time>
      </trkpt>
      <trkpt lat="43.9" lon="7.72274">
        <ele>788.211</ele>
        <time>2018-03-14T14:25:43Z</time>
      </trkpt>
      <trkpt lat="43.9" lon="7.72268">
        <ele>787.716</ele>
        <time>2018-03-14T14:25:46Z</time>
      </trkpt>
      <trkpt lat="43.9" lon="7.72264">
        <ele>787.368</ele>
        <time>2018-03-14T14:25:48Z</time>
      </trkpt>
      <trkpt lat="43.90002" lon="7.72261">
        <ele>786.841</ele>
        <time>2018-03-14T14:25:50Z</time>
      </trkpt>
      <trkpt lat="43.90006" lon="7.72258">
        <ele>786.179</ele>
        <time>2018-03-14T14:25:53Z</time>
      </trkpt>
      <trkpt lat="43.90009" lon="7.72257">
        <ele>785.702</ele>
        <time>2018-03-14T14:25:56Z</time>
      </trkpt>
      <trkpt lat="43.90013" lon="7.72257">
        <ele>785.378</ele>
        <time>2018-03-14T14:25:58Z</time>
      </trkpt>
      <trkpt lat="43.90016" lon="7.72257">
        <ele>784.945</ele>
        <time>2018-03-14T14:26:00Z</time>
      </trkpt>
      <trkpt lat="43.9002" lon="7.72257">
        <ele>784.653</ele>
        <time>2018-03-14T14:26:02Z</time>
      </trkpt>
      <trkpt lat="43.90024" lon="7.72256">
        <ele>784.3</ele>
        <time>2018-03-14T14:26:05Z</time>
      </trkpt>
      <trkpt lat="43.90027" lon="7.72254">
        <ele>784.033</ele>
        <time>2018-03-14T14:26:07Z</time>
      </trkpt>
      <trkpt lat="43.90028" lon="7.72249">
        <ele>782.617</ele>
        <time>2018-03-14T14:26:20Z</time>
      </trkpt>
      <trkpt lat="43.90027" lon="7.72245">
        <ele>782.539</ele>
        <time>2018-03-14T14:26:22Z</time>
      </trkpt>
      <trkpt lat="43.90026" lon="7.72242">
        <ele>782.411</ele>
        <time>2018-03-14T14:26:24Z</time>
      </trkpt>
      <trkpt lat="43.90023" lon="7.72241">
        <ele>781.3</ele>
        <time>2018-03-14T14:26:39Z</time>
      </trkpt>
      <trkpt lat="43.9002" lon="7.72242">
        <ele>781.046</ele>
        <time>2018-03-14T14:26:41Z</time>
      </trkpt>
      <trkpt lat="43.90016" lon="7.72243">
        <ele>780.637</ele>
        <time>2018-03-14T14:26:44Z</time>
      </trkpt>
      <trkpt lat="43.90012" lon="7.72242">
        <ele>780.182</ele>
        <time>2018-03-14T14:26:47Z</time>
      </trkpt>
      <trkpt lat="43.9001" lon="7.72242">
        <ele>780.007</ele>
        <time>2018-03-14T14:26:49Z</time>
      </trkpt>
      <trkpt lat="43.90007" lon="7.72241">
        <ele>779.757</ele>
        <time>2018-03-14T14:26:51Z</time>
      </trkpt>
      <trkpt lat="43.90002" lon="7.72242">
        <ele>779.405</ele>
        <time>2018-03-14T14:26:54Z</time>
      </trkpt>
      <trkpt lat="43.89998" lon="7.72243">
        <ele>779.166</ele>
        <time>2018-03-14T14:26:56Z</time>
      </trkpt>
      <trkpt lat="43.89994" lon="7.72242">
        <ele>779.106</ele>
        <time>2018-03-14T14:26:58Z</time>
      </trkpt>
      <trkpt lat="43.8999" lon="7.72241">
        <ele>778.948</ele>
        <time>2018-03-14T14:27:00Z</time>
      </trkpt>
      <trkpt lat="43.89987" lon="7.7224">
        <ele>778.715</ele>
        <time>2018-03-14T14:27:02Z</time>
      </trkpt>
      <trkpt lat="43.89984" lon="7.72239">
        <ele>778.551</ele>
        <time>2018-03-14T14:27:04Z</time>
      </trkpt>
      <trkpt lat="43.89981" lon="7.72239">
        <ele>778.448</ele>
        <time>2018-03-14T14:27:06Z</time>
      </trkpt>
      <trkpt lat="43.89977" lon="7.7224">
        <ele>778.233</ele>
        <time>2018-03-14T14:27:08Z</time>
      </trkpt>
      <trkpt lat="43.89974" lon="7.7224">
        <ele>778.085</ele>
        <time>2018-03-14T14:27:10Z</time>
      </trkpt>
      <trkpt lat="43.8997" lon="7.7224">
        <ele>777.729</ele>
        <time>2018-03-14T14:27:12Z</time>
      </trkpt>
      <trkpt lat="43.89967" lon="7.7224">
        <ele>777.418</ele>
        <time>2018-03-14T14:27:14Z</time>
      </trkpt>
      <trkpt lat="43.89963" lon="7.7224">
        <ele>777.324</ele>
        <time>2018-03-14T14:27:17Z</time>
      </trkpt>
      <trkpt lat="43.8996" lon="7.7224">
        <ele>777.054</ele>
        <time>2018-03-14T14:27:19Z</time>
      </trkpt>
      <trkpt lat="43.89957" lon="7.72241">
        <ele>776.685</ele>
        <time>2018-03-14T14:27:21Z</time>
      </trkpt>
      <trkpt lat="43.89954" lon="7.72242">
        <ele>776.402</ele>
        <time>2018-03-14T14:27:23Z</time>
      </trkpt>
      <trkpt lat="43.89951" lon="7.7224">
        <ele>776.171</ele>
        <time>2018-03-14T14:27:25Z</time>
      </trkpt>
      <trkpt lat="43.89948" lon="7.72238">
        <ele>775.982</ele>
        <time>2018-03-14T14:27:27Z</time>
      </trkpt>
      <trkpt lat="43.89943" lon="7.7224">
        <ele>777.398</ele>
        <time>2018-03-14T14:27:38Z</time>
      </trkpt>
      <trkpt lat="43.8994" lon="7.72241">
        <ele>777.916</ele>
        <time>2018-03-14T14:27:40Z</time>
      </trkpt>
      <trkpt lat="43.89937" lon="7.72242">
        <ele>778.417</ele>
        <time>2018-03-14T14:27:42Z</time>
      </trkpt>
      <trkpt lat="43.8994" lon="7.72239">
        <ele>779.428</ele>
        <time>2018-03-14T14:27:47Z</time>
      </trkpt>
      <trkpt lat="43.89943" lon="7.72237">
        <ele>779.742</ele>
        <time>2018-03-14T14:27:49Z</time>
      </trkpt>
      <trkpt lat="43.8994" lon="7.72239">
        <ele>778.175</ele>
        <time>2018-03-14T14:28:03Z</time>
      </trkpt>
      <trkpt lat="43.89937" lon="7.72242">
        <ele>776.956</ele>
        <time>2018-03-14T14:28:07Z</time>
      </trkpt>
      <trkpt lat="43.89935" lon="7.72245">
        <ele>776.354</ele>
        <time>2018-03-14T14:28:09Z</time>
      </trkpt>
      <trkpt lat="43.89933" lon="7.72249">
        <ele>775.762</ele>
        <time>2018-03-14T14:28:11Z</time>
      </trkpt>
      <trkpt lat="43.89932" lon="7.72252">
        <ele>775.303</ele>
        <time>2018-03-14T14:28:13Z</time>
      </trkpt>
      <trkpt lat="43.89929" lon="7.72255">
        <ele>774.695</ele>
        <time>2018-03-14T14:28:16Z</time>
      </trkpt>
      <trkpt lat="43.89926" lon="7.72257">
        <ele>774.09</ele>
        <time>2018-03-14T14:28:19Z</time>
      </trkpt>
      <trkpt lat="43.89923" lon="7.72255">
        <ele>773.735</ele>
        <time>2018-03-14T14:28:21Z</time>
      </trkpt>
      <trkpt lat="43.89919" lon="7.72252">
        <ele>773.168</ele>
        <time>2018-03-14T14:28:55Z</time>
      </trkpt>
      <trkpt lat="43.89915" lon="7.72251">
        <ele>772.771</ele>
        <time>2018-03-14T14:28:57Z</time>
      </trkpt>
      <trkpt lat="43.89912" lon="7.7225">
        <ele>772.399</ele>
        <time>2018-03-14T14:28:59Z</time>
      </trkpt>
      <trkpt lat="43.89908" lon="7.72247">
        <ele>771.93</ele>
        <time>2018-03-14T14:29:01Z</time>
      </trkpt>
      <trkpt lat="43.89904" lon="7.72244">
        <ele>771.683</ele>
        <time>2018-03-14T14:29:03Z</time>
      </trkpt>
      <trkpt lat="43.899" lon="7.72243">
        <ele>771.484</ele>
        <time>2018-03-14T14:29:06Z</time>
      </trkpt>
      <trkpt lat="43.89897" lon="7.72242">
        <ele>771.395</ele>
        <time>2018-03-14T14:29:08Z</time>
      </trkpt>
      <trkpt lat="43.89894" lon="7.7224">
        <ele>771.508</ele>
        <time>2018-03-14T14:29:10Z</time>
      </trkpt>
      <trkpt lat="43.8989" lon="7.72238">
        <ele>771.574</ele>
        <time>2018-03-14T14:29:19Z</time>
      </trkpt>
      <trkpt lat="43.89887" lon="7.72236">
        <ele>771.614</ele>
        <time>2018-03-14T14:29:22Z</time>
      </trkpt>
      <trkpt lat="43.89884" lon="7.72236">
        <ele>771.408</ele>
        <time>2018-03-14T14:29:24Z</time>
      </trkpt>
      <trkpt lat="43.89881" lon="7.72234">
        <ele>771.204</ele>
        <time>2018-03-14T14:29:26Z</time>
      </trkpt>
      <trkpt lat="43.89879" lon="7.72231">
        <ele>770.871</ele>
        <time>2018-03-14T14:29:28Z</time>
      </trkpt>
      <trkpt lat="43.89876" lon="7.72229">
        <ele>770.502</ele>
        <time>2018-03-14T14:29:30Z</time>
      </trkpt>
      <trkpt lat="43.89873" lon="7.72228">
        <ele>770.287</ele>
        <time>2018-03-14T14:29:32Z</time>
      </trkpt>
      <trkpt lat="43.89869" lon="7.72227">
        <ele>770.094</ele>
        <time>2018-03-14T14:29:34Z</time>
      </trkpt>
      <trkpt lat="43.89866" lon="7.72228">
        <ele>770.092</ele>
        <time>2018-03-14T14:29:37Z</time>
      </trkpt>
      <trkpt lat="43.89864" lon="7.72224">
        <ele>769.383</ele>
        <time>2018-03-14T14:29:49Z</time>
      </trkpt>
      <trkpt lat="43.8986" lon="7.72222">
        <ele>768.974</ele>
        <time>2018-03-14T14:29:52Z</time>
      </trkpt>
      <trkpt lat="43.89857" lon="7.72223">
        <ele>768.854</ele>
        <time>2018-03-14T14:29:54Z</time>
      </trkpt>
      <trkpt lat="43.89854" lon="7.72224">
        <ele>768.664</ele>
        <time>2018-03-14T14:29:56Z</time>
      </trkpt>
      <trkpt lat="43.89851" lon="7.72224">
        <ele>768.585</ele>
        <time>2018-03-14T14:29:58Z</time>
      </trkpt>
      <trkpt lat="43.89847" lon="7.72224">
        <ele>768.48</ele>
        <time>2018-03-14T14:30:00Z</time>
      </trkpt>
      <trkpt lat="43.89844" lon="7.72224">
        <ele>768.387</ele>
        <time>2018-03-14T14:30:02Z</time>
      </trkpt>
      <trkpt lat="43.89841" lon="7.72224">
        <ele>768.304</ele>
        <time>2018-03-14T14:30:04Z</time>
      </trkpt>
      <trkpt lat="43.89839" lon="7.72224">
        <ele>768.35</ele>
        <time>2018-03-14T14:30:06Z</time>
      </trkpt>
      <trkpt lat="43.89836" lon="7.72225">
        <ele>767.857</ele>
        <time>2018-03-14T14:30:27Z</time>
      </trkpt>
      <trkpt lat="43.89833" lon="7.72228">
        <ele>767.505</ele>
        <time>2018-03-14T14:30:29Z</time>
      </trkpt>
      <trkpt lat="43.89831" lon="7.72231">
        <ele>767.069</ele>
        <time>2018-03-14T14:30:31Z</time>
      </trkpt>
      <trkpt lat="43.89828" lon="7.72233">
        <ele>766.707</ele>
        <time>2018-03-14T14:30:33Z</time>
      </trkpt>
      <trkpt lat="43.89826" lon="7.72236">
        <ele>766.373</ele>
        <time>2018-03-14T14:30:35Z</time>
      </trkpt>
      <trkpt lat="43.89823" lon="7.7224">
        <ele>765.224</ele>
        <time>2018-03-14T14:30:57Z</time>
      </trkpt>
      <trkpt lat="43.89821" lon="7.72244">
        <ele>764.875</ele>
        <time>2018-03-14T14:30:59Z</time>
      </trkpt>
      <trkpt lat="43.89819" lon="7.72247">
        <ele>764.699</ele>
        <time>2018-03-14T14:31:01Z</time>
      </trkpt>
      <trkpt lat="43.89816" lon="7.72251">
        <ele>764.465</ele>
        <time>2018-03-14T14:31:03Z</time>
      </trkpt>
      <trkpt lat="43.89814" lon="7.72253">
        <ele>764.212</ele>
        <time>2018-03-14T14:31:05Z</time>
      </trkpt>
      <trkpt lat="43.89812" lon="7.72256">
        <ele>763.907</ele>
        <time>2018-03-14T14:31:07Z</time>
      </trkpt>
      <trkpt lat="43.8981" lon="7.72259">
        <ele>763.882</ele>
        <time>2018-03-14T14:31:09Z</time>
      </trkpt>
      <trkpt lat="43.89808" lon="7.72262">
        <ele>763.79</ele>
        <time>2018-03-14T14:31:11Z</time>
      </trkpt>
      <trkpt lat="43.89806" lon="7.72265">
        <ele>763.701</ele>
        <time>2018-03-14T14:31:13Z</time>
      </trkpt>
      <trkpt lat="43.89803" lon="7.72267">
        <ele>763.754</ele>
        <time>2018-03-14T14:31:15Z</time>
      </trkpt>
      <trkpt lat="43.898" lon="7.72264">
        <ele>763.345</ele>
        <time>2018-03-14T14:31:30Z</time>
      </trkpt>
      <trkpt lat="43.89797" lon="7.72264">
        <ele>763.256</ele>
        <time>2018-03-14T14:31:33Z</time>
      </trkpt>
      <trkpt lat="43.89793" lon="7.72264">
        <ele>762.004</ele>
        <time>2018-03-14T14:31:47Z</time>
      </trkpt>
      <trkpt lat="43.8979" lon="7.72267">
        <ele>761.461</ele>
        <time>2018-03-14T14:31:50Z</time>
      </trkpt>
      <trkpt lat="43.89788" lon="7.72269">
        <ele>761.222</ele>
        <time>2018-03-14T14:31:52Z</time>
      </trkpt>
      <trkpt lat="43.89785" lon="7.72272">
        <ele>760.929</ele>
        <time>2018-03-14T14:31:54Z</time>
      </trkpt>
      <trkpt lat="43.89783" lon="7.72275">
        <ele>760.648</ele>
        <time>2018-03-14T14:31:56Z</time>
      </trkpt>
      <trkpt lat="43.8978" lon="7.72275">
        <ele>760.231</ele>
        <time>2018-03-14T14:31:58Z</time>
      </trkpt>
      <trkpt lat="43.89777" lon="7.72276">
        <ele>759.72</ele>
        <time>2018-03-14T14:32:00Z</time>
      </trkpt>
      <trkpt lat="43.89774" lon="7.72277">
        <ele>759.308</ele>
        <time>2018-03-14T14:32:02Z</time>
      </trkpt>
      <trkpt lat="43.89771" lon="7.72278">
        <ele>758.972</ele>
        <time>2018-03-14T14:32:04Z</time>
      </trkpt>
      <trkpt lat="43.89768" lon="7.72279">
        <ele>758.561</ele>
        <time>2018-03-14T14:32:07Z</time>
      </trkpt>
      <trkpt lat="43.89764" lon="7.72278">
        <ele>758.16</ele>
        <time>2018-03-14T14:32:10Z</time>
      </trkpt>
      <trkpt lat="43.89761" lon="7.72277">
        <ele>757.828</ele>
        <time>2018-03-14T14:32:19Z</time>
      </trkpt>
      <trkpt lat="43.89759" lon="7.72274">
        <ele>757.426</ele>
        <time>2018-03-14T14:32:21Z</time>
      </trkpt>
      <trkpt lat="43.89756" lon="7.72273">
        <ele>756.905</ele>
        <time>2018-03-14T14:32:24Z</time>
      </trkpt>
      <trkpt lat="43.89754" lon="7.72271">
        <ele>756.602</ele>
        <time>2018-03-14T14:32:28Z</time>
      </trkpt>
      <trkpt lat="43.89751" lon="7.7227">
        <ele>756.466</ele>
        <time>2018-03-14T14:32:30Z</time>
      </trkpt>
      <trkpt lat="43.89748" lon="7.72268">
        <ele>756.162</ele>
        <time>2018-03-14T14:32:32Z</time>
      </trkpt>
      <trkpt lat="43.89745" lon="7.72268">
        <ele>755.556</ele>
        <time>2018-03-14T14:32:35Z</time>
      </trkpt>
      <trkpt lat="43.89743" lon="7.72266">
        <ele>755.286</ele>
        <time>2018-03-14T14:33:00Z</time>
      </trkpt>
      <trkpt lat="43.89736" lon="7.72262">
        <ele>754.184</ele>
        <time>2018-03-14T14:33:05Z</time>
      </trkpt>
      <trkpt lat="43.89732" lon="7.72261">
        <ele>753.522</ele>
        <time>2018-03-14T14:33:08Z</time>
      </trkpt>
      <trkpt lat="43.89729" lon="7.72262">
        <ele>753.195</ele>
        <time>2018-03-14T14:33:11Z</time>
      </trkpt>
      <trkpt lat="43.89726" lon="7.72261">
        <ele>753.022</ele>
        <time>2018-03-14T14:33:13Z</time>
      </trkpt>
      <trkpt lat="43.89723" lon="7.7226">
        <ele>752.447</ele>
        <time>2018-03-14T14:33:20Z</time>
      </trkpt>
      <trkpt lat="43.89719" lon="7.72259">
        <ele>752.295</ele>
        <time>2018-03-14T14:33:22Z</time>
      </trkpt>
      <trkpt lat="43.89716" lon="7.72259">
        <ele>752.171</ele>
        <time>2018-03-14T14:33:24Z</time>
      </trkpt>
      <trkpt lat="43.89712" lon="7.72258">
        <ele>751.854</ele>
        <time>2018-03-14T14:33:27Z</time>
      </trkpt>
      <trkpt lat="43.89707" lon="7.72255">
        <ele>751.645</ele>
        <time>2018-03-14T14:33:29Z</time>
      </trkpt>
      <trkpt lat="43.89704" lon="7.72253">
        <ele>751.654</ele>
        <time>2018-03-14T14:33:31Z</time>
      </trkpt>
      <trkpt lat="43.89706" lon="7.72249">
        <ele>750.138</ele>
        <time>2018-03-14T14:34:19Z</time>
      </trkpt>
      <trkpt lat="43.89709" lon="7.72249">
        <ele>749.669</ele>
        <time>2018-03-14T14:34:42Z</time>
      </trkpt>
      <trkpt lat="43.89707" lon="7.72245">
        <ele>749.545</ele>
        <time>2018-03-14T14:35:06Z</time>
      </trkpt>
      <trkpt lat="43.89705" lon="7.7224">
        <ele>749.618</ele>
        <time>2018-03-14T14:35:10Z</time>
      </trkpt>
      <trkpt lat="43.89706" lon="7.72235">
        <ele>749.162</ele>
        <time>2018-03-14T14:35:14Z</time>
      </trkpt>
      <trkpt lat="43.89706" lon="7.72231">
        <ele>748.788</ele>
        <time>2018-03-14T14:35:16Z</time>
      </trkpt>
      <trkpt lat="43.89706" lon="7.72227">
        <ele>746.5</ele>
        <time>2018-03-14T14:35:34Z</time>
      </trkpt>
      <trkpt lat="43.89707" lon="7.72221">
        <ele>745.567</ele>
        <time>2018-03-14T14:35:37Z</time>
      </trkpt>
      <trkpt lat="43.89708" lon="7.72217">
        <ele>745.044</ele>
        <time>2018-03-14T14:35:39Z</time>
      </trkpt>
      <trkpt lat="43.8971" lon="7.72214">
        <ele>744.536</ele>
        <time>2018-03-14T14:35:41Z</time>
      </trkpt>
      <trkpt lat="43.89712" lon="7.72211">
        <ele>744.183</ele>
        <time>2018-03-14T14:35:43Z</time>
      </trkpt>
      <trkpt lat="43.89711" lon="7.72205">
        <ele>743.494</ele>
        <time>2018-03-14T14:35:46Z</time>
      </trkpt>
      <trkpt lat="43.8971" lon="7.72199">
        <ele>742.935</ele>
        <time>2018-03-14T14:35:48Z</time>
      </trkpt>
      <trkpt lat="43.89711" lon="7.72194">
        <ele>742.286</ele>
        <time>2018-03-14T14:35:50Z</time>
      </trkpt>
      <trkpt lat="43.89709" lon="7.72191">
        <ele>741.706</ele>
        <time>2018-03-14T14:35:52Z</time>
      </trkpt>
      <trkpt lat="43.89708" lon="7.72187">
        <ele>738.95</ele>
        <time>2018-03-14T14:36:16Z</time>
      </trkpt>
      <trkpt lat="43.89709" lon="7.72181">
        <ele>737.22</ele>
        <time>2018-03-14T14:36:30Z</time>
      </trkpt>
      <trkpt lat="43.89713" lon="7.7218">
        <ele>736.322</ele>
        <time>2018-03-14T14:36:33Z</time>
      </trkpt>
      <trkpt lat="43.89716" lon="7.72178">
        <ele>735.795</ele>
        <time>2018-03-14T14:36:35Z</time>
      </trkpt>
      <trkpt lat="43.89714" lon="7.72175">
        <ele>739.178</ele>
        <time>2018-03-14T14:37:47Z</time>
      </trkpt>
      <trkpt lat="43.89718" lon="7.72175">
        <ele>737.383</ele>
        <time>2018-03-14T14:38:17Z</time>
      </trkpt>
      <trkpt lat="43.89717" lon="7.7217">
        <ele>736.335</ele>
        <time>2018-03-14T14:38:20Z</time>
      </trkpt>
      <trkpt lat="43.89718" lon="7.72165">
        <ele>736.071</ele>
        <time>2018-03-14T14:38:37Z</time>
      </trkpt>
      <trkpt lat="43.89717" lon="7.72161">
        <ele>735.997</ele>
        <time>2018-03-14T14:38:39Z</time>
      </trkpt>
      <trkpt lat="43.89712" lon="7.72159">
        <ele>735.977</ele>
        <time>2018-03-14T14:39:00Z</time>
      </trkpt>
      <trkpt lat="43.89706" lon="7.72157">
        <ele>734.855</ele>
        <time>2018-03-14T14:39:06Z</time>
      </trkpt>
      <trkpt lat="43.89706" lon="7.72153">
        <ele>732.89</ele>
        <time>2018-03-14T14:39:22Z</time>
      </trkpt>
      <trkpt lat="43.89704" lon="7.72151">
        <ele>731.346</ele>
        <time>2018-03-14T14:39:40Z</time>
      </trkpt>
      <trkpt lat="43.897" lon="7.7215">
        <ele>730.819</ele>
        <time>2018-03-14T14:39:43Z</time>
      </trkpt>
      <trkpt lat="43.89697" lon="7.72149">
        <ele>730.127</ele>
        <time>2018-03-14T14:39:47Z</time>
      </trkpt>
      <trkpt lat="43.89694" lon="7.72147">
        <ele>728.966</ele>
        <time>2018-03-14T14:40:00Z</time>
      </trkpt>
      <trkpt lat="43.89691" lon="7.72146">
        <ele>726.841</ele>
        <time>2018-03-14T14:40:29Z</time>
      </trkpt>
      <trkpt lat="43.89691" lon="7.72143">
        <ele>725.775</ele>
        <time>2018-03-14T14:40:46Z</time>
      </trkpt>
      <trkpt lat="43.89689" lon="7.72138">
        <ele>725.93</ele>
        <time>2018-03-14T14:40:49Z</time>
      </trkpt>
      <trkpt lat="43.89688" lon="7.72134">
        <ele>725.981</ele>
        <time>2018-03-14T14:40:52Z</time>
      </trkpt>
      <trkpt lat="43.89688" lon="7.7213">
        <ele>726.071</ele>
        <time>2018-03-14T14:40:57Z</time>
      </trkpt>
      <trkpt lat="43.89687" lon="7.72125">
        <ele>726.024</ele>
        <time>2018-03-14T14:40:59Z</time>
      </trkpt>
      <trkpt lat="43.89688" lon="7.72121">
        <ele>724.85</ele>
        <time>2018-03-14T14:41:16Z</time>
      </trkpt>
      <trkpt lat="43.89687" lon="7.72118">
        <ele>725.053</ele>
        <time>2018-03-14T14:41:19Z</time>
      </trkpt>
      <trkpt lat="43.89687" lon="7.72113">
        <ele>724.989</ele>
        <time>2018-03-14T14:41:21Z</time>
      </trkpt>
      <trkpt lat="43.89685" lon="7.72109">
        <ele>724.724</ele>
        <time>2018-03-14T14:41:25Z</time>
      </trkpt>
      <trkpt lat="43.89684" lon="7.72105">
        <ele>724.641</ele>
        <time>2018-03-14T14:41:27Z</time>
      </trkpt>
      <trkpt lat="43.89683" lon="7.72101">
        <ele>724.413</ele>
        <time>2018-03-14T14:41:31Z</time>
      </trkpt>
      <trkpt lat="43.89684" lon="7.72095">
        <ele>724.177</ele>
        <time>2018-03-14T14:41:33Z</time>
      </trkpt>
      <trkpt lat="43.89686" lon="7.7209">
        <ele>723.937</ele>
        <time>2018-03-14T14:41:35Z</time>
      </trkpt>
      <trkpt lat="43.89685" lon="7.72086">
        <ele>723.66</ele>
        <time>2018-03-14T14:41:37Z</time>
      </trkpt>
      <trkpt lat="43.89683" lon="7.72082">
        <ele>723.445</ele>
        <time>2018-03-14T14:41:40Z</time>
      </trkpt>
      <trkpt lat="43.89683" lon="7.72077">
        <ele>722.976</ele>
        <time>2018-03-14T14:41:44Z</time>
      </trkpt>
      <trkpt lat="43.89682" lon="7.72073">
        <ele>722.796</ele>
        <time>2018-03-14T14:41:46Z</time>
      </trkpt>
      <trkpt lat="43.89681" lon="7.72069">
        <ele>723.11</ele>
        <time>2018-03-14T14:41:59Z</time>
      </trkpt>
      <trkpt lat="43.8968" lon="7.72066">
        <ele>722.821</ele>
        <time>2018-03-14T14:42:11Z</time>
      </trkpt>
      <trkpt lat="43.89678" lon="7.72062">
        <ele>721.735</ele>
        <time>2018-03-14T14:42:19Z</time>
      </trkpt>
      <trkpt lat="43.89675" lon="7.7206">
        <ele>720.947</ele>
        <time>2018-03-14T14:42:21Z</time>
      </trkpt>
      <trkpt lat="43.89672" lon="7.72055">
        <ele>720.189</ele>
        <time>2018-03-14T14:42:24Z</time>
      </trkpt>
      <trkpt lat="43.8967" lon="7.72051">
        <ele>719.209</ele>
        <time>2018-03-14T14:42:32Z</time>
      </trkpt>
      <trkpt lat="43.89667" lon="7.72051">
        <ele>718.03</ele>
        <time>2018-03-14T14:42:45Z</time>
      </trkpt>
      <trkpt lat="43.89664" lon="7.72049">
        <ele>717.262</ele>
        <time>2018-03-14T14:42:49Z</time>
      </trkpt>
      <trkpt lat="43.89662" lon="7.72045">
        <ele>716.102</ele>
        <time>2018-03-14T14:42:58Z</time>
      </trkpt>
      <trkpt lat="43.89659" lon="7.72042">
        <ele>716.076</ele>
        <time>2018-03-14T14:43:04Z</time>
      </trkpt>
      <trkpt lat="43.89656" lon="7.72039">
        <ele>715.326</ele>
        <time>2018-03-14T14:43:10Z</time>
      </trkpt>
      <trkpt lat="43.89653" lon="7.72037">
        <ele>714.824</ele>
        <time>2018-03-14T14:43:13Z</time>
      </trkpt>
      <trkpt lat="43.89651" lon="7.72033">
        <ele>714.553</ele>
        <time>2018-03-14T14:43:15Z</time>
      </trkpt>
      <trkpt lat="43.89648" lon="7.72025">
        <ele>714.293</ele>
        <time>2018-03-14T14:43:19Z</time>
      </trkpt>
      <trkpt lat="43.89644" lon="7.72018">
        <ele>714.097</ele>
        <time>2018-03-14T14:43:23Z</time>
      </trkpt>
      <trkpt lat="43.89642" lon="7.72015">
        <ele>713.965</ele>
        <time>2018-03-14T14:43:25Z</time>
      </trkpt>
      <trkpt lat="43.8964" lon="7.72012">
        <ele>713.299</ele>
        <time>2018-03-14T14:43:32Z</time>
      </trkpt>
      <trkpt lat="43.89637" lon="7.72011">
        <ele>712.443</ele>
        <time>2018-03-14T14:43:35Z</time>
      </trkpt>
      <trkpt lat="43.89634" lon="7.72009">
        <ele>711.758</ele>
        <time>2018-03-14T14:43:49Z</time>
      </trkpt>
      <trkpt lat="43.89631" lon="7.72011">
        <ele>710.919</ele>
        <time>2018-03-14T14:43:52Z</time>
      </trkpt>
      <trkpt lat="43.89628" lon="7.72012">
        <ele>710.349</ele>
        <time>2018-03-14T14:43:55Z</time>
      </trkpt>
      <trkpt lat="43.89625" lon="7.72012">
        <ele>709.845</ele>
        <time>2018-03-14T14:43:58Z</time>
      </trkpt>
      <trkpt lat="43.89622" lon="7.72014">
        <ele>706.567</ele>
        <time>2018-03-14T14:44:40Z</time>
      </trkpt>
      <trkpt lat="43.89622" lon="7.72009">
        <ele>707.09</ele>
        <time>2018-03-14T14:45:17Z</time>
      </trkpt>
      <trkpt lat="43.89619" lon="7.72011">
        <ele>706.486</ele>
        <time>2018-03-14T14:45:32Z</time>
      </trkpt>
      <trkpt lat="43.89617" lon="7.72013">
        <ele>705.723</ele>
        <time>2018-03-14T14:45:49Z</time>
      </trkpt>
      <trkpt lat="43.89613" lon="7.72016">
        <ele>705.279</ele>
        <time>2018-03-14T14:45:52Z</time>
      </trkpt>
      <trkpt lat="43.8961" lon="7.72018">
        <ele>704.808</ele>
        <time>2018-03-14T14:45:54Z</time>
      </trkpt>
      <trkpt lat="43.89607" lon="7.72019">
        <ele>704.145</ele>
        <time>2018-03-14T14:45:59Z</time>
      </trkpt>
      <trkpt lat="43.89604" lon="7.72019">
        <ele>704.04</ele>
        <time>2018-03-14T14:46:01Z</time>
      </trkpt>
      <trkpt lat="43.89601" lon="7.72018">
        <ele>703.994</ele>
        <time>2018-03-14T14:46:10Z</time>
      </trkpt>
      <trkpt lat="43.89597" lon="7.72017">
        <ele>703.305</ele>
        <time>2018-03-14T14:46:15Z</time>
      </trkpt>
      <trkpt lat="43.89593" lon="7.72015">
        <ele>702.689</ele>
        <time>2018-03-14T14:46:18Z</time>
      </trkpt>
      <trkpt lat="43.89589" lon="7.72013">
        <ele>702.178</ele>
        <time>2018-03-14T14:46:20Z</time>
      </trkpt>
      <trkpt lat="43.89585" lon="7.72011">
        <ele>701.562</ele>
        <time>2018-03-14T14:46:23Z</time>
      </trkpt>
      <trkpt lat="43.89581" lon="7.7201">
        <ele>701.185</ele>
        <time>2018-03-14T14:46:25Z</time>
      </trkpt>
      <trkpt lat="43.89577" lon="7.72009">
        <ele>700.273</ele>
        <time>2018-03-14T14:46:30Z</time>
      </trkpt>
      <trkpt lat="43.89574" lon="7.72009">
        <ele>700.033</ele>
        <time>2018-03-14T14:46:33Z</time>
      </trkpt>
      <trkpt lat="43.89572" lon="7.72011">
        <ele>699.072</ele>
        <time>2018-03-14T14:46:45Z</time>
      </trkpt>
      <trkpt lat="43.89564" lon="7.72007">
        <ele>698.7</ele>
        <time>2018-03-14T14:46:47Z</time>
      </trkpt>
      <trkpt lat="43.89559" lon="7.72003">
        <ele>698.349</ele>
        <time>2018-03-14T14:46:51Z</time>
      </trkpt>
      <trkpt lat="43.89555" lon="7.72003">
        <ele>698.196</ele>
        <time>2018-03-14T14:46:55Z</time>
      </trkpt>
      <trkpt lat="43.89553" lon="7.72002">
        <ele>696.518</ele>
        <time>2018-03-14T14:47:02Z</time>
      </trkpt>
      <trkpt lat="43.89549" lon="7.72001">
        <ele>695.397</ele>
        <time>2018-03-14T14:47:08Z</time>
      </trkpt>
      <trkpt lat="43.89546" lon="7.71999">
        <ele>694.684</ele>
        <time>2018-03-14T14:47:12Z</time>
      </trkpt>
      <trkpt lat="43.89544" lon="7.71995">
        <ele>694.056</ele>
        <time>2018-03-14T14:47:21Z</time>
      </trkpt>
      <trkpt lat="43.89544" lon="7.71991">
        <ele>693.678</ele>
        <time>2018-03-14T14:47:23Z</time>
      </trkpt>
      <trkpt lat="43.89543" lon="7.71986">
        <ele>693.557</ele>
        <time>2018-03-14T14:47:25Z</time>
      </trkpt>
      <trkpt lat="43.89542" lon="7.71981">
        <ele>693.475</ele>
        <time>2018-03-14T14:47:27Z</time>
      </trkpt>
      <trkpt lat="43.89539" lon="7.71979">
        <ele>693.41</ele>
        <time>2018-03-14T14:47:30Z</time>
      </trkpt>
      <trkpt lat="43.89537" lon="7.71975">
        <ele>693.429</ele>
        <time>2018-03-14T14:47:32Z</time>
      </trkpt>
      <trkpt lat="43.89537" lon="7.71972">
        <ele>693.494</ele>
        <time>2018-03-14T14:47:34Z</time>
      </trkpt>
      <trkpt lat="43.89535" lon="7.71967">
        <ele>694.737</ele>
        <time>2018-03-14T14:47:44Z</time>
      </trkpt>
      <trkpt lat="43.89535" lon="7.71963">
        <ele>695.005</ele>
        <time>2018-03-14T14:47:46Z</time>
      </trkpt>
      <trkpt lat="43.89533" lon="7.7196">
        <ele>695.213</ele>
        <time>2018-03-14T14:47:48Z</time>
      </trkpt>
      <trkpt lat="43.89531" lon="7.71955">
        <ele>695.349</ele>
        <time>2018-03-14T14:47:50Z</time>
      </trkpt>
      <trkpt lat="43.8953" lon="7.7195">
        <ele>695.48</ele>
        <time>2018-03-14T14:47:52Z</time>
      </trkpt>
      <trkpt lat="43.89528" lon="7.71946">
        <ele>695.679</ele>
        <time>2018-03-14T14:47:54Z</time>
      </trkpt>
      <trkpt lat="43.89526" lon="7.71943">
        <ele>695.781</ele>
        <time>2018-03-14T14:47:56Z</time>
      </trkpt>
      <trkpt lat="43.89525" lon="7.71939">
        <ele>695.782</ele>
        <time>2018-03-14T14:47:58Z</time>
      </trkpt>
      <trkpt lat="43.89522" lon="7.71935">
        <ele>695.221</ele>
        <time>2018-03-14T14:48:05Z</time>
      </trkpt>
      <trkpt lat="43.89521" lon="7.7193">
        <ele>695.071</ele>
        <time>2018-03-14T14:48:09Z</time>
      </trkpt>
      <trkpt lat="43.89519" lon="7.71927">
        <ele>694.918</ele>
        <time>2018-03-14T14:48:12Z</time>
      </trkpt>
      <trkpt lat="43.89516" lon="7.71926">
        <ele>692.306</ele>
        <time>2018-03-14T14:48:29Z</time>
      </trkpt>
      <trkpt lat="43.89512" lon="7.71925">
        <ele>691.204</ele>
        <time>2018-03-14T14:48:32Z</time>
      </trkpt>
      <trkpt lat="43.89509" lon="7.71924">
        <ele>690.567</ele>
        <time>2018-03-14T14:48:34Z</time>
      </trkpt>
      <trkpt lat="43.89506" lon="7.71925">
        <ele>689.977</ele>
        <time>2018-03-14T14:48:36Z</time>
      </trkpt>
      <trkpt lat="43.89503" lon="7.71927">
        <ele>689.025</ele>
        <time>2018-03-14T14:48:39Z</time>
      </trkpt>
      <trkpt lat="43.89501" lon="7.71929">
        <ele>688.328</ele>
        <time>2018-03-14T14:48:41Z</time>
      </trkpt>
      <trkpt lat="43.89497" lon="7.7193">
        <ele>687.703</ele>
        <time>2018-03-14T14:48:43Z</time>
      </trkpt>
      <trkpt lat="43.89494" lon="7.71931">
        <ele>686.96</ele>
        <time>2018-03-14T14:48:46Z</time>
      </trkpt>
      <trkpt lat="43.89491" lon="7.71932">
        <ele>685.873</ele>
        <time>2018-03-14T14:48:56Z</time>
      </trkpt>
      <trkpt lat="43.89488" lon="7.71932">
        <ele>685.73</ele>
        <time>2018-03-14T14:48:58Z</time>
      </trkpt>
      <trkpt lat="43.89485" lon="7.7193">
        <ele>684.934</ele>
        <time>2018-03-14T14:49:16Z</time>
      </trkpt>
      <trkpt lat="43.89479" lon="7.71927">
        <ele>684.143</ele>
        <time>2018-03-14T14:49:21Z</time>
      </trkpt>
      <trkpt lat="43.89476" lon="7.71928">
        <ele>683.551</ele>
        <time>2018-03-14T14:49:23Z</time>
      </trkpt>
      <trkpt lat="43.89472" lon="7.71928">
        <ele>682.933</ele>
        <time>2018-03-14T14:49:25Z</time>
      </trkpt>
      <trkpt lat="43.89468" lon="7.7193">
        <ele>682.26</ele>
        <time>2018-03-14T14:49:27Z</time>
      </trkpt>
      <trkpt lat="43.89465" lon="7.71929">
        <ele>681.466</ele>
        <time>2018-03-14T14:49:30Z</time>
      </trkpt>
      <trkpt lat="43.89462" lon="7.71928">
        <ele>680.642</ele>
        <time>2018-03-14T14:49:33Z</time>
      </trkpt>
      <trkpt lat="43.89459" lon="7.71928">
        <ele>680.41</ele>
        <time>2018-03-14T14:49:36Z</time>
      </trkpt>
      <trkpt lat="43.89455" lon="7.71927">
        <ele>679.991</ele>
        <time>2018-03-14T14:49:39Z</time>
      </trkpt>
      <trkpt lat="43.89454" lon="7.71923">
        <ele>679.618</ele>
        <time>2018-03-14T14:49:44Z</time>
      </trkpt>
      <trkpt lat="43.89452" lon="7.71919">
        <ele>678.792</ele>
        <time>2018-03-14T14:49:50Z</time>
      </trkpt>
      <trkpt lat="43.89449" lon="7.71914">
        <ele>678.768</ele>
        <time>2018-03-14T14:49:52Z</time>
      </trkpt>
      <trkpt lat="43.89444" lon="7.71911">
        <ele>678.154</ele>
        <time>2018-03-14T14:49:57Z</time>
      </trkpt>
      <trkpt lat="43.89441" lon="7.71911">
        <ele>676.949</ele>
        <time>2018-03-14T14:50:01Z</time>
      </trkpt>
      <trkpt lat="43.89436" lon="7.71908">
        <ele>676.52</ele>
        <time>2018-03-14T14:50:04Z</time>
      </trkpt>
      <trkpt lat="43.89436" lon="7.71904">
        <ele>676.089</ele>
        <time>2018-03-14T14:50:07Z</time>
      </trkpt>
      <trkpt lat="43.89434" lon="7.719">
        <ele>675.624</ele>
        <time>2018-03-14T14:50:14Z</time>
      </trkpt>
      <trkpt lat="43.89431" lon="7.71899">
        <ele>675.157</ele>
        <time>2018-03-14T14:50:17Z</time>
      </trkpt>
      <trkpt lat="43.8943" lon="7.71896">
        <ele>675.142</ele>
        <time>2018-03-14T14:50:19Z</time>
      </trkpt>
      <trkpt lat="43.89428" lon="7.71891">
        <ele>675.154</ele>
        <time>2018-03-14T14:50:22Z</time>
      </trkpt>
      <trkpt lat="43.89426" lon="7.71888">
        <ele>675.068</ele>
        <time>2018-03-14T14:50:26Z</time>
      </trkpt>
      <trkpt lat="43.89423" lon="7.71885">
        <ele>674.882</ele>
        <time>2018-03-14T14:50:28Z</time>
      </trkpt>
      <trkpt lat="43.8942" lon="7.71883">
        <ele>674.585</ele>
        <time>2018-03-14T14:50:31Z</time>
      </trkpt>
      <trkpt lat="43.89418" lon="7.71881">
        <ele>674.432</ele>
        <time>2018-03-14T14:50:33Z</time>
      </trkpt>
      <trkpt lat="43.89416" lon="7.71877">
        <ele>674.086</ele>
        <time>2018-03-14T14:50:35Z</time>
      </trkpt>
      <trkpt lat="43.89415" lon="7.71873">
        <ele>673.606</ele>
        <time>2018-03-14T14:50:37Z</time>
      </trkpt>
      <trkpt lat="43.89414" lon="7.71869">
        <ele>672.885</ele>
        <time>2018-03-14T14:50:40Z</time>
      </trkpt>
      <trkpt lat="43.89413" lon="7.71864">
        <ele>672.519</ele>
        <time>2018-03-14T14:50:42Z</time>
      </trkpt>
      <trkpt lat="43.89411" lon="7.71859">
        <ele>672.152</ele>
        <time>2018-03-14T14:50:44Z</time>
      </trkpt>
      <trkpt lat="43.8941" lon="7.71855">
        <ele>671.789</ele>
        <time>2018-03-14T14:50:46Z</time>
      </trkpt>
      <trkpt lat="43.89408" lon="7.71852">
        <ele>671.453</ele>
        <time>2018-03-14T14:50:48Z</time>
      </trkpt>
      <trkpt lat="43.89407" lon="7.71848">
        <ele>669.578</ele>
        <time>2018-03-14T14:51:05Z</time>
      </trkpt>
      <trkpt lat="43.89406" lon="7.71843">
        <ele>669.32</ele>
        <time>2018-03-14T14:51:07Z</time>
      </trkpt>
      <trkpt lat="43.89403" lon="7.71839">
        <ele>669.085</ele>
        <time>2018-03-14T14:51:09Z</time>
      </trkpt>
      <trkpt lat="43.894" lon="7.71838">
        <ele>668.35</ele>
        <time>2018-03-14T14:51:13Z</time>
      </trkpt>
      <trkpt lat="43.89397" lon="7.71841">
        <ele>667.835</ele>
        <time>2018-03-14T14:51:16Z</time>
      </trkpt>
      <trkpt lat="43.89397" lon="7.71837">
        <ele>666.772</ele>
        <time>2018-03-14T14:51:30Z</time>
      </trkpt>
      <trkpt lat="43.89397" lon="7.71832">
        <ele>666.459</ele>
        <time>2018-03-14T14:51:33Z</time>
      </trkpt>
      <trkpt lat="43.89395" lon="7.71829">
        <ele>665.684</ele>
        <time>2018-03-14T14:51:36Z</time>
      </trkpt>
      <trkpt lat="43.89392" lon="7.7183">
        <ele>658.206</ele>
        <time>2018-03-14T14:53:24Z</time>
      </trkpt>
      <trkpt lat="43.89391" lon="7.71834">
        <ele>657.027</ele>
        <time>2018-03-14T14:53:28Z</time>
      </trkpt>
      <trkpt lat="43.89388" lon="7.71838">
        <ele>656.278</ele>
        <time>2018-03-14T14:53:30Z</time>
      </trkpt>
      <trkpt lat="43.89386" lon="7.71841">
        <ele>655.72</ele>
        <time>2018-03-14T14:53:32Z</time>
      </trkpt>
      <trkpt lat="43.89385" lon="7.71846">
        <ele>655.559</ele>
        <time>2018-03-14T14:53:35Z</time>
      </trkpt>
      <trkpt lat="43.89382" lon="7.71844">
        <ele>655.898</ele>
        <time>2018-03-14T14:53:45Z</time>
      </trkpt>
      <trkpt lat="43.8938" lon="7.71846">
        <ele>657.817</ele>
        <time>2018-03-14T14:53:56Z</time>
      </trkpt>
      <trkpt lat="43.89376" lon="7.71848">
        <ele>659.008</ele>
        <time>2018-03-14T14:54:09Z</time>
      </trkpt>
      <trkpt lat="43.89374" lon="7.71852">
        <ele>658.921</ele>
        <time>2018-03-14T14:54:12Z</time>
      </trkpt>
      <trkpt lat="43.8937" lon="7.7186">
        <ele>658.495</ele>
        <time>2018-03-14T14:54:15Z</time>
      </trkpt>
      <trkpt lat="43.89369" lon="7.71865">
        <ele>657.144</ele>
        <time>2018-03-14T14:54:26Z</time>
      </trkpt>
      <trkpt lat="43.89365" lon="7.71868">
        <ele>653.613</ele>
        <time>2018-03-14T14:54:34Z</time>
      </trkpt>
      <trkpt lat="43.89362" lon="7.7187">
        <ele>652.187</ele>
        <time>2018-03-14T14:54:37Z</time>
      </trkpt>
      <trkpt lat="43.89359" lon="7.71876">
        <ele>651.561</ele>
        <time>2018-03-14T14:54:39Z</time>
      </trkpt>
      <trkpt lat="43.89358" lon="7.7188">
        <ele>650.98</ele>
        <time>2018-03-14T14:54:40Z</time>
      </trkpt>
      <trkpt lat="43.89356" lon="7.71884">
        <ele>649.185</ele>
        <time>2018-03-14T14:54:43Z</time>
      </trkpt>
      <trkpt lat="43.89356" lon="7.7189">
        <ele>647.961</ele>
        <time>2018-03-14T14:54:45Z</time>
      </trkpt>
      <trkpt lat="43.89355" lon="7.71896">
        <ele>646.884</ele>
        <time>2018-03-14T14:54:47Z</time>
      </trkpt>
      <trkpt lat="43.89352" lon="7.71899">
        <ele>645.144</ele>
        <time>2018-03-14T14:54:53Z</time>
      </trkpt>
      <trkpt lat="43.8935" lon="7.71903">
        <ele>643.851</ele>
        <time>2018-03-14T14:54:55Z</time>
      </trkpt>
      <trkpt lat="43.89346" lon="7.71904">
        <ele>642.173</ele>
        <time>2018-03-14T14:54:59Z</time>
      </trkpt>
      <trkpt lat="43.89343" lon="7.71905">
        <ele>641.536</ele>
        <time>2018-03-14T14:55:02Z</time>
      </trkpt>
      <trkpt lat="43.89342" lon="7.71909">
        <ele>640.68</ele>
        <time>2018-03-14T14:55:27Z</time>
      </trkpt>
      <trkpt lat="43.89339" lon="7.71911">
        <ele>640.618</ele>
        <time>2018-03-14T14:55:29Z</time>
      </trkpt>
      <trkpt lat="43.89335" lon="7.71914">
        <ele>640.566</ele>
        <time>2018-03-14T14:55:31Z</time>
      </trkpt>
      <trkpt lat="43.89333" lon="7.71917">
        <ele>640.467</ele>
        <time>2018-03-14T14:55:32Z</time>
      </trkpt>
      <trkpt lat="43.89327" lon="7.71921">
        <ele>640.612</ele>
        <time>2018-03-14T14:55:41Z</time>
      </trkpt>
      <trkpt lat="43.89324" lon="7.71921">
        <ele>640.841</ele>
        <time>2018-03-14T14:56:00Z</time>
      </trkpt>
      <trkpt lat="43.8932" lon="7.71921">
        <ele>640.459</ele>
        <time>2018-03-14T14:56:12Z</time>
      </trkpt>
      <trkpt lat="43.89317" lon="7.7192">
        <ele>640.063</ele>
        <time>2018-03-14T14:56:14Z</time>
      </trkpt>
      <trkpt lat="43.89314" lon="7.71917">
        <ele>639.579</ele>
        <time>2018-03-14T14:56:21Z</time>
      </trkpt>
      <trkpt lat="43.89311" lon="7.71918">
        <ele>639.149</ele>
        <time>2018-03-14T14:56:24Z</time>
      </trkpt>
      <trkpt lat="43.89308" lon="7.71917">
        <ele>637.912</ele>
        <time>2018-03-14T14:56:36Z</time>
      </trkpt>
      <trkpt lat="43.89305" lon="7.71914">
        <ele>636.843</ele>
        <time>2018-03-14T14:56:45Z</time>
      </trkpt>
      <trkpt lat="43.89303" lon="7.71911">
        <ele>636.73</ele>
        <time>2018-03-14T14:56:46Z</time>
      </trkpt>
      <trkpt lat="43.89303" lon="7.71907">
        <ele>635.402</ele>
        <time>2018-03-14T14:56:52Z</time>
      </trkpt>
      <trkpt lat="43.893" lon="7.71902">
        <ele>629.01</ele>
        <time>2018-03-14T14:57:35Z</time>
      </trkpt>
      <trkpt lat="43.89297" lon="7.71899">
        <ele>628.736</ele>
        <time>2018-03-14T14:57:36Z</time>
      </trkpt>
      <trkpt lat="43.89297" lon="7.71894">
        <ele>627.961</ele>
        <time>2018-03-14T14:57:39Z</time>
      </trkpt>
      <trkpt lat="43.89297" lon="7.71888">
        <ele>627.565</ele>
        <time>2018-03-14T14:57:41Z</time>
      </trkpt>
      <trkpt lat="43.89294" lon="7.71883">
        <ele>627.236</ele>
        <time>2018-03-14T14:57:43Z</time>
      </trkpt>
      <trkpt lat="43.89293" lon="7.71877">
        <ele>626.818</ele>
        <time>2018-03-14T14:57:47Z</time>
      </trkpt>
      <trkpt lat="43.89289" lon="7.7187">
        <ele>626.173</ele>
        <time>2018-03-14T14:58:09Z</time>
      </trkpt>
      <trkpt lat="43.89285" lon="7.71865">
        <ele>625.443</ele>
        <time>2018-03-14T14:58:14Z</time>
      </trkpt>
      <trkpt lat="43.89283" lon="7.71861">
        <ele>625.076</ele>
        <time>2018-03-14T14:58:17Z</time>
      </trkpt>
      <trkpt lat="43.8928" lon="7.71859">
        <ele>624.818</ele>
        <time>2018-03-14T14:58:21Z</time>
      </trkpt>
      <trkpt lat="43.89277" lon="7.71854">
        <ele>624.714</ele>
        <time>2018-03-14T14:58:24Z</time>
      </trkpt>
      <trkpt lat="43.89274" lon="7.71847">
        <ele>624.732</ele>
        <time>2018-03-14T14:58:26Z</time>
      </trkpt>
      <trkpt lat="43.89272" lon="7.71842">
        <ele>624.877</ele>
        <time>2018-03-14T14:58:30Z</time>
      </trkpt>
      <trkpt lat="43.8927" lon="7.71839">
        <ele>624.78</ele>
        <time>2018-03-14T14:58:33Z</time>
      </trkpt>
      <trkpt lat="43.8927" lon="7.71833">
        <ele>624.711</ele>
        <time>2018-03-14T14:58:35Z</time>
      </trkpt>
      <trkpt lat="43.8927" lon="7.71826">
        <ele>624.453</ele>
        <time>2018-03-14T14:58:37Z</time>
      </trkpt>
      <trkpt lat="43.8927" lon="7.71822">
        <ele>624.276</ele>
        <time>2018-03-14T14:58:38Z</time>
      </trkpt>
      <trkpt lat="43.89269" lon="7.71813">
        <ele>623.714</ele>
        <time>2018-03-14T14:58:41Z</time>
      </trkpt>
      <trkpt lat="43.89266" lon="7.7181">
        <ele>623.388</ele>
        <time>2018-03-14T14:58:43Z</time>
      </trkpt>
      <trkpt lat="43.89264" lon="7.71807">
        <ele>621.981</ele>
        <time>2018-03-14T14:59:01Z</time>
      </trkpt>
      <trkpt lat="43.89262" lon="7.71803">
        <ele>621.556</ele>
        <time>2018-03-14T14:59:03Z</time>
      </trkpt>
      <trkpt lat="43.89259" lon="7.71798">
        <ele>620.866</ele>
        <time>2018-03-14T14:59:08Z</time>
      </trkpt>
      <trkpt lat="43.89258" lon="7.71794">
        <ele>620.797</ele>
        <time>2018-03-14T14:59:21Z</time>
      </trkpt>
      <trkpt lat="43.89253" lon="7.71791">
        <ele>620.781</ele>
        <time>2018-03-14T14:59:23Z</time>
      </trkpt>
      <trkpt lat="43.89251" lon="7.71787">
        <ele>620.408</ele>
        <time>2018-03-14T14:59:35Z</time>
      </trkpt>
      <trkpt lat="43.89247" lon="7.71781">
        <ele>620.124</ele>
        <time>2018-03-14T14:59:38Z</time>
      </trkpt>
      <trkpt lat="43.89245" lon="7.71777">
        <ele>619.712</ele>
        <time>2018-03-14T14:59:40Z</time>
      </trkpt>
      <trkpt lat="43.89242" lon="7.71775">
        <ele>619.427</ele>
        <time>2018-03-14T14:59:53Z</time>
      </trkpt>
      <trkpt lat="43.89244" lon="7.71771">
        <ele>620.596</ele>
        <time>2018-03-14T15:00:04Z</time>
      </trkpt>
      <trkpt lat="43.89249" lon="7.7177">
        <ele>620.875</ele>
        <time>2018-03-14T15:00:24Z</time>
      </trkpt>
      <trkpt lat="43.89246" lon="7.71764">
        <ele>623.717</ele>
        <time>2018-03-14T15:01:07Z</time>
      </trkpt>
      <trkpt lat="43.89244" lon="7.7176">
        <ele>624.732</ele>
        <time>2018-03-14T15:01:30Z</time>
      </trkpt>
      <trkpt lat="43.89241" lon="7.71758">
        <ele>624.996</ele>
        <time>2018-03-14T15:01:33Z</time>
      </trkpt>
      <trkpt lat="43.89239" lon="7.71755">
        <ele>625.012</ele>
        <time>2018-03-14T15:01:40Z</time>
      </trkpt>
      <trkpt lat="43.89236" lon="7.71752">
        <ele>624.912</ele>
        <time>2018-03-14T15:01:43Z</time>
      </trkpt>
      <trkpt lat="43.89234" lon="7.7175">
        <ele>624.736</ele>
        <time>2018-03-14T15:02:08Z</time>
      </trkpt>
      <trkpt lat="43.8923" lon="7.71741">
        <ele>624.7</ele>
        <time>2018-03-14T15:02:11Z</time>
      </trkpt>
      <trkpt lat="43.89228" lon="7.71738">
        <ele>624.56</ele>
        <time>2018-03-14T15:02:13Z</time>
      </trkpt>
      <trkpt lat="43.89226" lon="7.71734">
        <ele>624.398</ele>
        <time>2018-03-14T15:02:15Z</time>
      </trkpt>
      <trkpt lat="43.89224" lon="7.71729">
        <ele>624.064</ele>
        <time>2018-03-14T15:02:17Z</time>
      </trkpt>
      <trkpt lat="43.89226" lon="7.71723">
        <ele>623.024</ele>
        <time>2018-03-14T15:02:28Z</time>
      </trkpt>
      <trkpt lat="43.89227" lon="7.71718">
        <ele>623.059</ele>
        <time>2018-03-14T15:02:30Z</time>
      </trkpt>
      <trkpt lat="43.89227" lon="7.71712">
        <ele>622.945</ele>
        <time>2018-03-14T15:02:32Z</time>
      </trkpt>
      <trkpt lat="43.89227" lon="7.71706">
        <ele>622.835</ele>
        <time>2018-03-14T15:02:34Z</time>
      </trkpt>
      <trkpt lat="43.89226" lon="7.71701">
        <ele>622.715</ele>
        <time>2018-03-14T15:02:36Z</time>
      </trkpt>
      <trkpt lat="43.89225" lon="7.71697">
        <ele>622.503</ele>
        <time>2018-03-14T15:02:38Z</time>
      </trkpt>
      <trkpt lat="43.89224" lon="7.71693">
        <ele>622.308</ele>
        <time>2018-03-14T15:02:40Z</time>
      </trkpt>
      <trkpt lat="43.89222" lon="7.71689">
        <ele>621.37</ele>
        <time>2018-03-14T15:03:03Z</time>
      </trkpt>
      <trkpt lat="43.89221" lon="7.71685">
        <ele>621.033</ele>
        <time>2018-03-14T15:03:05Z</time>
      </trkpt>
      <trkpt lat="43.8922" lon="7.7168">
        <ele>620.629</ele>
        <time>2018-03-14T15:03:07Z</time>
      </trkpt>
      <trkpt lat="43.89218" lon="7.71677">
        <ele>620.39</ele>
        <time>2018-03-14T15:03:10Z</time>
      </trkpt>
      <trkpt lat="43.89218" lon="7.71672">
        <ele>620.07</ele>
        <time>2018-03-14T15:03:15Z</time>
      </trkpt>
      <trkpt lat="43.89216" lon="7.71668">
        <ele>619.948</ele>
        <time>2018-03-14T15:03:17Z</time>
      </trkpt>
      <trkpt lat="43.89214" lon="7.71663">
        <ele>619.936</ele>
        <time>2018-03-14T15:03:21Z</time>
      </trkpt>
      <trkpt lat="43.89214" lon="7.71656">
        <ele>620.281</ele>
        <time>2018-03-14T15:03:24Z</time>
      </trkpt>
      <trkpt lat="43.89213" lon="7.71646">
        <ele>620.584</ele>
        <time>2018-03-14T15:03:26Z</time>
      </trkpt>
      <trkpt lat="43.89212" lon="7.71636">
        <ele>621.166</ele>
        <time>2018-03-14T15:03:30Z</time>
      </trkpt>
      <trkpt lat="43.89209" lon="7.71633">
        <ele>622.029</ele>
        <time>2018-03-14T15:03:34Z</time>
      </trkpt>
      <trkpt lat="43.89212" lon="7.71632">
        <ele>622.928</ele>
        <time>2018-03-14T15:04:00Z</time>
      </trkpt>
      <trkpt lat="43.89214" lon="7.71627">
        <ele>623.803</ele>
        <time>2018-03-14T15:04:10Z</time>
      </trkpt>
      <trkpt lat="43.89212" lon="7.71625">
        <ele>625.318</ele>
        <time>2018-03-14T15:04:19Z</time>
      </trkpt>
      <trkpt lat="43.89214" lon="7.71622">
        <ele>626.802</ele>
        <time>2018-03-14T15:05:08Z</time>
      </trkpt>
      <trkpt lat="43.89212" lon="7.7162">
        <ele>627.388</ele>
        <time>2018-03-14T15:06:01Z</time>
      </trkpt>
      <trkpt lat="43.89209" lon="7.71619">
        <ele>627.47</ele>
        <time>2018-03-14T15:06:13Z</time>
      </trkpt>
      <trkpt lat="43.89212" lon="7.71621">
        <ele>627.481</ele>
        <time>2018-03-14T15:06:31Z</time>
      </trkpt>
      <trkpt lat="43.89212" lon="7.71626">
        <ele>627.478</ele>
        <time>2018-03-14T15:06:38Z</time>
      </trkpt>
      <trkpt lat="43.89213" lon="7.71629">
        <ele>627.345</ele>
        <time>2018-03-14T15:06:49Z</time>
      </trkpt>
      <trkpt lat="43.89216" lon="7.71629">
        <ele>627.045</ele>
        <time>2018-03-14T15:06:57Z</time>
      </trkpt>
      <trkpt lat="43.89217" lon="7.71626">
        <ele>626.72</ele>
        <time>2018-03-14T15:07:12Z</time>
      </trkpt>
      <trkpt lat="43.89219" lon="7.71623">
        <ele>626.591</ele>
        <time>2018-03-14T15:07:23Z</time>
      </trkpt>
      <trkpt lat="43.89216" lon="7.71622">
        <ele>627.736</ele>
        <time>2018-03-14T15:07:55Z</time>
      </trkpt>
      <trkpt lat="43.89215" lon="7.71619">
        <ele>628.845</ele>
        <time>2018-03-14T15:08:18Z</time>
      </trkpt>
      <trkpt lat="43.89216" lon="7.71622">
        <ele>629.045</ele>
        <time>2018-03-14T15:08:36Z</time>
      </trkpt>
      <trkpt lat="43.89219" lon="7.71624">
        <ele>628.683</ele>
        <time>2018-03-14T15:08:59Z</time>
      </trkpt>
      <trkpt lat="43.89222" lon="7.71624">
        <ele>627.993</ele>
        <time>2018-03-14T15:09:09Z</time>
      </trkpt>
      <trkpt lat="43.89225" lon="7.71623">
        <ele>627.119</ele>
        <time>2018-03-14T15:09:17Z</time>
      </trkpt>
      <trkpt lat="43.89222" lon="7.71624">
        <ele>626.6</ele>
        <time>2018-03-14T15:09:49Z</time>
      </trkpt>
      <trkpt lat="43.8922" lon="7.71627">
        <ele>626.187</ele>
        <time>2018-03-14T15:09:57Z</time>
      </trkpt>
      <trkpt lat="43.89217" lon="7.71626">
        <ele>626.189</ele>
        <time>2018-03-14T15:10:07Z</time>
      </trkpt>
      <trkpt lat="43.89215" lon="7.71623">
        <ele>626.705</ele>
        <time>2018-03-14T15:10:27Z</time>
      </trkpt>
      <trkpt lat="43.89217" lon="7.71621">
        <ele>627.685</ele>
        <time>2018-03-14T15:11:41Z</time>
      </trkpt>
      <trkpt lat="43.89214" lon="7.71621">
        <ele>628.533</ele>
        <time>2018-03-14T15:12:16Z</time>
      </trkpt>
      <trkpt lat="43.89212" lon="7.71623">
        <ele>628.55</ele>
        <time>2018-03-14T15:12:34Z</time>
      </trkpt>
      <trkpt lat="43.8921" lon="7.71625">
        <ele>628.51</ele>
        <time>2018-03-14T15:12:44Z</time>
      </trkpt>
      <trkpt lat="43.89213" lon="7.71625">
        <ele>628.218</ele>
        <time>2018-03-14T15:13:18Z</time>
      </trkpt>
      <trkpt lat="43.89211" lon="7.71626">
        <ele>627.415</ele>
        <time>2018-03-14T15:14:33Z</time>
      </trkpt>
      <trkpt lat="43.89209" lon="7.71623">
        <ele>627.373</ele>
        <time>2018-03-14T15:14:46Z</time>
      </trkpt>
      <trkpt lat="43.89209" lon="7.71618">
        <ele>626.843</ele>
        <time>2018-03-14T15:14:55Z</time>
      </trkpt>
      <trkpt lat="43.89211" lon="7.71615">
        <ele>626.635</ele>
        <time>2018-03-14T15:14:58Z</time>
      </trkpt>
      <trkpt lat="43.89211" lon="7.71611">
        <ele>626.649</ele>
        <time>2018-03-14T15:15:14Z</time>
      </trkpt>
      <trkpt lat="43.89207" lon="7.71602">
        <ele>626.885</ele>
        <time>2018-03-14T15:15:17Z</time>
      </trkpt>
      <trkpt lat="43.89206" lon="7.71597">
        <ele>629.459</ele>
        <time>2018-03-14T15:16:06Z</time>
      </trkpt>
      <trkpt lat="43.89205" lon="7.71591">
        <ele>629.107</ele>
        <time>2018-03-14T15:16:09Z</time>
      </trkpt>
      <trkpt lat="43.89205" lon="7.71584">
        <ele>627.871</ele>
        <time>2018-03-14T15:16:14Z</time>
      </trkpt>
      <trkpt lat="43.89204" lon="7.71579">
        <ele>627.444</ele>
        <time>2018-03-14T15:16:16Z</time>
      </trkpt>
      <trkpt lat="43.89204" lon="7.71574">
        <ele>627.3</ele>
        <time>2018-03-14T15:16:19Z</time>
      </trkpt>
      <trkpt lat="43.89205" lon="7.71571">
        <ele>627.837</ele>
        <time>2018-03-14T15:16:58Z</time>
      </trkpt>
      <trkpt lat="43.89206" lon="7.71565">
        <ele>628.428</ele>
        <time>2018-03-14T15:17:00Z</time>
      </trkpt>
      <trkpt lat="43.89206" lon="7.71561">
        <ele>628.407</ele>
        <time>2018-03-14T15:17:08Z</time>
      </trkpt>
      <trkpt lat="43.89206" lon="7.71566">
        <ele>627.344</ele>
        <time>2018-03-14T15:17:22Z</time>
      </trkpt>
      <trkpt lat="43.89203" lon="7.71564">
        <ele>627.486</ele>
        <time>2018-03-14T15:17:30Z</time>
      </trkpt>
      <trkpt lat="43.89202" lon="7.7156">
        <ele>628.542</ele>
        <time>2018-03-14T15:18:29Z</time>
      </trkpt>
      <trkpt lat="43.89203" lon="7.71555">
        <ele>627.06</ele>
        <time>2018-03-14T15:19:16Z</time>
      </trkpt>
      <trkpt lat="43.892" lon="7.71553">
        <ele>627.747</ele>
        <time>2018-03-14T15:19:45Z</time>
      </trkpt>
      <trkpt lat="43.89198" lon="7.71555">
        <ele>629.217</ele>
        <time>2018-03-14T15:20:16Z</time>
      </trkpt>
      <trkpt lat="43.892" lon="7.71551">
        <ele>628.439</ele>
        <time>2018-03-14T15:20:43Z</time>
      </trkpt>
      <trkpt lat="43.89201" lon="7.71546">
        <ele>630.231</ele>
        <time>2018-03-14T15:21:09Z</time>
      </trkpt>
      <trkpt lat="43.892" lon="7.71541">
        <ele>630.176</ele>
        <time>2018-03-14T15:21:13Z</time>
      </trkpt>
      <trkpt lat="43.89199" lon="7.71536">
        <ele>630.237</ele>
        <time>2018-03-14T15:21:44Z</time>
      </trkpt>
      <trkpt lat="43.89199" lon="7.71532">
        <ele>630.172</ele>
        <time>2018-03-14T15:21:46Z</time>
      </trkpt>
      <trkpt lat="43.89198" lon="7.71526">
        <ele>630.372</ele>
        <time>2018-03-14T15:21:49Z</time>
      </trkpt>
      <trkpt lat="43.89196" lon="7.71523">
        <ele>630.519</ele>
        <time>2018-03-14T15:21:52Z</time>
      </trkpt>
      <trkpt lat="43.89193" lon="7.7152">
        <ele>630.591</ele>
        <time>2018-03-14T15:21:55Z</time>
      </trkpt>
      <trkpt lat="43.89194" lon="7.71516">
        <ele>630.932</ele>
        <time>2018-03-14T15:22:51Z</time>
      </trkpt>
      <trkpt lat="43.89194" lon="7.71512">
        <ele>630.904</ele>
        <time>2018-03-14T15:22:53Z</time>
      </trkpt>
      <trkpt lat="43.89192" lon="7.71507">
        <ele>630.61</ele>
        <time>2018-03-14T15:22:56Z</time>
      </trkpt>
      <trkpt lat="43.8919" lon="7.71503">
        <ele>630.411</ele>
        <time>2018-03-14T15:22:58Z</time>
      </trkpt>
      <trkpt lat="43.89188" lon="7.715">
        <ele>630.296</ele>
        <time>2018-03-14T15:23:00Z</time>
      </trkpt>
      <trkpt lat="43.89185" lon="7.71495">
        <ele>630.249</ele>
        <time>2018-03-14T15:23:03Z</time>
      </trkpt>
      <trkpt lat="43.89182" lon="7.71493">
        <ele>629.322</ele>
        <time>2018-03-14T15:23:32Z</time>
      </trkpt>
      <trkpt lat="43.8918" lon="7.71489">
        <ele>629.054</ele>
        <time>2018-03-14T15:23:34Z</time>
      </trkpt>
      <trkpt lat="43.8918" lon="7.71485">
        <ele>628.77</ele>
        <time>2018-03-14T15:23:38Z</time>
      </trkpt>
      <trkpt lat="43.89181" lon="7.71481">
        <ele>628.435</ele>
        <time>2018-03-14T15:24:11Z</time>
      </trkpt>
      <trkpt lat="43.89178" lon="7.71479">
        <ele>627.799</ele>
        <time>2018-03-14T15:24:42Z</time>
      </trkpt>
      <trkpt lat="43.8918" lon="7.71475">
        <ele>627.731</ele>
        <time>2018-03-14T15:25:15Z</time>
      </trkpt>
      <trkpt lat="43.89182" lon="7.71472">
        <ele>627.543</ele>
        <time>2018-03-14T15:25:28Z</time>
      </trkpt>
      <trkpt lat="43.89183" lon="7.71467">
        <ele>627.15</ele>
        <time>2018-03-14T15:25:31Z</time>
      </trkpt>
      <trkpt lat="43.89183" lon="7.71463">
        <ele>626.681</ele>
        <time>2018-03-14T15:25:34Z</time>
      </trkpt>
      <trkpt lat="43.89182" lon="7.71459">
        <ele>626.264</ele>
        <time>2018-03-14T15:25:36Z</time>
      </trkpt>
      <trkpt lat="43.8918" lon="7.71455">
        <ele>626.115</ele>
        <time>2018-03-14T15:25:51Z</time>
      </trkpt>
      <trkpt lat="43.89179" lon="7.71452">
        <ele>626.006</ele>
        <time>2018-03-14T15:25:55Z</time>
      </trkpt>
      <trkpt lat="43.89176" lon="7.71452">
        <ele>625.277</ele>
        <time>2018-03-14T15:26:02Z</time>
      </trkpt>
      <trkpt lat="43.89173" lon="7.71448">
        <ele>624.647</ele>
        <time>2018-03-14T15:26:09Z</time>
      </trkpt>
      <trkpt lat="43.89172" lon="7.71445">
        <ele>624.161</ele>
        <time>2018-03-14T15:26:12Z</time>
      </trkpt>
      <trkpt lat="43.89169" lon="7.71445">
        <ele>622.623</ele>
        <time>2018-03-14T15:26:20Z</time>
      </trkpt>
      <trkpt lat="43.89166" lon="7.7144">
        <ele>621.808</ele>
        <time>2018-03-14T15:26:23Z</time>
      </trkpt>
      <trkpt lat="43.89164" lon="7.71436">
        <ele>620.92</ele>
        <time>2018-03-14T15:26:27Z</time>
      </trkpt>
      <trkpt lat="43.89162" lon="7.71432">
        <ele>619.91</ele>
        <time>2018-03-14T15:26:31Z</time>
      </trkpt>
      <trkpt lat="43.89158" lon="7.71428">
        <ele>619.382</ele>
        <time>2018-03-14T15:26:33Z</time>
      </trkpt>
      <trkpt lat="43.89155" lon="7.71426">
        <ele>618.385</ele>
        <time>2018-03-14T15:26:38Z</time>
      </trkpt>
      <trkpt lat="43.89152" lon="7.71427">
        <ele>616.945</ele>
        <time>2018-03-14T15:26:50Z</time>
      </trkpt>
      <trkpt lat="43.8915" lon="7.7143">
        <ele>616.402</ele>
        <time>2018-03-14T15:26:52Z</time>
      </trkpt>
      <trkpt lat="43.89146" lon="7.71427">
        <ele>615.823</ele>
        <time>2018-03-14T15:26:54Z</time>
      </trkpt>
      <trkpt lat="43.89144" lon="7.71425">
        <ele>614.335</ele>
        <time>2018-03-14T15:26:59Z</time>
      </trkpt>
      <trkpt lat="43.89141" lon="7.71422">
        <ele>612.882</ele>
        <time>2018-03-14T15:27:11Z</time>
      </trkpt>
      <trkpt lat="43.8914" lon="7.71418">
        <ele>612.491</ele>
        <time>2018-03-14T15:27:14Z</time>
      </trkpt>
      <trkpt lat="43.89141" lon="7.71414">
        <ele>612.422</ele>
        <time>2018-03-14T15:27:16Z</time>
      </trkpt>
      <trkpt lat="43.89144" lon="7.71411">
        <ele>612.027</ele>
        <time>2018-03-14T15:27:19Z</time>
      </trkpt>
      <trkpt lat="43.89146" lon="7.71408">
        <ele>612.214</ele>
        <time>2018-03-14T15:27:33Z</time>
      </trkpt>
      <trkpt lat="43.89148" lon="7.71403">
        <ele>612.056</ele>
        <time>2018-03-14T15:27:36Z</time>
      </trkpt>
      <trkpt lat="43.89145" lon="7.71404">
        <ele>608.618</ele>
        <time>2018-03-14T15:28:45Z</time>
      </trkpt>
      <trkpt lat="43.89147" lon="7.71399">
        <ele>607.437</ele>
        <time>2018-03-14T15:29:14Z</time>
      </trkpt>
      <trkpt lat="43.89145" lon="7.71396">
        <ele>607.007</ele>
        <time>2018-03-14T15:29:24Z</time>
      </trkpt>
      <trkpt lat="43.89145" lon="7.71392">
        <ele>606.649</ele>
        <time>2018-03-14T15:29:35Z</time>
      </trkpt>
      <trkpt lat="43.89147" lon="7.71389">
        <ele>606.323</ele>
        <time>2018-03-14T15:29:39Z</time>
      </trkpt>
      <trkpt lat="43.89149" lon="7.71385">
        <ele>605.805</ele>
        <time>2018-03-14T15:29:46Z</time>
      </trkpt>
      <trkpt lat="43.89149" lon="7.7138">
        <ele>605.32</ele>
        <time>2018-03-14T15:29:54Z</time>
      </trkpt>
      <trkpt lat="43.89151" lon="7.71382">
        <ele>605.97</ele>
        <time>2018-03-14T15:30:13Z</time>
      </trkpt>
      <trkpt lat="43.89152" lon="7.71378">
        <ele>605.97</ele>
        <time>2018-03-14T15:30:20Z</time>
      </trkpt>
      <trkpt lat="43.89153" lon="7.71373">
        <ele>605.798</ele>
        <time>2018-03-14T15:30:23Z</time>
      </trkpt>
      <trkpt lat="43.89154" lon="7.71367">
        <ele>605.458</ele>
        <time>2018-03-14T15:30:26Z</time>
      </trkpt>
      <trkpt lat="43.89155" lon="7.71362">
        <ele>605.34</ele>
        <time>2018-03-14T15:30:28Z</time>
      </trkpt>
      <trkpt lat="43.89155" lon="7.71357">
        <ele>605.118</ele>
        <time>2018-03-14T15:30:30Z</time>
      </trkpt>
      <trkpt lat="43.89155" lon="7.71352">
        <ele>604.853</ele>
        <time>2018-03-14T15:30:33Z</time>
      </trkpt>
      <trkpt lat="43.89153" lon="7.71349">
        <ele>603.809</ele>
        <time>2018-03-14T15:30:56Z</time>
      </trkpt>
      <trkpt lat="43.89151" lon="7.71348">
        <ele>602.755</ele>
        <time>2018-03-14T15:31:01Z</time>
      </trkpt>
      <trkpt lat="43.89147" lon="7.71347">
        <ele>602.123</ele>
        <time>2018-03-14T15:31:09Z</time>
      </trkpt>
      <trkpt lat="43.89146" lon="7.71344">
        <ele>602</ele>
        <time>2018-03-14T15:31:14Z</time>
      </trkpt>
      <trkpt lat="43.89144" lon="7.71341">
        <ele>601.96</ele>
        <time>2018-03-14T15:31:19Z</time>
      </trkpt>
      <trkpt lat="43.89145" lon="7.71337">
        <ele>601.929</ele>
        <time>2018-03-14T15:31:27Z</time>
      </trkpt>
      <trkpt lat="43.89143" lon="7.71334">
        <ele>602.044</ele>
        <time>2018-03-14T15:31:36Z</time>
      </trkpt>
      <trkpt lat="43.89141" lon="7.71331">
        <ele>602.643</ele>
        <time>2018-03-14T15:31:42Z</time>
      </trkpt>
      <trkpt lat="43.89143" lon="7.71327">
        <ele>602.559</ele>
        <time>2018-03-14T15:32:20Z</time>
      </trkpt>
      <trkpt lat="43.8914" lon="7.71325">
        <ele>602.741</ele>
        <time>2018-03-14T15:34:04Z</time>
      </trkpt>
      <trkpt lat="43.89138" lon="7.71324">
        <ele>602.405</ele>
        <time>2018-03-14T15:34:23Z</time>
      </trkpt>
      <trkpt lat="43.89139" lon="7.71327">
        <ele>602.449</ele>
        <time>2018-03-14T15:34:49Z</time>
      </trkpt>
      <trkpt lat="43.8914" lon="7.71331">
        <ele>602.214</ele>
        <time>2018-03-14T15:36:51Z</time>
      </trkpt>
      <trkpt lat="43.89141" lon="7.71334">
        <ele>602.506</ele>
        <time>2018-03-14T15:37:14Z</time>
      </trkpt>
      <trkpt lat="43.89142" lon="7.71331">
        <ele>602.282</ele>
        <time>2018-03-14T15:37:26Z</time>
      </trkpt>
      <trkpt lat="43.8914" lon="7.71329">
        <ele>602.324</ele>
        <time>2018-03-14T15:37:41Z</time>
      </trkpt>
      <trkpt lat="43.89142" lon="7.71331">
        <ele>602.202</ele>
        <time>2018-03-14T15:37:56Z</time>
      </trkpt>
      <trkpt lat="43.8914" lon="7.71335">
        <ele>602.005</ele>
        <time>2018-03-14T15:38:04Z</time>
      </trkpt>
      <trkpt lat="43.89138" lon="7.71337">
        <ele>601.738</ele>
        <time>2018-03-14T15:38:09Z</time>
      </trkpt>
      <trkpt lat="43.89135" lon="7.71339">
        <ele>601.573</ele>
        <time>2018-03-14T15:38:13Z</time>
      </trkpt>
      <trkpt lat="43.89133" lon="7.71344">
        <ele>601.579</ele>
        <time>2018-03-14T15:38:17Z</time>
      </trkpt>
      <trkpt lat="43.89135" lon="7.7134">
        <ele>601.077</ele>
        <time>2018-03-14T15:38:39Z</time>
      </trkpt>
      <trkpt lat="43.89136" lon="7.71336">
        <ele>600.946</ele>
        <time>2018-03-14T15:38:44Z</time>
      </trkpt>
      <trkpt lat="43.89136" lon="7.71332">
        <ele>600.791</ele>
        <time>2018-03-14T15:38:55Z</time>
      </trkpt>
      <trkpt lat="43.89139" lon="7.71331">
        <ele>600.358</ele>
        <time>2018-03-14T15:39:02Z</time>
      </trkpt>
      <trkpt lat="43.89142" lon="7.7133">
        <ele>600.385</ele>
        <time>2018-03-14T15:39:05Z</time>
      </trkpt>
      <trkpt lat="43.89142" lon="7.71325">
        <ele>601.481</ele>
        <time>2018-03-14T15:39:43Z</time>
      </trkpt>
      <trkpt lat="43.89143" lon="7.71322">
        <ele>601.391</ele>
        <time>2018-03-14T15:39:46Z</time>
      </trkpt>
      <trkpt lat="43.89145" lon="7.71317">
        <ele>601.349</ele>
        <time>2018-03-14T15:39:48Z</time>
      </trkpt>
      <trkpt lat="43.89144" lon="7.71313">
        <ele>601.236</ele>
        <time>2018-03-14T15:39:50Z</time>
      </trkpt>
      <trkpt lat="43.89142" lon="7.7131">
        <ele>601.21</ele>
        <time>2018-03-14T15:39:52Z</time>
      </trkpt>
      <trkpt lat="43.89139" lon="7.71308">
        <ele>601.629</ele>
        <time>2018-03-14T15:40:00Z</time>
      </trkpt>
      <trkpt lat="43.89136" lon="7.71306">
        <ele>601.693</ele>
        <time>2018-03-14T15:40:06Z</time>
      </trkpt>
      <trkpt lat="43.89135" lon="7.71309">
        <ele>601.517</ele>
        <time>2018-03-14T15:40:19Z</time>
      </trkpt>
      <trkpt lat="43.89132" lon="7.71307">
        <ele>600.407</ele>
        <time>2018-03-14T15:40:38Z</time>
      </trkpt>
      <trkpt lat="43.89131" lon="7.71303">
        <ele>600.248</ele>
        <time>2018-03-14T15:40:52Z</time>
      </trkpt>
      <trkpt lat="43.89129" lon="7.713">
        <ele>599.348</ele>
        <time>2018-03-14T15:41:01Z</time>
      </trkpt>
      <trkpt lat="43.89126" lon="7.71298">
        <ele>597.374</ele>
        <time>2018-03-14T15:41:10Z</time>
      </trkpt>
      <trkpt lat="43.8913" lon="7.71297">
        <ele>596.558</ele>
        <time>2018-03-14T15:41:15Z</time>
      </trkpt>
      <trkpt lat="43.89127" lon="7.71294">
        <ele>596.1</ele>
        <time>2018-03-14T15:41:25Z</time>
      </trkpt>
      <trkpt lat="43.89129" lon="7.71291">
        <ele>594.81</ele>
        <time>2018-03-14T15:41:32Z</time>
      </trkpt>
      <trkpt lat="43.89131" lon="7.71288">
        <ele>594.339</ele>
        <time>2018-03-14T15:41:42Z</time>
      </trkpt>
      <trkpt lat="43.89131" lon="7.71284">
        <ele>592.574</ele>
        <time>2018-03-14T15:42:08Z</time>
      </trkpt>
      <trkpt lat="43.89129" lon="7.7128">
        <ele>592.147</ele>
        <time>2018-03-14T15:42:19Z</time>
      </trkpt>
      <trkpt lat="43.89129" lon="7.71275">
        <ele>591.336</ele>
        <time>2018-03-14T15:42:22Z</time>
      </trkpt>
      <trkpt lat="43.89131" lon="7.71272">
        <ele>590.455</ele>
        <time>2018-03-14T15:42:25Z</time>
      </trkpt>
      <trkpt lat="43.89128" lon="7.71269">
        <ele>586.176</ele>
        <time>2018-03-14T15:43:07Z</time>
      </trkpt>
      <trkpt lat="43.89127" lon="7.71266">
        <ele>584.908</ele>
        <time>2018-03-14T15:43:17Z</time>
      </trkpt>
      <trkpt lat="43.89126" lon="7.71262">
        <ele>584.428</ele>
        <time>2018-03-14T15:43:20Z</time>
      </trkpt>
      <trkpt lat="43.89124" lon="7.71258">
        <ele>583.883</ele>
        <time>2018-03-14T15:43:23Z</time>
      </trkpt>
      <trkpt lat="43.89124" lon="7.71254">
        <ele>583.477</ele>
        <time>2018-03-14T15:43:36Z</time>
      </trkpt>
      <trkpt lat="43.89125" lon="7.7125">
        <ele>582.624</ele>
        <time>2018-03-14T15:43:41Z</time>
      </trkpt>
      <trkpt lat="43.89128" lon="7.7125">
        <ele>582.037</ele>
        <time>2018-03-14T15:43:46Z</time>
      </trkpt>
      <trkpt lat="43.8913" lon="7.71247">
        <ele>579.762</ele>
        <time>2018-03-14T15:44:16Z</time>
      </trkpt>
      <trkpt lat="43.89131" lon="7.71243">
        <ele>579.044</ele>
        <time>2018-03-14T15:44:46Z</time>
      </trkpt>
      <trkpt lat="43.8913" lon="7.7124">
        <ele>577.852</ele>
        <time>2018-03-14T15:45:25Z</time>
      </trkpt>
      <trkpt lat="43.89127" lon="7.71238">
        <ele>577.641</ele>
        <time>2018-03-14T15:46:11Z</time>
      </trkpt>
      <trkpt lat="43.89125" lon="7.71235">
        <ele>577.539</ele>
        <time>2018-03-14T15:46:19Z</time>
      </trkpt>
      <trkpt lat="43.89122" lon="7.71234">
        <ele>576.352</ele>
        <time>2018-03-14T15:46:51Z</time>
      </trkpt>
      <trkpt lat="43.8912" lon="7.71231">
        <ele>575.724</ele>
        <time>2018-03-14T15:47:28Z</time>
      </trkpt>
      <trkpt lat="43.89117" lon="7.71229">
        <ele>575.169</ele>
        <time>2018-03-14T15:47:46Z</time>
      </trkpt>
      <trkpt lat="43.89114" lon="7.71228">
        <ele>574.706</ele>
        <time>2018-03-14T15:47:51Z</time>
      </trkpt>
      <trkpt lat="43.89112" lon="7.71224">
        <ele>573.862</ele>
        <time>2018-03-14T15:48:06Z</time>
      </trkpt>
      <trkpt lat="43.89111" lon="7.71221">
        <ele>573.867</ele>
        <time>2018-03-14T15:48:10Z</time>
      </trkpt>
      <trkpt lat="43.89108" lon="7.71219">
        <ele>573.57</ele>
        <time>2018-03-14T15:48:20Z</time>
      </trkpt>
      <trkpt lat="43.89105" lon="7.71219">
        <ele>573.047</ele>
        <time>2018-03-14T15:48:24Z</time>
      </trkpt>
      <trkpt lat="43.89102" lon="7.71222">
        <ele>571.537</ele>
        <time>2018-03-14T15:48:46Z</time>
      </trkpt>
      <trkpt lat="43.89104" lon="7.71217">
        <ele>570.953</ele>
        <time>2018-03-14T15:48:54Z</time>
      </trkpt>
      <trkpt lat="43.89104" lon="7.71212">
        <ele>570.431</ele>
        <time>2018-03-14T15:48:56Z</time>
      </trkpt>
      <trkpt lat="43.89102" lon="7.71209">
        <ele>569.46</ele>
        <time>2018-03-14T15:49:01Z</time>
      </trkpt>
      <trkpt lat="43.89101" lon="7.71205">
        <ele>568.916</ele>
        <time>2018-03-14T15:49:15Z</time>
      </trkpt>
      <trkpt lat="43.89099" lon="7.71204">
        <ele>567.459</ele>
        <time>2018-03-14T15:50:00Z</time>
      </trkpt>
      <trkpt lat="43.89094" lon="7.71201">
        <ele>566.603</ele>
        <time>2018-03-14T15:50:05Z</time>
      </trkpt>
      <trkpt lat="43.89092" lon="7.71191">
        <ele>566.346</ele>
        <time>2018-03-14T15:50:09Z</time>
      </trkpt>
      <trkpt lat="43.89091" lon="7.71187">
        <ele>566.278</ele>
        <time>2018-03-14T15:50:12Z</time>
      </trkpt>
      <trkpt lat="43.89088" lon="7.71188">
        <ele>565.598</ele>
        <time>2018-03-14T15:50:28Z</time>
      </trkpt>
      <trkpt lat="43.89095" lon="7.71187">
        <ele>562.943</ele>
        <time>2018-03-14T15:50:53Z</time>
      </trkpt>
      <trkpt lat="43.89093" lon="7.71191">
        <ele>562.362</ele>
        <time>2018-03-14T15:51:17Z</time>
      </trkpt>
      <trkpt lat="43.89091" lon="7.71189">
        <ele>562.108</ele>
        <time>2018-03-14T15:51:39Z</time>
      </trkpt>
      <trkpt lat="43.89091" lon="7.71184">
        <ele>562.199</ele>
        <time>2018-03-14T15:51:41Z</time>
      </trkpt>
      <trkpt lat="43.89092" lon="7.71181">
        <ele>562.208</ele>
        <time>2018-03-14T15:51:43Z</time>
      </trkpt>
      <trkpt lat="43.89093" lon="7.71177">
        <ele>562.15</ele>
        <time>2018-03-14T15:51:45Z</time>
      </trkpt>
      <trkpt lat="43.89094" lon="7.71173">
        <ele>561.951</ele>
        <time>2018-03-14T15:51:48Z</time>
      </trkpt>
      <trkpt lat="43.89095" lon="7.71169">
        <ele>561.565</ele>
        <time>2018-03-14T15:51:54Z</time>
      </trkpt>
      <trkpt lat="43.89095" lon="7.71165">
        <ele>561.236</ele>
        <time>2018-03-14T15:51:57Z</time>
      </trkpt>
      <trkpt lat="43.89094" lon="7.71161">
        <ele>559.169</ele>
        <time>2018-03-14T15:52:14Z</time>
      </trkpt>
      <trkpt lat="43.89092" lon="7.71158">
        <ele>558.563</ele>
        <time>2018-03-14T15:52:18Z</time>
      </trkpt>
      <trkpt lat="43.89092" lon="7.71153">
        <ele>558.13</ele>
        <time>2018-03-14T15:52:21Z</time>
      </trkpt>
      <trkpt lat="43.89089" lon="7.71151">
        <ele>558.453</ele>
        <time>2018-03-14T15:52:43Z</time>
      </trkpt>
      <trkpt lat="43.89089" lon="7.71155">
        <ele>558.974</ele>
        <time>2018-03-14T15:52:47Z</time>
      </trkpt>
      <trkpt lat="43.89088" lon="7.71151">
        <ele>558.638</ele>
        <time>2018-03-14T15:53:47Z</time>
      </trkpt>
      <trkpt lat="43.89085" lon="7.71148">
        <ele>557.724</ele>
        <time>2018-03-14T15:53:52Z</time>
      </trkpt>
      <trkpt lat="43.89084" lon="7.71143">
        <ele>557.205</ele>
        <time>2018-03-14T15:53:55Z</time>
      </trkpt>
      <trkpt lat="43.89082" lon="7.71141">
        <ele>554.744</ele>
        <time>2018-03-14T15:55:27Z</time>
      </trkpt>
      <trkpt lat="43.8908" lon="7.71138">
        <ele>554.87</ele>
        <time>2018-03-14T15:55:29Z</time>
      </trkpt>
      <trkpt lat="43.89078" lon="7.71135">
        <ele>554.9</ele>
        <time>2018-03-14T15:55:32Z</time>
      </trkpt>
      <trkpt lat="43.89079" lon="7.71139">
        <ele>553.689</ele>
        <time>2018-03-14T15:55:41Z</time>
      </trkpt>
      <trkpt lat="43.89081" lon="7.71137">
        <ele>552.634</ele>
        <time>2018-03-14T15:56:30Z</time>
      </trkpt>
      <trkpt lat="43.89084" lon="7.71133">
        <ele>552.7</ele>
        <time>2018-03-14T15:56:32Z</time>
      </trkpt>
      <trkpt lat="43.89086" lon="7.71131">
        <ele>552.725</ele>
        <time>2018-03-14T15:56:34Z</time>
      </trkpt>
      <trkpt lat="43.8909" lon="7.71131">
        <ele>551.918</ele>
        <time>2018-03-14T15:56:46Z</time>
      </trkpt>
      <trkpt lat="43.8909" lon="7.71128">
        <ele>551.145</ele>
        <time>2018-03-14T15:57:01Z</time>
      </trkpt>
      <trkpt lat="43.89093" lon="7.71127">
        <ele>550.608</ele>
        <time>2018-03-14T15:57:11Z</time>
      </trkpt>
      <trkpt lat="43.89096" lon="7.71126">
        <ele>550.609</ele>
        <time>2018-03-14T15:57:24Z</time>
      </trkpt>
      <trkpt lat="43.89098" lon="7.71123">
        <ele>550.686</ele>
        <time>2018-03-14T15:57:30Z</time>
      </trkpt>
      <trkpt lat="43.89096" lon="7.71125">
        <ele>551.099</ele>
        <time>2018-03-14T15:57:52Z</time>
      </trkpt>
      <trkpt lat="43.89097" lon="7.71129">
        <ele>550.922</ele>
        <time>2018-03-14T15:57:59Z</time>
      </trkpt>
      <trkpt lat="43.89095" lon="7.71133">
        <ele>549.853</ele>
        <time>2018-03-14T15:58:12Z</time>
      </trkpt>
      <trkpt lat="43.89095" lon="7.71129">
        <ele>549.943</ele>
        <time>2018-03-14T15:58:35Z</time>
      </trkpt>
      <trkpt lat="43.89098" lon="7.71129">
        <ele>547.628</ele>
        <time>2018-03-14T15:59:09Z</time>
      </trkpt>
      <trkpt lat="43.89097" lon="7.71124">
        <ele>547.796</ele>
        <time>2018-03-14T15:59:28Z</time>
      </trkpt>
      <trkpt lat="43.89095" lon="7.71122">
        <ele>547.092</ele>
        <time>2018-03-14T15:59:58Z</time>
      </trkpt>
      <trkpt lat="43.89095" lon="7.71118">
        <ele>547.356</ele>
        <time>2018-03-14T16:00:10Z</time>
      </trkpt>
      <trkpt lat="43.89098" lon="7.71117">
        <ele>547.336</ele>
        <time>2018-03-14T16:00:20Z</time>
      </trkpt>
      <trkpt lat="43.89095" lon="7.71113">
        <ele>547.162</ele>
        <time>2018-03-14T16:00:39Z</time>
      </trkpt>
      <trkpt lat="43.89091" lon="7.71111">
        <ele>546.972</ele>
        <time>2018-03-14T16:00:41Z</time>
      </trkpt>
      <trkpt lat="43.89088" lon="7.71108">
        <ele>546.708</ele>
        <time>2018-03-14T16:00:49Z</time>
      </trkpt>
      <trkpt lat="43.89085" lon="7.71107">
        <ele>546.333</ele>
        <time>2018-03-14T16:00:53Z</time>
      </trkpt>
      <trkpt lat="43.89083" lon="7.71105">
        <ele>545.454</ele>
        <time>2018-03-14T16:01:26Z</time>
      </trkpt>
      <trkpt lat="43.89081" lon="7.71103">
        <ele>545.632</ele>
        <time>2018-03-14T16:01:30Z</time>
      </trkpt>
      <trkpt lat="43.89081" lon="7.71099">
        <ele>545.538</ele>
        <time>2018-03-14T16:01:32Z</time>
      </trkpt>
      <trkpt lat="43.89082" lon="7.71102">
        <ele>544.635</ele>
        <time>2018-03-14T16:03:11Z</time>
      </trkpt>
      <trkpt lat="43.89079" lon="7.71104">
        <ele>545.04</ele>
        <time>2018-03-14T16:03:24Z</time>
      </trkpt>
      <trkpt lat="43.89081" lon="7.711">
        <ele>545.223</ele>
        <time>2018-03-14T16:03:53Z</time>
      </trkpt>
      <trkpt lat="43.89082" lon="7.71096">
        <ele>545.234</ele>
        <time>2018-03-14T16:04:08Z</time>
      </trkpt>
      <trkpt lat="43.8908" lon="7.71094">
        <ele>544.887</ele>
        <time>2018-03-14T16:04:10Z</time>
      </trkpt>
      <trkpt lat="43.89077" lon="7.71093">
        <ele>541.947</ele>
        <time>2018-03-14T16:05:03Z</time>
      </trkpt>
      <trkpt lat="43.8908" lon="7.71093">
        <ele>542.67</ele>
        <time>2018-03-14T16:05:17Z</time>
      </trkpt>
      <trkpt lat="43.89083" lon="7.71095">
        <ele>544.593</ele>
        <time>2018-03-14T16:05:40Z</time>
      </trkpt>
      <trkpt lat="43.89082" lon="7.71091">
        <ele>546.954</ele>
        <time>2018-03-14T16:08:43Z</time>
      </trkpt>
      <trkpt lat="43.8908" lon="7.71087">
        <ele>546.824</ele>
        <time>2018-03-14T16:08:45Z</time>
      </trkpt>
      <trkpt lat="43.8908" lon="7.71083">
        <ele>546.442</ele>
        <time>2018-03-14T16:08:48Z</time>
      </trkpt>
      <trkpt lat="43.89079" lon="7.7108">
        <ele>538.764</ele>
        <time>2018-03-14T16:09:57Z</time>
      </trkpt>
      <trkpt lat="43.89081" lon="7.71076">
        <ele>538.16</ele>
        <time>2018-03-14T16:10:01Z</time>
      </trkpt>
      <trkpt lat="43.89084" lon="7.71076">
        <ele>534.756</ele>
        <time>2018-03-14T16:10:24Z</time>
      </trkpt>
      <trkpt lat="43.89083" lon="7.71071">
        <ele>532.874</ele>
        <time>2018-03-14T16:10:30Z</time>
      </trkpt>
      <trkpt lat="43.89081" lon="7.71067">
        <ele>531.517</ele>
        <time>2018-03-14T16:10:33Z</time>
      </trkpt>
      <trkpt lat="43.89078" lon="7.71064">
        <ele>527.921</ele>
        <time>2018-03-14T16:10:43Z</time>
      </trkpt>
      <trkpt lat="43.89075" lon="7.71062">
        <ele>526.904</ele>
        <time>2018-03-14T16:10:46Z</time>
      </trkpt>
      <trkpt lat="43.89074" lon="7.71059">
        <ele>526.368</ele>
        <time>2018-03-14T16:10:49Z</time>
      </trkpt>
      <trkpt lat="43.89074" lon="7.71055">
        <ele>525.535</ele>
        <time>2018-03-14T16:10:57Z</time>
      </trkpt>
      <trkpt lat="43.89077" lon="7.71054">
        <ele>524.068</ele>
        <time>2018-03-14T16:11:16Z</time>
      </trkpt>
      <trkpt lat="43.89081" lon="7.71055">
        <ele>523.04</ele>
        <time>2018-03-14T16:11:24Z</time>
      </trkpt>
      <trkpt lat="43.89083" lon="7.71053">
        <ele>520.382</ele>
        <time>2018-03-14T16:11:44Z</time>
      </trkpt>
      <trkpt lat="43.89086" lon="7.71049">
        <ele>519.318</ele>
        <time>2018-03-14T16:11:48Z</time>
      </trkpt>
      <trkpt lat="43.89088" lon="7.7105">
        <ele>518.715</ele>
        <time>2018-03-14T16:11:52Z</time>
      </trkpt>
      <trkpt lat="43.89091" lon="7.71052">
        <ele>517.888</ele>
        <time>2018-03-14T16:12:04Z</time>
      </trkpt>
      <trkpt lat="43.89093" lon="7.71049">
        <ele>515.332</ele>
        <time>2018-03-14T16:12:24Z</time>
      </trkpt>
      <trkpt lat="43.89091" lon="7.71045">
        <ele>510.589</ele>
        <time>2018-03-14T16:13:10Z</time>
      </trkpt>
      <trkpt lat="43.89093" lon="7.71038">
        <ele>508.475</ele>
        <time>2018-03-14T16:13:29Z</time>
      </trkpt>
      <trkpt lat="43.89095" lon="7.71035">
        <ele>508.076</ele>
        <time>2018-03-14T16:13:41Z</time>
      </trkpt>
      <trkpt lat="43.89097" lon="7.71031">
        <ele>504.641</ele>
        <time>2018-03-14T16:14:50Z</time>
      </trkpt>
      <trkpt lat="43.89096" lon="7.71027">
        <ele>503.397</ele>
        <time>2018-03-14T16:14:56Z</time>
      </trkpt>
      <trkpt lat="43.89094" lon="7.71022">
        <ele>505.183</ele>
        <time>2018-03-14T16:15:29Z</time>
      </trkpt>
      <trkpt lat="43.89092" lon="7.71019">
        <ele>506.314</ele>
        <time>2018-03-14T16:15:43Z</time>
      </trkpt>
      <trkpt lat="43.89091" lon="7.71015">
        <ele>506.63</ele>
        <time>2018-03-14T16:15:45Z</time>
      </trkpt>
      <trkpt lat="43.89091" lon="7.7101">
        <ele>506.809</ele>
        <time>2018-03-14T16:15:46Z</time>
      </trkpt>
      <trkpt lat="43.8909" lon="7.71006">
        <ele>507.475</ele>
        <time>2018-03-14T16:15:51Z</time>
      </trkpt>
      <trkpt lat="43.89087" lon="7.71001">
        <ele>507.619</ele>
        <time>2018-03-14T16:15:53Z</time>
      </trkpt>
      <trkpt lat="43.89086" lon="7.70998">
        <ele>506.226</ele>
        <time>2018-03-14T16:16:15Z</time>
      </trkpt>
      <trkpt lat="43.89084" lon="7.70995">
        <ele>506.378</ele>
        <time>2018-03-14T16:16:24Z</time>
      </trkpt>
      <trkpt lat="43.89082" lon="7.70989">
        <ele>506.695</ele>
        <time>2018-03-14T16:16:26Z</time>
      </trkpt>
      <trkpt lat="43.8908" lon="7.70986">
        <ele>507.257</ele>
        <time>2018-03-14T16:16:28Z</time>
      </trkpt>
      <trkpt lat="43.89079" lon="7.70982">
        <ele>507.826</ele>
        <time>2018-03-14T16:16:30Z</time>
      </trkpt>
      <trkpt lat="43.89076" lon="7.70979">
        <ele>508.318</ele>
        <time>2018-03-14T16:16:32Z</time>
      </trkpt>
      <trkpt lat="43.89074" lon="7.70975">
        <ele>509.118</ele>
        <time>2018-03-14T16:16:35Z</time>
      </trkpt>
      <trkpt lat="43.89072" lon="7.70971">
        <ele>509.277</ele>
        <time>2018-03-14T16:16:38Z</time>
      </trkpt>
      <trkpt lat="43.89069" lon="7.70967">
        <ele>508.579</ele>
        <time>2018-03-14T16:16:42Z</time>
      </trkpt>
      <trkpt lat="43.89067" lon="7.70964">
        <ele>508.033</ele>
        <time>2018-03-14T16:16:44Z</time>
      </trkpt>
      <trkpt lat="43.89065" lon="7.70961">
        <ele>507.606</ele>
        <time>2018-03-14T16:16:46Z</time>
      </trkpt>
      <trkpt lat="43.89063" lon="7.70957">
        <ele>506.991</ele>
        <time>2018-03-14T16:16:50Z</time>
      </trkpt>
      <trkpt lat="43.8906" lon="7.70956">
        <ele>506.966</ele>
        <time>2018-03-14T16:16:53Z</time>
      </trkpt>
      <trkpt lat="43.89058" lon="7.70953">
        <ele>507.139</ele>
        <time>2018-03-14T16:16:56Z</time>
      </trkpt>
      <trkpt lat="43.89056" lon="7.7095">
        <ele>507.122</ele>
        <time>2018-03-14T16:16:59Z</time>
      </trkpt>
      <trkpt lat="43.89054" lon="7.70947">
        <ele>507.028</ele>
        <time>2018-03-14T16:17:01Z</time>
      </trkpt>
      <trkpt lat="43.89052" lon="7.70944">
        <ele>507.2</ele>
        <time>2018-03-14T16:17:03Z</time>
      </trkpt>
      <trkpt lat="43.8905" lon="7.70941">
        <ele>507.285</ele>
        <time>2018-03-14T16:17:06Z</time>
      </trkpt>
      <trkpt lat="43.89048" lon="7.70938">
        <ele>507.14</ele>
        <time>2018-03-14T16:17:08Z</time>
      </trkpt>
      <trkpt lat="43.89046" lon="7.70934">
        <ele>507.145</ele>
        <time>2018-03-14T16:17:12Z</time>
      </trkpt>
      <trkpt lat="43.89045" lon="7.70931">
        <ele>507.013</ele>
        <time>2018-03-14T16:17:14Z</time>
      </trkpt>
      <trkpt lat="43.89042" lon="7.70929">
        <ele>506.531</ele>
        <time>2018-03-14T16:17:18Z</time>
      </trkpt>
      <trkpt lat="43.89039" lon="7.70925">
        <ele>506.073</ele>
        <time>2018-03-14T16:17:21Z</time>
      </trkpt>
      <trkpt lat="43.89036" lon="7.70921">
        <ele>505.713</ele>
        <time>2018-03-14T16:17:23Z</time>
      </trkpt>
      <trkpt lat="43.89033" lon="7.70918">
        <ele>505.212</ele>
        <time>2018-03-14T16:17:26Z</time>
      </trkpt>
      <trkpt lat="43.89031" lon="7.70916">
        <ele>504.697</ele>
        <time>2018-03-14T16:17:28Z</time>
      </trkpt>
      <trkpt lat="43.89027" lon="7.7091">
        <ele>503.701</ele>
        <time>2018-03-14T16:17:32Z</time>
      </trkpt>
      <trkpt lat="43.89025" lon="7.70904">
        <ele>503.212</ele>
        <time>2018-03-14T16:17:34Z</time>
      </trkpt>
      <trkpt lat="43.89023" lon="7.70901">
        <ele>502.45</ele>
        <time>2018-03-14T16:17:38Z</time>
      </trkpt>
      <trkpt lat="43.89023" lon="7.70895">
        <ele>501.919</ele>
        <time>2018-03-14T16:17:40Z</time>
      </trkpt>
      <trkpt lat="43.89025" lon="7.70893">
        <ele>500.417</ele>
        <time>2018-03-14T16:17:52Z</time>
      </trkpt>
      <trkpt lat="43.89026" lon="7.70889">
        <ele>500.676</ele>
        <time>2018-03-14T16:18:18Z</time>
      </trkpt>
      <trkpt lat="43.89027" lon="7.70885">
        <ele>499.866</ele>
        <time>2018-03-14T16:18:21Z</time>
      </trkpt>
      <trkpt lat="43.89028" lon="7.7088">
        <ele>497.358</ele>
        <time>2018-03-14T16:18:47Z</time>
      </trkpt>
      <trkpt lat="43.8903" lon="7.70876">
        <ele>496.432</ele>
        <time>2018-03-14T16:18:52Z</time>
      </trkpt>
      <trkpt lat="43.89032" lon="7.70872">
        <ele>492.198</ele>
        <time>2018-03-14T16:19:46Z</time>
      </trkpt>
      <trkpt lat="43.89033" lon="7.70868">
        <ele>487.994</ele>
        <time>2018-03-14T16:20:06Z</time>
      </trkpt>
      <trkpt lat="43.89033" lon="7.70863">
        <ele>487.609</ele>
        <time>2018-03-14T16:20:08Z</time>
      </trkpt>
      <trkpt lat="43.89034" lon="7.70859">
        <ele>487.643</ele>
        <time>2018-03-14T16:20:10Z</time>
      </trkpt>
      <trkpt lat="43.89035" lon="7.70855">
        <ele>487.551</ele>
        <time>2018-03-14T16:20:12Z</time>
      </trkpt>
      <trkpt lat="43.89036" lon="7.70851">
        <ele>487.367</ele>
        <time>2018-03-14T16:20:14Z</time>
      </trkpt>
      <trkpt lat="43.89037" lon="7.70847">
        <ele>486.958</ele>
        <time>2018-03-14T16:20:16Z</time>
      </trkpt>
      <trkpt lat="43.89037" lon="7.7084">
        <ele>486.701</ele>
        <time>2018-03-14T16:20:18Z</time>
      </trkpt>
      <trkpt lat="43.89036" lon="7.70835">
        <ele>486.459</ele>
        <time>2018-03-14T16:20:20Z</time>
      </trkpt>
      <trkpt lat="43.89036" lon="7.70831">
        <ele>483.058</ele>
        <time>2018-03-14T16:20:38Z</time>
      </trkpt>
      <trkpt lat="43.89032" lon="7.70828">
        <ele>481.854</ele>
        <time>2018-03-14T16:20:44Z</time>
      </trkpt>
      <trkpt lat="43.89032" lon="7.70825">
        <ele>483.894</ele>
        <time>2018-03-14T16:21:27Z</time>
      </trkpt>
      <trkpt lat="43.89029" lon="7.70821">
        <ele>484.721</ele>
        <time>2018-03-14T16:21:35Z</time>
      </trkpt>
      <trkpt lat="43.89027" lon="7.70819">
        <ele>481.968</ele>
        <time>2018-03-14T16:21:59Z</time>
      </trkpt>
      <trkpt lat="43.89024" lon="7.70816">
        <ele>479.429</ele>
        <time>2018-03-14T16:22:38Z</time>
      </trkpt>
      <trkpt lat="43.89023" lon="7.70812">
        <ele>478.962</ele>
        <time>2018-03-14T16:22:41Z</time>
      </trkpt>
      <trkpt lat="43.8902" lon="7.70811">
        <ele>478.447</ele>
        <time>2018-03-14T16:22:50Z</time>
      </trkpt>
      <trkpt lat="43.8902" lon="7.70807">
        <ele>478.388</ele>
        <time>2018-03-14T16:23:05Z</time>
      </trkpt>
      <trkpt lat="43.89019" lon="7.70802">
        <ele>477.979</ele>
        <time>2018-03-14T16:23:15Z</time>
      </trkpt>
      <trkpt lat="43.89018" lon="7.70798">
        <ele>477.006</ele>
        <time>2018-03-14T16:23:18Z</time>
      </trkpt>
      <trkpt lat="43.89019" lon="7.70795">
        <ele>475.576</ele>
        <time>2018-03-14T16:24:36Z</time>
      </trkpt>
      <trkpt lat="43.89018" lon="7.70791">
        <ele>473.108</ele>
        <time>2018-03-14T16:25:14Z</time>
      </trkpt>
      <trkpt lat="43.89014" lon="7.70787">
        <ele>472.805</ele>
        <time>2018-03-14T16:25:16Z</time>
      </trkpt>
      <trkpt lat="43.89015" lon="7.70783">
        <ele>471.899</ele>
        <time>2018-03-14T16:25:19Z</time>
      </trkpt>
      <trkpt lat="43.8902" lon="7.70778">
        <ele>471.063</ele>
        <time>2018-03-14T16:25:24Z</time>
      </trkpt>
      <trkpt lat="43.89023" lon="7.70777">
        <ele>470.725</ele>
        <time>2018-03-14T16:25:26Z</time>
      </trkpt>
      <trkpt lat="43.89025" lon="7.70773">
        <ele>470.241</ele>
        <time>2018-03-14T16:25:43Z</time>
      </trkpt>
      <trkpt lat="43.89028" lon="7.70771">
        <ele>469.557</ele>
        <time>2018-03-14T16:25:47Z</time>
      </trkpt>
      <trkpt lat="43.89031" lon="7.70768">
        <ele>469.003</ele>
        <time>2018-03-14T16:25:49Z</time>
      </trkpt>
      <trkpt lat="43.89033" lon="7.70764">
        <ele>468.755</ele>
        <time>2018-03-14T16:25:51Z</time>
      </trkpt>
      <trkpt lat="43.89036" lon="7.70761">
        <ele>468.416</ele>
        <time>2018-03-14T16:25:53Z</time>
      </trkpt>
      <trkpt lat="43.89039" lon="7.70757">
        <ele>467.972</ele>
        <time>2018-03-14T16:25:55Z</time>
      </trkpt>
      <trkpt lat="43.8904" lon="7.70751">
        <ele>467.397</ele>
        <time>2018-03-14T16:25:58Z</time>
      </trkpt>
      <trkpt lat="43.89037" lon="7.70749">
        <ele>467.104</ele>
        <time>2018-03-14T16:26:00Z</time>
      </trkpt>
      <trkpt lat="43.89033" lon="7.70747">
        <ele>466.72</ele>
        <time>2018-03-14T16:26:09Z</time>
      </trkpt>
      <trkpt lat="43.89027" lon="7.70746">
        <ele>466.607</ele>
        <time>2018-03-14T16:26:12Z</time>
      </trkpt>
      <trkpt lat="43.89023" lon="7.70741">
        <ele>466.574</ele>
        <time>2018-03-14T16:26:14Z</time>
      </trkpt>
      <trkpt lat="43.89019" lon="7.70732">
        <ele>466.538</ele>
        <time>2018-03-14T16:26:15Z</time>
      </trkpt>
      <trkpt lat="43.89017" lon="7.7072">
        <ele>466.548</ele>
        <time>2018-03-14T16:26:17Z</time>
      </trkpt>
      <trkpt lat="43.89014" lon="7.70714">
        <ele>466.541</ele>
        <time>2018-03-14T16:26:19Z</time>
      </trkpt>
      <trkpt lat="43.89013" lon="7.70709">
        <ele>466.558</ele>
        <time>2018-03-14T16:26:23Z</time>
      </trkpt>
      <trkpt lat="43.89011" lon="7.70706">
        <ele>466.483</ele>
        <time>2018-03-14T16:26:26Z</time>
      </trkpt>
      <trkpt lat="43.89014" lon="7.70704">
        <ele>466.071</ele>
        <time>2018-03-14T16:26:31Z</time>
      </trkpt>
      <trkpt lat="43.89016" lon="7.70701">
        <ele>465.961</ele>
        <time>2018-03-14T16:26:33Z</time>
      </trkpt>
      <trkpt lat="43.89016" lon="7.70696">
        <ele>464.992</ele>
        <time>2018-03-14T16:26:38Z</time>
      </trkpt>
      <trkpt lat="43.89015" lon="7.70691">
        <ele>464.067</ele>
        <time>2018-03-14T16:26:51Z</time>
      </trkpt>
      <trkpt lat="43.89013" lon="7.70688">
        <ele>461.682</ele>
        <time>2018-03-14T16:27:09Z</time>
      </trkpt>
      <trkpt lat="43.89016" lon="7.70687">
        <ele>461.152</ele>
        <time>2018-03-14T16:27:17Z</time>
      </trkpt>
      <trkpt lat="43.89019" lon="7.70684">
        <ele>461.125</ele>
        <time>2018-03-14T16:27:20Z</time>
      </trkpt>
      <trkpt lat="43.89021" lon="7.70682">
        <ele>461.015</ele>
        <time>2018-03-14T16:27:25Z</time>
      </trkpt>
      <trkpt lat="43.89019" lon="7.70679">
        <ele>460.825</ele>
        <time>2018-03-14T16:27:30Z</time>
      </trkpt>
      <trkpt lat="43.89013" lon="7.70679">
        <ele>459.887</ele>
        <time>2018-03-14T16:27:35Z</time>
      </trkpt>
      <trkpt lat="43.89011" lon="7.70677">
        <ele>459.277</ele>
        <time>2018-03-14T16:27:38Z</time>
      </trkpt>
      <trkpt lat="43.89007" lon="7.70674">
        <ele>457.902</ele>
        <time>2018-03-14T16:27:43Z</time>
      </trkpt>
      <trkpt lat="43.89005" lon="7.70671">
        <ele>457.773</ele>
        <time>2018-03-14T16:27:47Z</time>
      </trkpt>
      <trkpt lat="43.89002" lon="7.70668">
        <ele>458.27</ele>
        <time>2018-03-14T16:27:57Z</time>
      </trkpt>
      <trkpt lat="43.88999" lon="7.70667">
        <ele>458.8</ele>
        <time>2018-03-14T16:27:59Z</time>
      </trkpt>
      <trkpt lat="43.88997" lon="7.7066">
        <ele>459.066</ele>
        <time>2018-03-14T16:28:15Z</time>
      </trkpt>
      <trkpt lat="43.88996" lon="7.70656">
        <ele>459.05</ele>
        <time>2018-03-14T16:28:17Z</time>
      </trkpt>
      <trkpt lat="43.88998" lon="7.70643">
        <ele>458.979</ele>
        <time>2018-03-14T16:28:19Z</time>
      </trkpt>
      <trkpt lat="43.88995" lon="7.70641">
        <ele>459.395</ele>
        <time>2018-03-14T16:29:01Z</time>
      </trkpt>
      <trkpt lat="43.88992" lon="7.70639">
        <ele>459.4</ele>
        <time>2018-03-14T16:29:56Z</time>
      </trkpt>
      <trkpt lat="43.88988" lon="7.70636">
        <ele>459.303</ele>
        <time>2018-03-14T16:29:57Z</time>
      </trkpt>
      <trkpt lat="43.88985" lon="7.70635">
        <ele>459.101</ele>
        <time>2018-03-14T16:29:59Z</time>
      </trkpt>
      <trkpt lat="43.88982" lon="7.70632">
        <ele>459.165</ele>
        <time>2018-03-14T16:30:02Z</time>
      </trkpt>
      <trkpt lat="43.88981" lon="7.70628">
        <ele>459.217</ele>
        <time>2018-03-14T16:30:08Z</time>
      </trkpt>
      <trkpt lat="43.8898" lon="7.70624">
        <ele>459.077</ele>
        <time>2018-03-14T16:30:11Z</time>
      </trkpt>
      <trkpt lat="43.88981" lon="7.70621">
        <ele>454.047</ele>
        <time>2018-03-14T16:31:17Z</time>
      </trkpt>
      <trkpt lat="43.88984" lon="7.70619">
        <ele>454.402</ele>
        <time>2018-03-14T16:31:29Z</time>
      </trkpt>
      <trkpt lat="43.88983" lon="7.70623">
        <ele>454.783</ele>
        <time>2018-03-14T16:31:58Z</time>
      </trkpt>
      <trkpt lat="43.88982" lon="7.70626">
        <ele>454.402</ele>
        <time>2018-03-14T16:32:10Z</time>
      </trkpt>
      <trkpt lat="43.88983" lon="7.70622">
        <ele>455.421</ele>
        <time>2018-03-14T16:32:35Z</time>
      </trkpt>
      <trkpt lat="43.88986" lon="7.70621">
        <ele>455.596</ele>
        <time>2018-03-14T16:32:38Z</time>
      </trkpt>
      <trkpt lat="43.88988" lon="7.7062">
        <ele>455.996</ele>
        <time>2018-03-14T16:32:45Z</time>
      </trkpt>
      <trkpt lat="43.88991" lon="7.70622">
        <ele>457.278</ele>
        <time>2018-03-14T16:32:53Z</time>
      </trkpt>
      <trkpt lat="43.88989" lon="7.70624">
        <ele>458.289</ele>
        <time>2018-03-14T16:33:42Z</time>
      </trkpt>
      <trkpt lat="43.88986" lon="7.70626">
        <ele>458.247</ele>
        <time>2018-03-14T16:33:46Z</time>
      </trkpt>
      <trkpt lat="43.88985" lon="7.70629">
        <ele>458.218</ele>
        <time>2018-03-14T16:33:49Z</time>
      </trkpt>
      <trkpt lat="43.88984" lon="7.70633">
        <ele>458.175</ele>
        <time>2018-03-14T16:33:54Z</time>
      </trkpt>
      <trkpt lat="43.88981" lon="7.70633">
        <ele>458.265</ele>
        <time>2018-03-14T16:34:08Z</time>
      </trkpt>
      <trkpt lat="43.88978" lon="7.70631">
        <ele>458.362</ele>
        <time>2018-03-14T16:34:11Z</time>
      </trkpt>
      <trkpt lat="43.88976" lon="7.70627">
        <ele>458.523</ele>
        <time>2018-03-14T16:34:15Z</time>
      </trkpt>
      <trkpt lat="43.88973" lon="7.70627">
        <ele>458.911</ele>
        <time>2018-03-14T16:34:19Z</time>
      </trkpt>
      <trkpt lat="43.8897" lon="7.70627">
        <ele>458.837</ele>
        <time>2018-03-14T16:34:24Z</time>
      </trkpt>
      <trkpt lat="43.88967" lon="7.70626">
        <ele>458.793</ele>
        <time>2018-03-14T16:34:27Z</time>
      </trkpt>
      <trkpt lat="43.8897" lon="7.70627">
        <ele>458.541</ele>
        <time>2018-03-14T16:34:39Z</time>
      </trkpt>
      <trkpt lat="43.88973" lon="7.70627">
        <ele>458.099</ele>
        <time>2018-03-14T16:34:45Z</time>
      </trkpt>
      <trkpt lat="43.88976" lon="7.70628">
        <ele>457.786</ele>
        <time>2018-03-14T16:34:49Z</time>
      </trkpt>
      <trkpt lat="43.88979" lon="7.70627">
        <ele>457.278</ele>
        <time>2018-03-14T16:34:55Z</time>
      </trkpt>
      <trkpt lat="43.8898" lon="7.70623">
        <ele>456.867</ele>
        <time>2018-03-14T16:35:04Z</time>
      </trkpt>
      <trkpt lat="43.88979" lon="7.7062">
        <ele>456.768</ele>
        <time>2018-03-14T16:35:10Z</time>
      </trkpt>
      <trkpt lat="43.88977" lon="7.70616">
        <ele>456.61</ele>
        <time>2018-03-14T16:35:13Z</time>
      </trkpt>
      <trkpt lat="43.88979" lon="7.70613">
        <ele>455.372</ele>
        <time>2018-03-14T16:35:25Z</time>
      </trkpt>
      <trkpt lat="43.88981" lon="7.70615">
        <ele>456.107</ele>
        <time>2018-03-14T16:35:34Z</time>
      </trkpt>
      <trkpt lat="43.88982" lon="7.70619">
        <ele>456.23</ele>
        <time>2018-03-14T16:35:39Z</time>
      </trkpt>
      <trkpt lat="43.88982" lon="7.70623">
        <ele>456.584</ele>
        <time>2018-03-14T16:35:52Z</time>
      </trkpt>
      <trkpt lat="43.88978" lon="7.70624">
        <ele>456.595</ele>
        <time>2018-03-14T16:36:00Z</time>
      </trkpt>
      <trkpt lat="43.88975" lon="7.70624">
        <ele>456.386</ele>
        <time>2018-03-14T16:36:04Z</time>
      </trkpt>
      <trkpt lat="43.88979" lon="7.70628">
        <ele>458.989</ele>
        <time>2018-03-14T16:36:38Z</time>
      </trkpt>
      <trkpt lat="43.88977" lon="7.70625">
        <ele>455.642</ele>
        <time>2018-03-14T16:36:50Z</time>
      </trkpt>
      <trkpt lat="43.88976" lon="7.7062">
        <ele>454.004</ele>
        <time>2018-03-14T16:36:54Z</time>
      </trkpt>
      <trkpt lat="43.88976" lon="7.70616">
        <ele>452.486</ele>
        <time>2018-03-14T16:36:58Z</time>
      </trkpt>
      <trkpt lat="43.88978" lon="7.70613">
        <ele>452.397</ele>
        <time>2018-03-14T16:37:39Z</time>
      </trkpt>
      <trkpt lat="43.88976" lon="7.7061">
        <ele>452.642</ele>
        <time>2018-03-14T16:39:17Z</time>
      </trkpt>
      <trkpt lat="43.88973" lon="7.70609">
        <ele>452.565</ele>
        <time>2018-03-14T16:39:23Z</time>
      </trkpt>
      <trkpt lat="43.8897" lon="7.7061">
        <ele>451.876</ele>
        <time>2018-03-14T16:39:39Z</time>
      </trkpt>
      <trkpt lat="43.88967" lon="7.70609">
        <ele>451.78</ele>
        <time>2018-03-14T16:39:42Z</time>
      </trkpt>
      <trkpt lat="43.88963" lon="7.7061">
        <ele>451.284</ele>
        <time>2018-03-14T16:39:45Z</time>
      </trkpt>
      <trkpt lat="43.8896" lon="7.70613">
        <ele>450.273</ele>
        <time>2018-03-14T16:39:49Z</time>
      </trkpt>
      <trkpt lat="43.88955" lon="7.70613">
        <ele>449.748</ele>
        <time>2018-03-14T16:39:52Z</time>
      </trkpt>
      <trkpt lat="43.88952" lon="7.70614">
        <ele>449.445</ele>
        <time>2018-03-14T16:39:54Z</time>
      </trkpt>
      <trkpt lat="43.8895" lon="7.70615">
        <ele>448.973</ele>
        <time>2018-03-14T16:39:57Z</time>
      </trkpt>
      <trkpt lat="43.88948" lon="7.70613">
        <ele>448.442</ele>
        <time>2018-03-14T16:40:00Z</time>
      </trkpt>
      <trkpt lat="43.88946" lon="7.70609">
        <ele>447.756</ele>
        <time>2018-03-14T16:40:03Z</time>
      </trkpt>
      <trkpt lat="43.88943" lon="7.70605">
        <ele>446.708</ele>
        <time>2018-03-14T16:40:07Z</time>
      </trkpt>
      <trkpt lat="43.88941" lon="7.70602">
        <ele>446.247</ele>
        <time>2018-03-14T16:40:09Z</time>
      </trkpt>
      <trkpt lat="43.88938" lon="7.70599">
        <ele>446.141</ele>
        <time>2018-03-14T16:40:15Z</time>
      </trkpt>
      <trkpt lat="43.88938" lon="7.70594">
        <ele>446.949</ele>
        <time>2018-03-14T16:40:24Z</time>
      </trkpt>
      <trkpt lat="43.88936" lon="7.7059">
        <ele>447.005</ele>
        <time>2018-03-14T16:40:26Z</time>
      </trkpt>
      <trkpt lat="43.88935" lon="7.70586">
        <ele>446.944</ele>
        <time>2018-03-14T16:40:28Z</time>
      </trkpt>
      <trkpt lat="43.88934" lon="7.7058">
        <ele>446.452</ele>
        <time>2018-03-14T16:40:34Z</time>
      </trkpt>
      <trkpt lat="43.88934" lon="7.70575">
        <ele>446.073</ele>
        <time>2018-03-14T16:40:38Z</time>
      </trkpt>
      <trkpt lat="43.88934" lon="7.70571">
        <ele>445.966</ele>
        <time>2018-03-14T16:40:41Z</time>
      </trkpt>
      <trkpt lat="43.88934" lon="7.70566">
        <ele>445.936</ele>
        <time>2018-03-14T16:40:43Z</time>
      </trkpt>
      <trkpt lat="43.88933" lon="7.7056">
        <ele>446.871</ele>
        <time>2018-03-14T16:40:58Z</time>
      </trkpt>
      <trkpt lat="43.88937" lon="7.70551">
        <ele>448.49</ele>
        <time>2018-03-14T16:41:19Z</time>
      </trkpt>
      <trkpt lat="43.88939" lon="7.70548">
        <ele>448.981</ele>
        <time>2018-03-14T16:41:25Z</time>
      </trkpt>
      <trkpt lat="43.88937" lon="7.70545">
        <ele>448.097</ele>
        <time>2018-03-14T16:41:40Z</time>
      </trkpt>
      <trkpt lat="43.88937" lon="7.7054">
        <ele>447.665</ele>
        <time>2018-03-14T16:41:44Z</time>
      </trkpt>
      <trkpt lat="43.88938" lon="7.70537">
        <ele>447.566</ele>
        <time>2018-03-14T16:42:11Z</time>
      </trkpt>
      <trkpt lat="43.88935" lon="7.70537">
        <ele>446.436</ele>
        <time>2018-03-14T16:42:21Z</time>
      </trkpt>
      <trkpt lat="43.88933" lon="7.70534">
        <ele>446.021</ele>
        <time>2018-03-14T16:42:24Z</time>
      </trkpt>
      <trkpt lat="43.88929" lon="7.70531">
        <ele>445.866</ele>
        <time>2018-03-14T16:42:28Z</time>
      </trkpt>
      <trkpt lat="43.88926" lon="7.70529">
        <ele>445.585</ele>
        <time>2018-03-14T16:42:32Z</time>
      </trkpt>
      <trkpt lat="43.88924" lon="7.70525">
        <ele>445.307</ele>
        <time>2018-03-14T16:42:34Z</time>
      </trkpt>
      <trkpt lat="43.88922" lon="7.70523">
        <ele>445.031</ele>
        <time>2018-03-14T16:42:38Z</time>
      </trkpt>
      <trkpt lat="43.88919" lon="7.70521">
        <ele>445.164</ele>
        <time>2018-03-14T16:42:41Z</time>
      </trkpt>
      <trkpt lat="43.88917" lon="7.70517">
        <ele>445.196</ele>
        <time>2018-03-14T16:42:43Z</time>
      </trkpt>
      <trkpt lat="43.88914" lon="7.70515">
        <ele>445.108</ele>
        <time>2018-03-14T16:42:46Z</time>
      </trkpt>
      <trkpt lat="43.88912" lon="7.70511">
        <ele>444.986</ele>
        <time>2018-03-14T16:42:48Z</time>
      </trkpt>
      <trkpt lat="43.88909" lon="7.70508">
        <ele>444.767</ele>
        <time>2018-03-14T16:42:56Z</time>
      </trkpt>
      <trkpt lat="43.88906" lon="7.70504">
        <ele>444.555</ele>
        <time>2018-03-14T16:42:59Z</time>
      </trkpt>
      <trkpt lat="43.88903" lon="7.70499">
        <ele>444.356</ele>
        <time>2018-03-14T16:43:01Z</time>
      </trkpt>
      <trkpt lat="43.88899" lon="7.70496">
        <ele>444.301</ele>
        <time>2018-03-14T16:43:04Z</time>
      </trkpt>
      <trkpt lat="43.88896" lon="7.70492">
        <ele>444.341</ele>
        <time>2018-03-14T16:43:06Z</time>
      </trkpt>
      <trkpt lat="43.88893" lon="7.70485">
        <ele>444.495</ele>
        <time>2018-03-14T16:43:08Z</time>
      </trkpt>
      <trkpt lat="43.88891" lon="7.70482">
        <ele>444.551</ele>
        <time>2018-03-14T16:43:10Z</time>
      </trkpt>
      <trkpt lat="43.8889" lon="7.70479">
        <ele>444.337</ele>
        <time>2018-03-14T16:43:13Z</time>
      </trkpt>
      <trkpt lat="43.88888" lon="7.70475">
        <ele>444.191</ele>
        <time>2018-03-14T16:43:15Z</time>
      </trkpt>
      <trkpt lat="43.88884" lon="7.70472">
        <ele>444.041</ele>
        <time>2018-03-14T16:43:17Z</time>
      </trkpt>
      <trkpt lat="43.88882" lon="7.70467">
        <ele>443.692</ele>
        <time>2018-03-14T16:43:20Z</time>
      </trkpt>
      <trkpt lat="43.88879" lon="7.70461">
        <ele>442.947</ele>
        <time>2018-03-14T16:43:23Z</time>
      </trkpt>
      <trkpt lat="43.88876" lon="7.70457">
        <ele>442.286</ele>
        <time>2018-03-14T16:43:29Z</time>
      </trkpt>
      <trkpt lat="43.88873" lon="7.70457">
        <ele>441.622</ele>
        <time>2018-03-14T16:43:32Z</time>
      </trkpt>
      <trkpt lat="43.8887" lon="7.70453">
        <ele>441.059</ele>
        <time>2018-03-14T16:43:34Z</time>
      </trkpt>
      <trkpt lat="43.88869" lon="7.7045">
        <ele>440.707</ele>
        <time>2018-03-14T16:43:35Z</time>
      </trkpt>
      <trkpt lat="43.88867" lon="7.70447">
        <ele>440.432</ele>
        <time>2018-03-14T16:43:36Z</time>
      </trkpt>
      <trkpt lat="43.88864" lon="7.70443">
        <ele>439.695</ele>
        <time>2018-03-14T16:43:39Z</time>
      </trkpt>
      <trkpt lat="43.88861" lon="7.7044">
        <ele>439.51</ele>
        <time>2018-03-14T16:43:41Z</time>
      </trkpt>
      <trkpt lat="43.88859" lon="7.70437">
        <ele>439.308</ele>
        <time>2018-03-14T16:43:43Z</time>
      </trkpt>
      <trkpt lat="43.88856" lon="7.70434">
        <ele>439.209</ele>
        <time>2018-03-14T16:43:45Z</time>
      </trkpt>
      <trkpt lat="43.88852" lon="7.70433">
        <ele>438.957</ele>
        <time>2018-03-14T16:43:49Z</time>
      </trkpt>
      <trkpt lat="43.8885" lon="7.7043">
        <ele>438.668</ele>
        <time>2018-03-14T16:43:51Z</time>
      </trkpt>
      <trkpt lat="43.88847" lon="7.70426">
        <ele>438.127</ele>
        <time>2018-03-14T16:43:56Z</time>
      </trkpt>
      <trkpt lat="43.88845" lon="7.70423">
        <ele>437.48</ele>
        <time>2018-03-14T16:43:59Z</time>
      </trkpt>
      <trkpt lat="43.88844" lon="7.70416">
        <ele>437.214</ele>
        <time>2018-03-14T16:44:01Z</time>
      </trkpt>
      <trkpt lat="43.88841" lon="7.70412">
        <ele>437.217</ele>
        <time>2018-03-14T16:44:03Z</time>
      </trkpt>
      <trkpt lat="43.88839" lon="7.70409">
        <ele>437.319</ele>
        <time>2018-03-14T16:44:04Z</time>
      </trkpt>
      <trkpt lat="43.88835" lon="7.70406">
        <ele>437.473</ele>
        <time>2018-03-14T16:44:06Z</time>
      </trkpt>
      <trkpt lat="43.88832" lon="7.70405">
        <ele>437.749</ele>
        <time>2018-03-14T16:44:13Z</time>
      </trkpt>
      <trkpt lat="43.88828" lon="7.70403">
        <ele>437.973</ele>
        <time>2018-03-14T16:44:15Z</time>
      </trkpt>
      <trkpt lat="43.88826" lon="7.70401">
        <ele>438.156</ele>
        <time>2018-03-14T16:44:18Z</time>
      </trkpt>
      <trkpt lat="43.88823" lon="7.70399">
        <ele>438.214</ele>
        <time>2018-03-14T16:44:20Z</time>
      </trkpt>
      <trkpt lat="43.8882" lon="7.70395">
        <ele>437.924</ele>
        <time>2018-03-14T16:44:22Z</time>
      </trkpt>
      <trkpt lat="43.88817" lon="7.70391">
        <ele>437.541</ele>
        <time>2018-03-14T16:44:24Z</time>
      </trkpt>
      <trkpt lat="43.88816" lon="7.70386">
        <ele>436.822</ele>
        <time>2018-03-14T16:44:29Z</time>
      </trkpt>
      <trkpt lat="43.88816" lon="7.7038">
        <ele>436.544</ele>
        <time>2018-03-14T16:44:31Z</time>
      </trkpt>
      <trkpt lat="43.88816" lon="7.70377">
        <ele>435.467</ele>
        <time>2018-03-14T16:44:48Z</time>
      </trkpt>
      <trkpt lat="43.88813" lon="7.70374">
        <ele>434.821</ele>
        <time>2018-03-14T16:44:50Z</time>
      </trkpt>
      <trkpt lat="43.8881" lon="7.7037">
        <ele>434.191</ele>
        <time>2018-03-14T16:44:52Z</time>
      </trkpt>
      <trkpt lat="43.88808" lon="7.70367">
        <ele>433.815</ele>
        <time>2018-03-14T16:44:54Z</time>
      </trkpt>
      <trkpt lat="43.88807" lon="7.70362">
        <ele>433.3</ele>
        <time>2018-03-14T16:44:56Z</time>
      </trkpt>
      <trkpt lat="43.88807" lon="7.70357">
        <ele>432.919</ele>
        <time>2018-03-14T16:44:58Z</time>
      </trkpt>
      <trkpt lat="43.88807" lon="7.70351">
        <ele>432.354</ele>
        <time>2018-03-14T16:45:00Z</time>
      </trkpt>
      <trkpt lat="43.88806" lon="7.70348">
        <ele>431.781</ele>
        <time>2018-03-14T16:45:02Z</time>
      </trkpt>
      <trkpt lat="43.88804" lon="7.70342">
        <ele>430.983</ele>
        <time>2018-03-14T16:45:05Z</time>
      </trkpt>
      <trkpt lat="43.88802" lon="7.70337">
        <ele>430.493</ele>
        <time>2018-03-14T16:45:07Z</time>
      </trkpt>
      <trkpt lat="43.88801" lon="7.70333">
        <ele>429.908</ele>
        <time>2018-03-14T16:45:09Z</time>
      </trkpt>
      <trkpt lat="43.888" lon="7.70327">
        <ele>429.271</ele>
        <time>2018-03-14T16:45:11Z</time>
      </trkpt>
      <trkpt lat="43.88797" lon="7.70323">
        <ele>428.066</ele>
        <time>2018-03-14T16:45:14Z</time>
      </trkpt>
      <trkpt lat="43.88794" lon="7.7032">
        <ele>426.868</ele>
        <time>2018-03-14T16:45:17Z</time>
      </trkpt>
      <trkpt lat="43.88792" lon="7.70317">
        <ele>425.874</ele>
        <time>2018-03-14T16:45:19Z</time>
      </trkpt>
      <trkpt lat="43.8879" lon="7.70315">
        <ele>425.125</ele>
        <time>2018-03-14T16:45:21Z</time>
      </trkpt>
      <trkpt lat="43.88788" lon="7.7031">
        <ele>424.242</ele>
        <time>2018-03-14T16:45:24Z</time>
      </trkpt>
      <trkpt lat="43.88786" lon="7.70305">
        <ele>423.866</ele>
        <time>2018-03-14T16:45:26Z</time>
      </trkpt>
      <trkpt lat="43.88784" lon="7.70299">
        <ele>423.54</ele>
        <time>2018-03-14T16:45:28Z</time>
      </trkpt>
      <trkpt lat="43.88783" lon="7.70295">
        <ele>423.437</ele>
        <time>2018-03-14T16:45:30Z</time>
      </trkpt>
      <trkpt lat="43.88782" lon="7.70291">
        <ele>423.244</ele>
        <time>2018-03-14T16:45:32Z</time>
      </trkpt>
      <trkpt lat="43.8878" lon="7.70287">
        <ele>422.828</ele>
        <time>2018-03-14T16:45:34Z</time>
      </trkpt>
      <trkpt lat="43.88778" lon="7.70283">
        <ele>422.372</ele>
        <time>2018-03-14T16:45:36Z</time>
      </trkpt>
      <trkpt lat="43.88777" lon="7.70279">
        <ele>421.885</ele>
        <time>2018-03-14T16:45:39Z</time>
      </trkpt>
      <trkpt lat="43.88776" lon="7.70275">
        <ele>421.793</ele>
        <time>2018-03-14T16:45:41Z</time>
      </trkpt>
      <trkpt lat="43.88773" lon="7.70272">
        <ele>421.627</ele>
        <time>2018-03-14T16:46:00Z</time>
      </trkpt>
      <trkpt lat="43.8877" lon="7.70272">
        <ele>420.989</ele>
        <time>2018-03-14T16:46:21Z</time>
      </trkpt>
      <trkpt lat="43.88768" lon="7.7027">
        <ele>420.764</ele>
        <time>2018-03-14T16:46:24Z</time>
      </trkpt>
      <trkpt lat="43.88765" lon="7.70267">
        <ele>420.477</ele>
        <time>2018-03-14T16:46:26Z</time>
      </trkpt>
      <trkpt lat="43.88763" lon="7.70264">
        <ele>420.466</ele>
        <time>2018-03-14T16:46:28Z</time>
      </trkpt>
      <trkpt lat="43.88762" lon="7.70259">
        <ele>420.266</ele>
        <time>2018-03-14T16:46:31Z</time>
      </trkpt>
      <trkpt lat="43.88761" lon="7.70255">
        <ele>419.95</ele>
        <time>2018-03-14T16:46:33Z</time>
      </trkpt>
      <trkpt lat="43.88763" lon="7.70252">
        <ele>414.08</ele>
        <time>2018-03-14T16:47:18Z</time>
      </trkpt>
      <trkpt lat="43.88766" lon="7.70249">
        <ele>413.224</ele>
        <time>2018-03-14T16:47:22Z</time>
      </trkpt>
      <trkpt lat="43.88768" lon="7.70244">
        <ele>412.75</ele>
        <time>2018-03-14T16:47:26Z</time>
      </trkpt>
      <trkpt lat="43.88769" lon="7.70239">
        <ele>412.599</ele>
        <time>2018-03-14T16:47:29Z</time>
      </trkpt>
      <trkpt lat="43.88768" lon="7.70234">
        <ele>412.674</ele>
        <time>2018-03-14T16:47:50Z</time>
      </trkpt>
      <trkpt lat="43.88768" lon="7.70228">
        <ele>412.465</ele>
        <time>2018-03-14T16:47:52Z</time>
      </trkpt>
      <trkpt lat="43.88767" lon="7.70222">
        <ele>412.242</ele>
        <time>2018-03-14T16:47:54Z</time>
      </trkpt>
      <trkpt lat="43.88769" lon="7.70219">
        <ele>410.587</ele>
        <time>2018-03-14T16:48:22Z</time>
      </trkpt>
      <trkpt lat="43.88771" lon="7.70216">
        <ele>409.275</ele>
        <time>2018-03-14T16:48:25Z</time>
      </trkpt>
      <trkpt lat="43.88774" lon="7.70214">
        <ele>406.491</ele>
        <time>2018-03-14T16:48:42Z</time>
      </trkpt>
      <trkpt lat="43.88775" lon="7.70211">
        <ele>406.302</ele>
        <time>2018-03-14T16:48:44Z</time>
      </trkpt>
      <trkpt lat="43.88777" lon="7.70206">
        <ele>406.093</ele>
        <time>2018-03-14T16:48:46Z</time>
      </trkpt>
      <trkpt lat="43.88779" lon="7.70201">
        <ele>405.581</ele>
        <time>2018-03-14T16:48:49Z</time>
      </trkpt>
      <trkpt lat="43.8878" lon="7.70196">
        <ele>405.248</ele>
        <time>2018-03-14T16:48:51Z</time>
      </trkpt>
      <trkpt lat="43.88781" lon="7.70192">
        <ele>404.962</ele>
        <time>2018-03-14T16:48:54Z</time>
      </trkpt>
      <trkpt lat="43.8878" lon="7.70189">
        <ele>404.185</ele>
        <time>2018-03-14T16:49:04Z</time>
      </trkpt>
      <trkpt lat="43.88782" lon="7.70185">
        <ele>403.387</ele>
        <time>2018-03-14T16:49:07Z</time>
      </trkpt>
      <trkpt lat="43.88784" lon="7.70181">
        <ele>402.674</ele>
        <time>2018-03-14T16:49:10Z</time>
      </trkpt>
      <trkpt lat="43.88785" lon="7.70176">
        <ele>402.106</ele>
        <time>2018-03-14T16:49:28Z</time>
      </trkpt>
      <trkpt lat="43.88786" lon="7.70173">
        <ele>401.925</ele>
        <time>2018-03-14T16:49:33Z</time>
      </trkpt>
      <trkpt lat="43.88786" lon="7.70168">
        <ele>401.785</ele>
        <time>2018-03-14T16:49:35Z</time>
      </trkpt>
      <trkpt lat="43.88786" lon="7.70163">
        <ele>401.495</ele>
        <time>2018-03-14T16:49:38Z</time>
      </trkpt>
      <trkpt lat="43.88786" lon="7.70158">
        <ele>401.052</ele>
        <time>2018-03-14T16:49:41Z</time>
      </trkpt>
      <trkpt lat="43.88785" lon="7.70154">
        <ele>400.35</ele>
        <time>2018-03-14T16:49:51Z</time>
      </trkpt>
      <trkpt lat="43.88784" lon="7.70149">
        <ele>399.555</ele>
        <time>2018-03-14T16:50:05Z</time>
      </trkpt>
      <trkpt lat="43.88781" lon="7.70147">
        <ele>399.101</ele>
        <time>2018-03-14T16:50:11Z</time>
      </trkpt>
      <trkpt lat="43.88777" lon="7.70145">
        <ele>399.284</ele>
        <time>2018-03-14T16:50:22Z</time>
      </trkpt>
      <trkpt lat="43.88775" lon="7.70143">
        <ele>399.299</ele>
        <time>2018-03-14T16:50:25Z</time>
      </trkpt>
      <trkpt lat="43.88771" lon="7.70141">
        <ele>399.533</ele>
        <time>2018-03-14T16:50:27Z</time>
      </trkpt>
      <trkpt lat="43.88768" lon="7.70139">
        <ele>400.651</ele>
        <time>2018-03-14T16:50:31Z</time>
      </trkpt>
      <trkpt lat="43.88765" lon="7.70135">
        <ele>400.936</ele>
        <time>2018-03-14T16:50:33Z</time>
      </trkpt>
      <trkpt lat="43.88762" lon="7.70131">
        <ele>401.02</ele>
        <time>2018-03-14T16:50:35Z</time>
      </trkpt>
      <trkpt lat="43.8876" lon="7.70128">
        <ele>400.804</ele>
        <time>2018-03-14T16:50:37Z</time>
      </trkpt>
      <trkpt lat="43.88756" lon="7.70125">
        <ele>400.538</ele>
        <time>2018-03-14T16:50:39Z</time>
      </trkpt>
      <trkpt lat="43.88754" lon="7.7012">
        <ele>400.296</ele>
        <time>2018-03-14T16:50:41Z</time>
      </trkpt>
      <trkpt lat="43.88753" lon="7.70115">
        <ele>400.077</ele>
        <time>2018-03-14T16:50:43Z</time>
      </trkpt>
      <trkpt lat="43.88755" lon="7.70109">
        <ele>399.45</ele>
        <time>2018-03-14T16:50:46Z</time>
      </trkpt>
      <trkpt lat="43.88756" lon="7.70106">
        <ele>399.244</ele>
        <time>2018-03-14T16:50:47Z</time>
      </trkpt>
      <trkpt lat="43.88757" lon="7.701">
        <ele>398.757</ele>
        <time>2018-03-14T16:50:49Z</time>
      </trkpt>
      <trkpt lat="43.88757" lon="7.70095">
        <ele>398.303</ele>
        <time>2018-03-14T16:50:51Z</time>
      </trkpt>
      <trkpt lat="43.8876" lon="7.7009">
        <ele>397.665</ele>
        <time>2018-03-14T16:50:53Z</time>
      </trkpt>
      <trkpt lat="43.88761" lon="7.70085">
        <ele>397.005</ele>
        <time>2018-03-14T16:50:55Z</time>
      </trkpt>
      <trkpt lat="43.88763" lon="7.70081">
        <ele>395.908</ele>
        <time>2018-03-14T16:51:12Z</time>
      </trkpt>
      <trkpt lat="43.88763" lon="7.70076">
        <ele>395.24</ele>
        <time>2018-03-14T16:51:16Z</time>
      </trkpt>
      <trkpt lat="43.88764" lon="7.70072">
        <ele>394.302</ele>
        <time>2018-03-14T16:51:28Z</time>
      </trkpt>
      <trkpt lat="43.88764" lon="7.70068">
        <ele>393.571</ele>
        <time>2018-03-14T16:51:33Z</time>
      </trkpt>
      <trkpt lat="43.88761" lon="7.70067">
        <ele>393.716</ele>
        <time>2018-03-14T16:51:47Z</time>
      </trkpt>
      <trkpt lat="43.8876" lon="7.7006">
        <ele>393.766</ele>
        <time>2018-03-14T16:51:49Z</time>
      </trkpt>
      <trkpt lat="43.88761" lon="7.70053">
        <ele>393.705</ele>
        <time>2018-03-14T16:51:51Z</time>
      </trkpt>
      <trkpt lat="43.8876" lon="7.70044">
        <ele>393.61</ele>
        <time>2018-03-14T16:51:54Z</time>
      </trkpt>
      <trkpt lat="43.88759" lon="7.7004">
        <ele>393.246</ele>
        <time>2018-03-14T16:52:02Z</time>
      </trkpt>
      <trkpt lat="43.8876" lon="7.70035">
        <ele>392.984</ele>
        <time>2018-03-14T16:52:04Z</time>
      </trkpt>
      <trkpt lat="43.8876" lon="7.70029">
        <ele>392.74</ele>
        <time>2018-03-14T16:52:06Z</time>
      </trkpt>
      <trkpt lat="43.88761" lon="7.70024">
        <ele>392.463</ele>
        <time>2018-03-14T16:52:08Z</time>
      </trkpt>
      <trkpt lat="43.88761" lon="7.70019">
        <ele>391.891</ele>
        <time>2018-03-14T16:52:18Z</time>
      </trkpt>
      <trkpt lat="43.88759" lon="7.70014">
        <ele>391.776</ele>
        <time>2018-03-14T16:52:22Z</time>
      </trkpt>
      <trkpt lat="43.88758" lon="7.7001">
        <ele>391.832</ele>
        <time>2018-03-14T16:52:24Z</time>
      </trkpt>
      <trkpt lat="43.88757" lon="7.70006">
        <ele>391.556</ele>
        <time>2018-03-14T16:52:27Z</time>
      </trkpt>
      <trkpt lat="43.88756" lon="7.70002">
        <ele>390.988</ele>
        <time>2018-03-14T16:52:32Z</time>
      </trkpt>
      <trkpt lat="43.88756" lon="7.69997">
        <ele>390.682</ele>
        <time>2018-03-14T16:52:34Z</time>
      </trkpt>
      <trkpt lat="43.88754" lon="7.69992">
        <ele>390.186</ele>
        <time>2018-03-14T16:52:38Z</time>
      </trkpt>
      <trkpt lat="43.88754" lon="7.69988">
        <ele>389.591</ele>
        <time>2018-03-14T16:52:41Z</time>
      </trkpt>
      <trkpt lat="43.88755" lon="7.69984">
        <ele>389.21</ele>
        <time>2018-03-14T16:52:43Z</time>
      </trkpt>
      <trkpt lat="43.88756" lon="7.6998">
        <ele>387.475</ele>
        <time>2018-03-14T16:52:53Z</time>
      </trkpt>
      <trkpt lat="43.88756" lon="7.69976">
        <ele>386.669</ele>
        <time>2018-03-14T16:52:56Z</time>
      </trkpt>
      <trkpt lat="43.88758" lon="7.69973">
        <ele>385.662</ele>
        <time>2018-03-14T16:53:01Z</time>
      </trkpt>
      <trkpt lat="43.88758" lon="7.69969">
        <ele>384.641</ele>
        <time>2018-03-14T16:53:06Z</time>
      </trkpt>
      <trkpt lat="43.88762" lon="7.69965">
        <ele>382.101</ele>
        <time>2018-03-14T16:53:53Z</time>
      </trkpt>
      <trkpt lat="43.88762" lon="7.6996">
        <ele>381.535</ele>
        <time>2018-03-14T16:53:56Z</time>
      </trkpt>
      <trkpt lat="43.88762" lon="7.69955">
        <ele>381.086</ele>
        <time>2018-03-14T16:53:58Z</time>
      </trkpt>
      <trkpt lat="43.8876" lon="7.69952">
        <ele>380.649</ele>
        <time>2018-03-14T16:54:00Z</time>
      </trkpt>
      <trkpt lat="43.88758" lon="7.69948">
        <ele>380.022</ele>
        <time>2018-03-14T16:54:03Z</time>
      </trkpt>
      <trkpt lat="43.88756" lon="7.69947">
        <ele>379.39</ele>
        <time>2018-03-14T16:54:06Z</time>
      </trkpt>
      <trkpt lat="43.88754" lon="7.69943">
        <ele>378.606</ele>
        <time>2018-03-14T16:54:09Z</time>
      </trkpt>
      <trkpt lat="43.88752" lon="7.69939">
        <ele>378.038</ele>
        <time>2018-03-14T16:54:12Z</time>
      </trkpt>
      <trkpt lat="43.8875" lon="7.69936">
        <ele>377.48</ele>
        <time>2018-03-14T16:54:14Z</time>
      </trkpt>
      <trkpt lat="43.88748" lon="7.6993">
        <ele>377.228</ele>
        <time>2018-03-14T16:54:16Z</time>
      </trkpt>
      <trkpt lat="43.88747" lon="7.69924">
        <ele>377.13</ele>
        <time>2018-03-14T16:54:18Z</time>
      </trkpt>
      <trkpt lat="43.88746" lon="7.6992">
        <ele>377.147</ele>
        <time>2018-03-14T16:54:19Z</time>
      </trkpt>
      <trkpt lat="43.88746" lon="7.69915">
        <ele>377.157</ele>
        <time>2018-03-14T16:54:21Z</time>
      </trkpt>
      <trkpt lat="43.88744" lon="7.69911">
        <ele>377.037</ele>
        <time>2018-03-14T16:54:23Z</time>
      </trkpt>
      <trkpt lat="43.88743" lon="7.69907">
        <ele>376.986</ele>
        <time>2018-03-14T16:54:25Z</time>
      </trkpt>
      <trkpt lat="43.88741" lon="7.69901">
        <ele>376.952</ele>
        <time>2018-03-14T16:54:27Z</time>
      </trkpt>
      <trkpt lat="43.8874" lon="7.69896">
        <ele>377.097</ele>
        <time>2018-03-14T16:54:29Z</time>
      </trkpt>
      <trkpt lat="43.88739" lon="7.6989">
        <ele>377.379</ele>
        <time>2018-03-14T16:54:31Z</time>
      </trkpt>
      <trkpt lat="43.88736" lon="7.69881">
        <ele>377.688</ele>
        <time>2018-03-14T16:54:34Z</time>
      </trkpt>
      <trkpt lat="43.88735" lon="7.69876">
        <ele>377.797</ele>
        <time>2018-03-14T16:54:36Z</time>
      </trkpt>
      <trkpt lat="43.88734" lon="7.69871">
        <ele>377.971</ele>
        <time>2018-03-14T16:54:39Z</time>
      </trkpt>
      <trkpt lat="43.88731" lon="7.6987">
        <ele>375.597</ele>
        <time>2018-03-14T16:55:15Z</time>
      </trkpt>
      <trkpt lat="43.88729" lon="7.69868">
        <ele>375.443</ele>
        <time>2018-03-14T16:55:18Z</time>
      </trkpt>
      <trkpt lat="43.88726" lon="7.69866">
        <ele>375.394</ele>
        <time>2018-03-14T16:55:25Z</time>
      </trkpt>
      <trkpt lat="43.88723" lon="7.69862">
        <ele>375.556</ele>
        <time>2018-03-14T16:55:28Z</time>
      </trkpt>
      <trkpt lat="43.88721" lon="7.69859">
        <ele>375.641</ele>
        <time>2018-03-14T16:55:30Z</time>
      </trkpt>
      <trkpt lat="43.88718" lon="7.69854">
        <ele>376.183</ele>
        <time>2018-03-14T16:55:34Z</time>
      </trkpt>
      <trkpt lat="43.88716" lon="7.6985">
        <ele>376.391</ele>
        <time>2018-03-14T16:55:36Z</time>
      </trkpt>
      <trkpt lat="43.88714" lon="7.69846">
        <ele>378.066</ele>
        <time>2018-03-14T16:56:03Z</time>
      </trkpt>
      <trkpt lat="43.88712" lon="7.69843">
        <ele>378.683</ele>
        <time>2018-03-14T16:56:07Z</time>
      </trkpt>
      <trkpt lat="43.8871" lon="7.69839">
        <ele>378.808</ele>
        <time>2018-03-14T16:56:09Z</time>
      </trkpt>
      <trkpt lat="43.88708" lon="7.69837">
        <ele>379.012</ele>
        <time>2018-03-14T16:56:22Z</time>
      </trkpt>
      <trkpt lat="43.88704" lon="7.69834">
        <ele>378.934</ele>
        <time>2018-03-14T16:56:25Z</time>
      </trkpt>
      <trkpt lat="43.88702" lon="7.69829">
        <ele>378.943</ele>
        <time>2018-03-14T16:56:27Z</time>
      </trkpt>
      <trkpt lat="43.88701" lon="7.69825">
        <ele>378.953</ele>
        <time>2018-03-14T16:56:29Z</time>
      </trkpt>
      <trkpt lat="43.88698" lon="7.69822">
        <ele>378.816</ele>
        <time>2018-03-14T16:56:32Z</time>
      </trkpt>
      <trkpt lat="43.88695" lon="7.6982">
        <ele>378.744</ele>
        <time>2018-03-14T16:56:36Z</time>
      </trkpt>
      <trkpt lat="43.88692" lon="7.69819">
        <ele>378.666</ele>
        <time>2018-03-14T16:56:39Z</time>
      </trkpt>
      <trkpt lat="43.88691" lon="7.69814">
        <ele>376.251</ele>
        <time>2018-03-14T16:57:34Z</time>
      </trkpt>
      <trkpt lat="43.88688" lon="7.69812">
        <ele>375.81</ele>
        <time>2018-03-14T16:57:37Z</time>
      </trkpt>
      <trkpt lat="43.88686" lon="7.6981">
        <ele>375.806</ele>
        <time>2018-03-14T16:57:39Z</time>
      </trkpt>
      <trkpt lat="43.88682" lon="7.69808">
        <ele>375.422</ele>
        <time>2018-03-14T16:58:09Z</time>
      </trkpt>
      <trkpt lat="43.88679" lon="7.69806">
        <ele>375.733</ele>
        <time>2018-03-14T16:58:17Z</time>
      </trkpt>
      <trkpt lat="43.88677" lon="7.69804">
        <ele>375.769</ele>
        <time>2018-03-14T16:58:19Z</time>
      </trkpt>
      <trkpt lat="43.88673" lon="7.69801">
        <ele>375.695</ele>
        <time>2018-03-14T16:58:21Z</time>
      </trkpt>
      <trkpt lat="43.88668" lon="7.69801">
        <ele>375.761</ele>
        <time>2018-03-14T16:58:23Z</time>
      </trkpt>
      <trkpt lat="43.88664" lon="7.69799">
        <ele>375.704</ele>
        <time>2018-03-14T16:58:25Z</time>
      </trkpt>
      <trkpt lat="43.88657" lon="7.69794">
        <ele>375.837</ele>
        <time>2018-03-14T16:58:28Z</time>
      </trkpt>
      <trkpt lat="43.88653" lon="7.69793">
        <ele>375.896</ele>
        <time>2018-03-14T16:58:30Z</time>
      </trkpt>
      <trkpt lat="43.8865" lon="7.69791">
        <ele>375.845</ele>
        <time>2018-03-14T16:58:32Z</time>
      </trkpt>
      <trkpt lat="43.88646" lon="7.69791">
        <ele>375.572</ele>
        <time>2018-03-14T16:58:36Z</time>
      </trkpt>
      <trkpt lat="43.88643" lon="7.69791">
        <ele>375.077</ele>
        <time>2018-03-14T16:58:39Z</time>
      </trkpt>
      <trkpt lat="43.8864" lon="7.69791">
        <ele>374.82</ele>
        <time>2018-03-14T16:58:41Z</time>
      </trkpt>
      <trkpt lat="43.88638" lon="7.69791">
        <ele>374.7</ele>
        <time>2018-03-14T16:58:43Z</time>
      </trkpt>
      <trkpt lat="43.88635" lon="7.69789">
        <ele>374.686</ele>
        <time>2018-03-14T16:58:45Z</time>
      </trkpt>
      <trkpt lat="43.88632" lon="7.6979">
        <ele>374.323</ele>
        <time>2018-03-14T16:58:49Z</time>
      </trkpt>
      <trkpt lat="43.88629" lon="7.69788">
        <ele>374.108</ele>
        <time>2018-03-14T16:58:51Z</time>
      </trkpt>
      <trkpt lat="43.88625" lon="7.69787">
        <ele>373.92</ele>
        <time>2018-03-14T16:58:53Z</time>
      </trkpt>
      <trkpt lat="43.88622" lon="7.69781">
        <ele>373.464</ele>
        <time>2018-03-14T16:58:56Z</time>
      </trkpt>
      <trkpt lat="43.88619" lon="7.6978">
        <ele>372.403</ele>
        <time>2018-03-14T16:59:07Z</time>
      </trkpt>
      <trkpt lat="43.88617" lon="7.69778">
        <ele>371.627</ele>
        <time>2018-03-14T16:59:10Z</time>
      </trkpt>
      <trkpt lat="43.88614" lon="7.69776">
        <ele>370.017</ele>
        <time>2018-03-14T16:59:16Z</time>
      </trkpt>
      <trkpt lat="43.88611" lon="7.69774">
        <ele>369.458</ele>
        <time>2018-03-14T16:59:18Z</time>
      </trkpt>
      <trkpt lat="43.88607" lon="7.69772">
        <ele>368.396</ele>
        <time>2018-03-14T16:59:23Z</time>
      </trkpt>
      <trkpt lat="43.88604" lon="7.69769">
        <ele>367.975</ele>
        <time>2018-03-14T16:59:24Z</time>
      </trkpt>
      <trkpt lat="43.88602" lon="7.69765">
        <ele>367.464</ele>
        <time>2018-03-14T16:59:26Z</time>
      </trkpt>
      <trkpt lat="43.886" lon="7.69759">
        <ele>366.95</ele>
        <time>2018-03-14T16:59:28Z</time>
      </trkpt>
      <trkpt lat="43.886" lon="7.69753">
        <ele>366.594</ele>
        <time>2018-03-14T16:59:30Z</time>
      </trkpt>
      <trkpt lat="43.88599" lon="7.69748">
        <ele>366.211</ele>
        <time>2018-03-14T16:59:32Z</time>
      </trkpt>
      <trkpt lat="43.88599" lon="7.69743">
        <ele>365.479</ele>
        <time>2018-03-14T16:59:34Z</time>
      </trkpt>
      <trkpt lat="43.88598" lon="7.69739">
        <ele>364.982</ele>
        <time>2018-03-14T16:59:36Z</time>
      </trkpt>
      <trkpt lat="43.88595" lon="7.69736">
        <ele>364.544</ele>
        <time>2018-03-14T16:59:38Z</time>
      </trkpt>
      <trkpt lat="43.88594" lon="7.69731">
        <ele>363.484</ele>
        <time>2018-03-14T16:59:43Z</time>
      </trkpt>
      <trkpt lat="43.88592" lon="7.69726">
        <ele>363.167</ele>
        <time>2018-03-14T16:59:45Z</time>
      </trkpt>
      <trkpt lat="43.88591" lon="7.69723">
        <ele>362.886</ele>
        <time>2018-03-14T16:59:47Z</time>
      </trkpt>
      <trkpt lat="43.88588" lon="7.69719">
        <ele>360.986</ele>
        <time>2018-03-14T17:00:08Z</time>
      </trkpt>
      <trkpt lat="43.88587" lon="7.69714">
        <ele>360.565</ele>
        <time>2018-03-14T17:00:10Z</time>
      </trkpt>
      <trkpt lat="43.88586" lon="7.6971">
        <ele>360.36</ele>
        <time>2018-03-14T17:00:12Z</time>
      </trkpt>
      <trkpt lat="43.88587" lon="7.69706">
        <ele>360.324</ele>
        <time>2018-03-14T17:00:15Z</time>
      </trkpt>
      <trkpt lat="43.88587" lon="7.69702">
        <ele>360.124</ele>
        <time>2018-03-14T17:00:17Z</time>
      </trkpt>
      <trkpt lat="43.88587" lon="7.69697">
        <ele>359.454</ele>
        <time>2018-03-14T17:00:21Z</time>
      </trkpt>
      <trkpt lat="43.88587" lon="7.69692">
        <ele>359.297</ele>
        <time>2018-03-14T17:00:23Z</time>
      </trkpt>
      <trkpt lat="43.88586" lon="7.69688">
        <ele>359.327</ele>
        <time>2018-03-14T17:00:25Z</time>
      </trkpt>
      <trkpt lat="43.88585" lon="7.69684">
        <ele>359.381</ele>
        <time>2018-03-14T17:00:27Z</time>
      </trkpt>
      <trkpt lat="43.88582" lon="7.6968">
        <ele>359.226</ele>
        <time>2018-03-14T17:00:30Z</time>
      </trkpt>
      <trkpt lat="43.88581" lon="7.69676">
        <ele>359.286</ele>
        <time>2018-03-14T17:00:32Z</time>
      </trkpt>
      <trkpt lat="43.88578" lon="7.69673">
        <ele>359.503</ele>
        <time>2018-03-14T17:00:35Z</time>
      </trkpt>
      <trkpt lat="43.88576" lon="7.6967">
        <ele>359.737</ele>
        <time>2018-03-14T17:00:37Z</time>
      </trkpt>
      <trkpt lat="43.88573" lon="7.69667">
        <ele>359.818</ele>
        <time>2018-03-14T17:00:39Z</time>
      </trkpt>
      <trkpt lat="43.88571" lon="7.69664">
        <ele>359.976</ele>
        <time>2018-03-14T17:00:41Z</time>
      </trkpt>
      <trkpt lat="43.88569" lon="7.69661">
        <ele>360.08</ele>
        <time>2018-03-14T17:00:43Z</time>
      </trkpt>
      <trkpt lat="43.88567" lon="7.69657">
        <ele>360.208</ele>
        <time>2018-03-14T17:00:46Z</time>
      </trkpt>
      <trkpt lat="43.88564" lon="7.69653">
        <ele>360.202</ele>
        <time>2018-03-14T17:00:49Z</time>
      </trkpt>
      <trkpt lat="43.88562" lon="7.69648">
        <ele>359.995</ele>
        <time>2018-03-14T17:00:54Z</time>
      </trkpt>
      <trkpt lat="43.88561" lon="7.69644">
        <ele>360.114</ele>
        <time>2018-03-14T17:00:57Z</time>
      </trkpt>
      <trkpt lat="43.8856" lon="7.6964">
        <ele>360.178</ele>
        <time>2018-03-14T17:00:59Z</time>
      </trkpt>
      <trkpt lat="43.88559" lon="7.69636">
        <ele>360.243</ele>
        <time>2018-03-14T17:01:05Z</time>
      </trkpt>
      <trkpt lat="43.88557" lon="7.69634">
        <ele>360.204</ele>
        <time>2018-03-14T17:01:13Z</time>
      </trkpt>
      <trkpt lat="43.88554" lon="7.6963">
        <ele>360.11</ele>
        <time>2018-03-14T17:01:15Z</time>
      </trkpt>
      <trkpt lat="43.88552" lon="7.69626">
        <ele>360.121</ele>
        <time>2018-03-14T17:01:18Z</time>
      </trkpt>
      <trkpt lat="43.88555" lon="7.69624">
        <ele>359.928</ele>
        <time>2018-03-14T17:02:06Z</time>
      </trkpt>
      <trkpt lat="43.88552" lon="7.69624">
        <ele>358.753</ele>
        <time>2018-03-14T17:03:00Z</time>
      </trkpt>
      <trkpt lat="43.88549" lon="7.69624">
        <ele>358.786</ele>
        <time>2018-03-14T17:03:03Z</time>
      </trkpt>
      <trkpt lat="43.88546" lon="7.69621">
        <ele>358.692</ele>
        <time>2018-03-14T17:03:06Z</time>
      </trkpt>
      <trkpt lat="43.88544" lon="7.69618">
        <ele>358.528</ele>
        <time>2018-03-14T17:03:09Z</time>
      </trkpt>
      <trkpt lat="43.8854" lon="7.69616">
        <ele>358.74</ele>
        <time>2018-03-14T17:03:12Z</time>
      </trkpt>
      <trkpt lat="43.88538" lon="7.69614">
        <ele>358.841</ele>
        <time>2018-03-14T17:03:14Z</time>
      </trkpt>
      <trkpt lat="43.88535" lon="7.69611">
        <ele>358.838</ele>
        <time>2018-03-14T17:03:17Z</time>
      </trkpt>
      <trkpt lat="43.88533" lon="7.69608">
        <ele>358.787</ele>
        <time>2018-03-14T17:03:19Z</time>
      </trkpt>
      <trkpt lat="43.8853" lon="7.69605">
        <ele>358.736</ele>
        <time>2018-03-14T17:03:23Z</time>
      </trkpt>
      <trkpt lat="43.88527" lon="7.69603">
        <ele>358.748</ele>
        <time>2018-03-14T17:03:25Z</time>
      </trkpt>
      <trkpt lat="43.88525" lon="7.696">
        <ele>358.625</ele>
        <time>2018-03-14T17:03:27Z</time>
      </trkpt>
      <trkpt lat="43.88524" lon="7.69596">
        <ele>358.717</ele>
        <time>2018-03-14T17:03:31Z</time>
      </trkpt>
      <trkpt lat="43.88521" lon="7.69595">
        <ele>358.699</ele>
        <time>2018-03-14T17:03:37Z</time>
      </trkpt>
      <trkpt lat="43.88518" lon="7.69595">
        <ele>358.543</ele>
        <time>2018-03-14T17:03:52Z</time>
      </trkpt>
      <trkpt lat="43.88516" lon="7.69591">
        <ele>358.307</ele>
        <time>2018-03-14T17:03:55Z</time>
      </trkpt>
      <trkpt lat="43.88514" lon="7.69588">
        <ele>358.089</ele>
        <time>2018-03-14T17:03:57Z</time>
      </trkpt>
      <trkpt lat="43.88513" lon="7.69585">
        <ele>358.051</ele>
        <time>2018-03-14T17:03:59Z</time>
      </trkpt>
      <trkpt lat="43.8851" lon="7.69581">
        <ele>358.007</ele>
        <time>2018-03-14T17:04:02Z</time>
      </trkpt>
      <trkpt lat="43.88508" lon="7.69578">
        <ele>357.815</ele>
        <time>2018-03-14T17:04:04Z</time>
      </trkpt>
      <trkpt lat="43.88506" lon="7.69575">
        <ele>357.73</ele>
        <time>2018-03-14T17:04:06Z</time>
      </trkpt>
      <trkpt lat="43.88503" lon="7.69574">
        <ele>357.595</ele>
        <time>2018-03-14T17:04:08Z</time>
      </trkpt>
      <trkpt lat="43.88499" lon="7.69573">
        <ele>357.374</ele>
        <time>2018-03-14T17:04:11Z</time>
      </trkpt>
      <trkpt lat="43.88496" lon="7.69573">
        <ele>357.318</ele>
        <time>2018-03-14T17:04:14Z</time>
      </trkpt>
      <trkpt lat="43.88493" lon="7.69571">
        <ele>357.215</ele>
        <time>2018-03-14T17:04:16Z</time>
      </trkpt>
      <trkpt lat="43.88491" lon="7.69568">
        <ele>357.085</ele>
        <time>2018-03-14T17:04:18Z</time>
      </trkpt>
      <trkpt lat="43.88488" lon="7.69564">
        <ele>356.823</ele>
        <time>2018-03-14T17:04:21Z</time>
      </trkpt>
      <trkpt lat="43.88486" lon="7.69561">
        <ele>356.722</ele>
        <time>2018-03-14T17:04:23Z</time>
      </trkpt>
      <trkpt lat="43.88485" lon="7.69556">
        <ele>356.342</ele>
        <time>2018-03-14T17:04:26Z</time>
      </trkpt>
      <trkpt lat="43.88485" lon="7.69551">
        <ele>356.137</ele>
        <time>2018-03-14T17:04:28Z</time>
      </trkpt>
      <trkpt lat="43.88484" lon="7.69548">
        <ele>355.96</ele>
        <time>2018-03-14T17:04:30Z</time>
      </trkpt>
      <trkpt lat="43.88482" lon="7.69543">
        <ele>355.618</ele>
        <time>2018-03-14T17:04:33Z</time>
      </trkpt>
      <trkpt lat="43.8848" lon="7.69539">
        <ele>355.454</ele>
        <time>2018-03-14T17:04:35Z</time>
      </trkpt>
      <trkpt lat="43.88478" lon="7.69535">
        <ele>355.257</ele>
        <time>2018-03-14T17:04:37Z</time>
      </trkpt>
      <trkpt lat="43.88476" lon="7.69533">
        <ele>355.126</ele>
        <time>2018-03-14T17:04:39Z</time>
      </trkpt>
      <trkpt lat="43.88474" lon="7.6953">
        <ele>355.01</ele>
        <time>2018-03-14T17:04:42Z</time>
      </trkpt>
      <trkpt lat="43.88472" lon="7.69527">
        <ele>354.89</ele>
        <time>2018-03-14T17:04:44Z</time>
      </trkpt>
      <trkpt lat="43.8847" lon="7.69523">
        <ele>354.481</ele>
        <time>2018-03-14T17:04:48Z</time>
      </trkpt>
      <trkpt lat="43.88471" lon="7.6952">
        <ele>353.235</ele>
        <time>2018-03-14T17:05:00Z</time>
      </trkpt>
      <trkpt lat="43.88473" lon="7.69523">
        <ele>351.552</ele>
        <time>2018-03-14T17:05:34Z</time>
      </trkpt>
      <trkpt lat="43.88472" lon="7.69518">
        <ele>350.439</ele>
        <time>2018-03-14T17:06:16Z</time>
      </trkpt>
      <trkpt lat="43.88473" lon="7.69515">
        <ele>350.373</ele>
        <time>2018-03-14T17:06:18Z</time>
      </trkpt>
      <trkpt lat="43.88472" lon="7.6951">
        <ele>350.284</ele>
        <time>2018-03-14T17:06:20Z</time>
      </trkpt>
      <trkpt lat="43.88471" lon="7.69505">
        <ele>350.125</ele>
        <time>2018-03-14T17:06:22Z</time>
      </trkpt>
      <trkpt lat="43.8847" lon="7.69501">
        <ele>350.021</ele>
        <time>2018-03-14T17:06:24Z</time>
      </trkpt>
      <trkpt lat="43.88469" lon="7.69497">
        <ele>349.818</ele>
        <time>2018-03-14T17:06:26Z</time>
      </trkpt>
      <trkpt lat="43.88468" lon="7.69493">
        <ele>349.723</ele>
        <time>2018-03-14T17:06:28Z</time>
      </trkpt>
      <trkpt lat="43.88467" lon="7.69489">
        <ele>349.707</ele>
        <time>2018-03-14T17:06:30Z</time>
      </trkpt>
      <trkpt lat="43.88464" lon="7.69486">
        <ele>349.3</ele>
        <time>2018-03-14T17:06:34Z</time>
      </trkpt>
      <trkpt lat="43.88462" lon="7.69482">
        <ele>349.224</ele>
        <time>2018-03-14T17:06:36Z</time>
      </trkpt>
      <trkpt lat="43.88462" lon="7.69477">
        <ele>349.195</ele>
        <time>2018-03-14T17:06:38Z</time>
      </trkpt>
      <trkpt lat="43.88461" lon="7.69472">
        <ele>349.399</ele>
        <time>2018-03-14T17:06:40Z</time>
      </trkpt>
      <trkpt lat="43.88461" lon="7.69469">
        <ele>349.539</ele>
        <time>2018-03-14T17:06:42Z</time>
      </trkpt>
      <trkpt lat="43.8846" lon="7.69464">
        <ele>349.575</ele>
        <time>2018-03-14T17:06:45Z</time>
      </trkpt>
      <trkpt lat="43.88458" lon="7.6946">
        <ele>349.497</ele>
        <time>2018-03-14T17:06:48Z</time>
      </trkpt>
      <trkpt lat="43.88457" lon="7.69455">
        <ele>349.581</ele>
        <time>2018-03-14T17:06:50Z</time>
      </trkpt>
      <trkpt lat="43.88456" lon="7.69452">
        <ele>349.669</ele>
        <time>2018-03-14T17:06:52Z</time>
      </trkpt>
      <trkpt lat="43.88453" lon="7.69447">
        <ele>349.708</ele>
        <time>2018-03-14T17:06:55Z</time>
      </trkpt>
      <trkpt lat="43.88451" lon="7.69444">
        <ele>349.678</ele>
        <time>2018-03-14T17:06:58Z</time>
      </trkpt>
      <trkpt lat="43.88448" lon="7.69441">
        <ele>349.532</ele>
        <time>2018-03-14T17:07:00Z</time>
      </trkpt>
      <trkpt lat="43.88447" lon="7.69438">
        <ele>349.532</ele>
        <time>2018-03-14T17:07:02Z</time>
      </trkpt>
      <trkpt lat="43.88444" lon="7.69435">
        <ele>349.52</ele>
        <time>2018-03-14T17:07:04Z</time>
      </trkpt>
      <trkpt lat="43.88442" lon="7.6943">
        <ele>349.362</ele>
        <time>2018-03-14T17:07:07Z</time>
      </trkpt>
      <trkpt lat="43.88439" lon="7.69429">
        <ele>349.419</ele>
        <time>2018-03-14T17:07:10Z</time>
      </trkpt>
      <trkpt lat="43.88436" lon="7.69426">
        <ele>349.479</ele>
        <time>2018-03-14T17:07:15Z</time>
      </trkpt>
      <trkpt lat="43.88433" lon="7.69424">
        <ele>349.541</ele>
        <time>2018-03-14T17:07:17Z</time>
      </trkpt>
      <trkpt lat="43.8843" lon="7.6942">
        <ele>349.399</ele>
        <time>2018-03-14T17:07:19Z</time>
      </trkpt>
      <trkpt lat="43.88426" lon="7.69418">
        <ele>349.328</ele>
        <time>2018-03-14T17:07:23Z</time>
      </trkpt>
      <trkpt lat="43.88422" lon="7.69415">
        <ele>349.374</ele>
        <time>2018-03-14T17:07:25Z</time>
      </trkpt>
      <trkpt lat="43.88419" lon="7.69414">
        <ele>349.552</ele>
        <time>2018-03-14T17:07:28Z</time>
      </trkpt>
      <trkpt lat="43.88415" lon="7.69412">
        <ele>349.85</ele>
        <time>2018-03-14T17:07:30Z</time>
      </trkpt>
      <trkpt lat="43.88411" lon="7.69409">
        <ele>350.249</ele>
        <time>2018-03-14T17:07:32Z</time>
      </trkpt>
      <trkpt lat="43.88408" lon="7.69405">
        <ele>350.538</ele>
        <time>2018-03-14T17:07:35Z</time>
      </trkpt>
      <trkpt lat="43.88404" lon="7.69401">
        <ele>350.867</ele>
        <time>2018-03-14T17:07:37Z</time>
      </trkpt>
      <trkpt lat="43.88395" lon="7.69397">
        <ele>351.032</ele>
        <time>2018-03-14T17:07:39Z</time>
      </trkpt>
      <trkpt lat="43.88388" lon="7.69393">
        <ele>351.211</ele>
        <time>2018-03-14T17:07:42Z</time>
      </trkpt>
      <trkpt lat="43.88385" lon="7.69391">
        <ele>351.311</ele>
        <time>2018-03-14T17:07:44Z</time>
      </trkpt>
      <trkpt lat="43.88384" lon="7.69387">
        <ele>351.368</ele>
        <time>2018-03-14T17:07:46Z</time>
      </trkpt>
      <trkpt lat="43.88382" lon="7.69382">
        <ele>351.35</ele>
        <time>2018-03-14T17:07:48Z</time>
      </trkpt>
      <trkpt lat="43.88383" lon="7.69378">
        <ele>351.318</ele>
        <time>2018-03-14T17:07:50Z</time>
      </trkpt>
      <trkpt lat="43.88382" lon="7.69374">
        <ele>351.019</ele>
        <time>2018-03-14T17:08:06Z</time>
      </trkpt>
      <trkpt lat="43.8838" lon="7.69371">
        <ele>351.339</ele>
        <time>2018-03-14T17:08:21Z</time>
      </trkpt>
      <trkpt lat="43.88383" lon="7.69372">
        <ele>351.978</ele>
        <time>2018-03-14T17:08:45Z</time>
      </trkpt>
      <trkpt lat="43.88382" lon="7.69369">
        <ele>352.226</ele>
        <time>2018-03-14T17:08:56Z</time>
      </trkpt>
      <trkpt lat="43.88382" lon="7.69364">
        <ele>352.276</ele>
        <time>2018-03-14T17:08:58Z</time>
      </trkpt>
      <trkpt lat="43.88382" lon="7.69359">
        <ele>352.35</ele>
        <time>2018-03-14T17:09:02Z</time>
      </trkpt>
      <trkpt lat="43.88381" lon="7.69354">
        <ele>352.465</ele>
        <time>2018-03-14T17:09:05Z</time>
      </trkpt>
      <trkpt lat="43.88381" lon="7.69349">
        <ele>352.408</ele>
        <time>2018-03-14T17:09:07Z</time>
      </trkpt>
      <trkpt lat="43.88381" lon="7.69345">
        <ele>352.371</ele>
        <time>2018-03-14T17:09:09Z</time>
      </trkpt>
      <trkpt lat="43.88381" lon="7.6934">
        <ele>352.343</ele>
        <time>2018-03-14T17:09:12Z</time>
      </trkpt>
      <trkpt lat="43.88381" lon="7.69334">
        <ele>352.136</ele>
        <time>2018-03-14T17:09:15Z</time>
      </trkpt>
      <trkpt lat="43.88382" lon="7.6933">
        <ele>351.929</ele>
        <time>2018-03-14T17:09:20Z</time>
      </trkpt>
      <trkpt lat="43.88383" lon="7.69327">
        <ele>351.767</ele>
        <time>2018-03-14T17:09:28Z</time>
      </trkpt>
      <trkpt lat="43.88386" lon="7.69325">
        <ele>351.671</ele>
        <time>2018-03-14T17:09:32Z</time>
      </trkpt>
      <trkpt lat="43.88388" lon="7.69321">
        <ele>350.918</ele>
        <time>2018-03-14T17:09:36Z</time>
      </trkpt>
      <trkpt lat="43.88388" lon="7.69316">
        <ele>350.419</ele>
        <time>2018-03-14T17:09:39Z</time>
      </trkpt>
      <trkpt lat="43.88388" lon="7.69311">
        <ele>350.135</ele>
        <time>2018-03-14T17:09:41Z</time>
      </trkpt>
      <trkpt lat="43.88387" lon="7.69307">
        <ele>349.707</ele>
        <time>2018-03-14T17:09:43Z</time>
      </trkpt>
      <trkpt lat="43.88388" lon="7.69303">
        <ele>349.387</ele>
        <time>2018-03-14T17:09:45Z</time>
      </trkpt>
      <trkpt lat="43.88388" lon="7.69298">
        <ele>349.199</ele>
        <time>2018-03-14T17:09:47Z</time>
      </trkpt>
      <trkpt lat="43.88386" lon="7.69293">
        <ele>349.1</ele>
        <time>2018-03-14T17:09:50Z</time>
      </trkpt>
      <trkpt lat="43.88386" lon="7.69288">
        <ele>349.043</ele>
        <time>2018-03-14T17:09:52Z</time>
      </trkpt>
      <trkpt lat="43.88386" lon="7.69282">
        <ele>348.99</ele>
        <time>2018-03-14T17:09:54Z</time>
      </trkpt>
      <trkpt lat="43.88386" lon="7.69277">
        <ele>348.881</ele>
        <time>2018-03-14T17:09:56Z</time>
      </trkpt>
      <trkpt lat="43.88386" lon="7.69273">
        <ele>348.855</ele>
        <time>2018-03-14T17:09:58Z</time>
      </trkpt>
      <trkpt lat="43.88385" lon="7.69267">
        <ele>348.696</ele>
        <time>2018-03-14T17:10:00Z</time>
      </trkpt>
      <trkpt lat="43.88383" lon="7.69264">
        <ele>348.584</ele>
        <time>2018-03-14T17:10:02Z</time>
      </trkpt>
      <trkpt lat="43.88382" lon="7.6926">
        <ele>348.377</ele>
        <time>2018-03-14T17:10:04Z</time>
      </trkpt>
      <trkpt lat="43.88382" lon="7.69254">
        <ele>348.169</ele>
        <time>2018-03-14T17:10:07Z</time>
      </trkpt>
      <trkpt lat="43.88382" lon="7.6925">
        <ele>348.108</ele>
        <time>2018-03-14T17:10:09Z</time>
      </trkpt>
      <trkpt lat="43.88382" lon="7.69245">
        <ele>348.21</ele>
        <time>2018-03-14T17:10:11Z</time>
      </trkpt>
      <trkpt lat="43.88381" lon="7.69241">
        <ele>348.015</ele>
        <time>2018-03-14T17:10:13Z</time>
      </trkpt>
      <trkpt lat="43.88382" lon="7.69236">
        <ele>347.803</ele>
        <time>2018-03-14T17:10:15Z</time>
      </trkpt>
      <trkpt lat="43.88383" lon="7.69232">
        <ele>347.58</ele>
        <time>2018-03-14T17:10:17Z</time>
      </trkpt>
      <trkpt lat="43.88386" lon="7.69229">
        <ele>347.214</ele>
        <time>2018-03-14T17:10:20Z</time>
      </trkpt>
      <trkpt lat="43.88389" lon="7.69225">
        <ele>346.774</ele>
        <time>2018-03-14T17:10:23Z</time>
      </trkpt>
      <trkpt lat="43.88391" lon="7.69222">
        <ele>346.051</ele>
        <time>2018-03-14T17:10:44Z</time>
      </trkpt>
      <trkpt lat="43.88394" lon="7.69222">
        <ele>346.019</ele>
        <time>2018-03-14T17:10:47Z</time>
      </trkpt>
      <trkpt lat="43.88396" lon="7.69221">
        <ele>346.208</ele>
        <time>2018-03-14T17:10:49Z</time>
      </trkpt>
      <trkpt lat="43.884" lon="7.69219">
        <ele>346.566</ele>
        <time>2018-03-14T17:10:52Z</time>
      </trkpt>
      <trkpt lat="43.88403" lon="7.69219">
        <ele>346.862</ele>
        <time>2018-03-14T17:10:55Z</time>
      </trkpt>
      <trkpt lat="43.88406" lon="7.6922">
        <ele>346.819</ele>
        <time>2018-03-14T17:11:00Z</time>
      </trkpt>
      <trkpt lat="43.88409" lon="7.69221">
        <ele>346.972</ele>
        <time>2018-03-14T17:11:03Z</time>
      </trkpt>
      <trkpt lat="43.88413" lon="7.69219">
        <ele>347.036</ele>
        <time>2018-03-14T17:11:05Z</time>
      </trkpt>
      <trkpt lat="43.88415" lon="7.6922">
        <ele>346.808</ele>
        <time>2018-03-14T17:11:07Z</time>
      </trkpt>
      <trkpt lat="43.88419" lon="7.6922">
        <ele>346.165</ele>
        <time>2018-03-14T17:11:11Z</time>
      </trkpt>
      <trkpt lat="43.88422" lon="7.69219">
        <ele>345.878</ele>
        <time>2018-03-14T17:11:13Z</time>
      </trkpt>
      <trkpt lat="43.88425" lon="7.69218">
        <ele>345.746</ele>
        <time>2018-03-14T17:11:15Z</time>
      </trkpt>
      <trkpt lat="43.88429" lon="7.69219">
        <ele>345.649</ele>
        <time>2018-03-14T17:11:17Z</time>
      </trkpt>
      <trkpt lat="43.88432" lon="7.69219">
        <ele>345.54</ele>
        <time>2018-03-14T17:11:19Z</time>
      </trkpt>
      <trkpt lat="43.88435" lon="7.69222">
        <ele>345.401</ele>
        <time>2018-03-14T17:11:21Z</time>
      </trkpt>
      <trkpt lat="43.88437" lon="7.69223">
        <ele>345.282</ele>
        <time>2018-03-14T17:11:23Z</time>
      </trkpt>
      <trkpt lat="43.8844" lon="7.69221">
        <ele>345.276</ele>
        <time>2018-03-14T17:11:28Z</time>
      </trkpt>
      <trkpt lat="43.88443" lon="7.69219">
        <ele>345.295</ele>
        <time>2018-03-14T17:11:30Z</time>
      </trkpt>
      <trkpt lat="43.88445" lon="7.69216">
        <ele>345.375</ele>
        <time>2018-03-14T17:11:32Z</time>
      </trkpt>
      <trkpt lat="43.88445" lon="7.69212">
        <ele>345.64</ele>
        <time>2018-03-14T17:11:35Z</time>
      </trkpt>
      <trkpt lat="43.88443" lon="7.69208">
        <ele>345.899</ele>
        <time>2018-03-14T17:11:38Z</time>
      </trkpt>
      <trkpt lat="43.8844" lon="7.69206">
        <ele>346.146</ele>
        <time>2018-03-14T17:11:41Z</time>
      </trkpt>
      <trkpt lat="43.88438" lon="7.69203">
        <ele>346.238</ele>
        <time>2018-03-14T17:11:43Z</time>
      </trkpt>
      <trkpt lat="43.88434" lon="7.69201">
        <ele>346.174</ele>
        <time>2018-03-14T17:11:46Z</time>
      </trkpt>
      <trkpt lat="43.88431" lon="7.69199">
        <ele>346.149</ele>
        <time>2018-03-14T17:11:48Z</time>
      </trkpt>
      <trkpt lat="43.88428" lon="7.69198">
        <ele>346.132</ele>
        <time>2018-03-14T17:11:50Z</time>
      </trkpt>
      <trkpt lat="43.88426" lon="7.69196">
        <ele>346.043</ele>
        <time>2018-03-14T17:11:52Z</time>
      </trkpt>
      <trkpt lat="43.88423" lon="7.69194">
        <ele>345.951</ele>
        <time>2018-03-14T17:11:54Z</time>
      </trkpt>
      <trkpt lat="43.8842" lon="7.69192">
        <ele>345.85</ele>
        <time>2018-03-14T17:11:56Z</time>
      </trkpt>
      <trkpt lat="43.88417" lon="7.69187">
        <ele>345.954</ele>
        <time>2018-03-14T17:11:59Z</time>
      </trkpt>
      <trkpt lat="43.88416" lon="7.69185">
        <ele>345.93</ele>
        <time>2018-03-14T17:12:01Z</time>
      </trkpt>
      <trkpt lat="43.88414" lon="7.69181">
        <ele>345.992</ele>
        <time>2018-03-14T17:12:03Z</time>
      </trkpt>
      <trkpt lat="43.88412" lon="7.69177">
        <ele>346.039</ele>
        <time>2018-03-14T17:12:06Z</time>
      </trkpt>
      <trkpt lat="43.88409" lon="7.69173">
        <ele>346.002</ele>
        <time>2018-03-14T17:12:09Z</time>
      </trkpt>
      <trkpt lat="43.88407" lon="7.6917">
        <ele>346.054</ele>
        <time>2018-03-14T17:12:11Z</time>
      </trkpt>
      <trkpt lat="43.88406" lon="7.69166">
        <ele>346.168</ele>
        <time>2018-03-14T17:12:13Z</time>
      </trkpt>
      <trkpt lat="43.88403" lon="7.69162">
        <ele>346.263</ele>
        <time>2018-03-14T17:12:16Z</time>
      </trkpt>
      <trkpt lat="43.88403" lon="7.69158">
        <ele>346.519</ele>
        <time>2018-03-14T17:12:19Z</time>
      </trkpt>
      <trkpt lat="43.88401" lon="7.69155">
        <ele>346.657</ele>
        <time>2018-03-14T17:12:22Z</time>
      </trkpt>
      <trkpt lat="43.88398" lon="7.69152">
        <ele>346.686</ele>
        <time>2018-03-14T17:12:24Z</time>
      </trkpt>
      <trkpt lat="43.88396" lon="7.69147">
        <ele>346.787</ele>
        <time>2018-03-14T17:12:27Z</time>
      </trkpt>
      <trkpt lat="43.88392" lon="7.69141">
        <ele>346.89</ele>
        <time>2018-03-14T17:12:31Z</time>
      </trkpt>
      <trkpt lat="43.8839" lon="7.69137">
        <ele>346.68</ele>
        <time>2018-03-14T17:12:33Z</time>
      </trkpt>
      <trkpt lat="43.88388" lon="7.69135">
        <ele>346.604</ele>
        <time>2018-03-14T17:12:35Z</time>
      </trkpt>
      <trkpt lat="43.88384" lon="7.69133">
        <ele>346.672</ele>
        <time>2018-03-14T17:12:38Z</time>
      </trkpt>
      <trkpt lat="43.8838" lon="7.69131">
        <ele>346.684</ele>
        <time>2018-03-14T17:12:41Z</time>
      </trkpt>
      <trkpt lat="43.88377" lon="7.69128">
        <ele>346.602</ele>
        <time>2018-03-14T17:12:43Z</time>
      </trkpt>
      <trkpt lat="43.88375" lon="7.69126">
        <ele>346.643</ele>
        <time>2018-03-14T17:12:46Z</time>
      </trkpt>
      <trkpt lat="43.88373" lon="7.69121">
        <ele>346.48</ele>
        <time>2018-03-14T17:12:49Z</time>
      </trkpt>
      <trkpt lat="43.88371" lon="7.69118">
        <ele>346.195</ele>
        <time>2018-03-14T17:12:52Z</time>
      </trkpt>
      <trkpt lat="43.88369" lon="7.69116">
        <ele>346.032</ele>
        <time>2018-03-14T17:12:54Z</time>
      </trkpt>
      <trkpt lat="43.88366" lon="7.69112">
        <ele>345.569</ele>
        <time>2018-03-14T17:12:57Z</time>
      </trkpt>
      <trkpt lat="43.88365" lon="7.69108">
        <ele>345.234</ele>
        <time>2018-03-14T17:13:00Z</time>
      </trkpt>
      <trkpt lat="43.88362" lon="7.69105">
        <ele>344.991</ele>
        <time>2018-03-14T17:13:03Z</time>
      </trkpt>
      <trkpt lat="43.8836" lon="7.69102">
        <ele>344.86</ele>
        <time>2018-03-14T17:13:06Z</time>
      </trkpt>
      <trkpt lat="43.88358" lon="7.69098">
        <ele>344.834</ele>
        <time>2018-03-14T17:13:10Z</time>
      </trkpt>
      <trkpt lat="43.88357" lon="7.69094">
        <ele>345.029</ele>
        <time>2018-03-14T17:13:13Z</time>
      </trkpt>
      <trkpt lat="43.88356" lon="7.69088">
        <ele>344.964</ele>
        <time>2018-03-14T17:13:16Z</time>
      </trkpt>
      <trkpt lat="43.88355" lon="7.69083">
        <ele>344.979</ele>
        <time>2018-03-14T17:13:18Z</time>
      </trkpt>
      <trkpt lat="43.88354" lon="7.69079">
        <ele>345.106</ele>
        <time>2018-03-14T17:13:21Z</time>
      </trkpt>
      <trkpt lat="43.88353" lon="7.69074">
        <ele>345.23</ele>
        <time>2018-03-14T17:13:24Z</time>
      </trkpt>
      <trkpt lat="43.88351" lon="7.6907">
        <ele>345.222</ele>
        <time>2018-03-14T17:13:26Z</time>
      </trkpt>
      <trkpt lat="43.88348" lon="7.69064">
        <ele>345.456</ele>
        <time>2018-03-14T17:13:32Z</time>
      </trkpt>
      <trkpt lat="43.88347" lon="7.69059">
        <ele>345.568</ele>
        <time>2018-03-14T17:13:36Z</time>
      </trkpt>
      <trkpt lat="43.88347" lon="7.69055">
        <ele>345.904</ele>
        <time>2018-03-14T17:13:39Z</time>
      </trkpt>
      <trkpt lat="43.88348" lon="7.6905">
        <ele>346.104</ele>
        <time>2018-03-14T17:13:43Z</time>
      </trkpt>
      <trkpt lat="43.88348" lon="7.69046">
        <ele>346.115</ele>
        <time>2018-03-14T17:13:45Z</time>
      </trkpt>
      <trkpt lat="43.8835" lon="7.69042">
        <ele>346.034</ele>
        <time>2018-03-14T17:13:48Z</time>
      </trkpt>
      <trkpt lat="43.88351" lon="7.69038">
        <ele>345.941</ele>
        <time>2018-03-14T17:13:50Z</time>
      </trkpt>
      <trkpt lat="43.88351" lon="7.69034">
        <ele>345.566</ele>
        <time>2018-03-14T17:13:54Z</time>
      </trkpt>
      <trkpt lat="43.88349" lon="7.6903">
        <ele>345.369</ele>
        <time>2018-03-14T17:13:56Z</time>
      </trkpt>
      <trkpt lat="43.88345" lon="7.69027">
        <ele>345.321</ele>
        <time>2018-03-14T17:13:58Z</time>
      </trkpt>
      <trkpt lat="43.88342" lon="7.69026">
        <ele>345.152</ele>
        <time>2018-03-14T17:14:00Z</time>
      </trkpt>
      <trkpt lat="43.88338" lon="7.69027">
        <ele>344.681</ele>
        <time>2018-03-14T17:14:04Z</time>
      </trkpt>
      <trkpt lat="43.88335" lon="7.69027">
        <ele>344.38</ele>
        <time>2018-03-14T17:14:06Z</time>
      </trkpt>
      <trkpt lat="43.88332" lon="7.69027">
        <ele>344.047</ele>
        <time>2018-03-14T17:14:08Z</time>
      </trkpt>
      <trkpt lat="43.88328" lon="7.69027">
        <ele>343.769</ele>
        <time>2018-03-14T17:14:10Z</time>
      </trkpt>
      <trkpt lat="43.88325" lon="7.69025">
        <ele>343.583</ele>
        <time>2018-03-14T17:14:13Z</time>
      </trkpt>
      <trkpt lat="43.88322" lon="7.69023">
        <ele>343.408</ele>
        <time>2018-03-14T17:14:15Z</time>
      </trkpt>
      <trkpt lat="43.88319" lon="7.69019">
        <ele>343.27</ele>
        <time>2018-03-14T17:14:18Z</time>
      </trkpt>
      <trkpt lat="43.88317" lon="7.69017">
        <ele>343.333</ele>
        <time>2018-03-14T17:14:20Z</time>
      </trkpt>
      <trkpt lat="43.88314" lon="7.69015">
        <ele>343.304</ele>
        <time>2018-03-14T17:14:22Z</time>
      </trkpt>
      <trkpt lat="43.8831" lon="7.69012">
        <ele>343.25</ele>
        <time>2018-03-14T17:14:25Z</time>
      </trkpt>
      <trkpt lat="43.88307" lon="7.6901">
        <ele>343.238</ele>
        <time>2018-03-14T17:14:27Z</time>
      </trkpt>
      <trkpt lat="43.88303" lon="7.69009">
        <ele>343.132</ele>
        <time>2018-03-14T17:14:30Z</time>
      </trkpt>
      <trkpt lat="43.88299" lon="7.69008">
        <ele>343.025</ele>
        <time>2018-03-14T17:14:32Z</time>
      </trkpt>
      <trkpt lat="43.88295" lon="7.69006">
        <ele>343.115</ele>
        <time>2018-03-14T17:14:35Z</time>
      </trkpt>
      <trkpt lat="43.88292" lon="7.69005">
        <ele>343.058</ele>
        <time>2018-03-14T17:14:39Z</time>
      </trkpt>
      <trkpt lat="43.88289" lon="7.69003">
        <ele>343.049</ele>
        <time>2018-03-14T17:14:41Z</time>
      </trkpt>
      <trkpt lat="43.88287" lon="7.69003">
        <ele>343.05</ele>
        <time>2018-03-14T17:14:43Z</time>
      </trkpt>
      <trkpt lat="43.88283" lon="7.69002">
        <ele>343.06</ele>
        <time>2018-03-14T17:14:45Z</time>
      </trkpt>
      <trkpt lat="43.8828" lon="7.69001">
        <ele>343.058</ele>
        <time>2018-03-14T17:14:47Z</time>
      </trkpt>
      <trkpt lat="43.88277" lon="7.69">
        <ele>343.053</ele>
        <time>2018-03-14T17:14:50Z</time>
      </trkpt>
      <trkpt lat="43.88273" lon="7.68998">
        <ele>343.153</ele>
        <time>2018-03-14T17:14:53Z</time>
      </trkpt>
      <trkpt lat="43.88269" lon="7.68999">
        <ele>343.186</ele>
        <time>2018-03-14T17:14:56Z</time>
      </trkpt>
      <trkpt lat="43.88264" lon="7.68997">
        <ele>343.192</ele>
        <time>2018-03-14T17:14:58Z</time>
      </trkpt>
      <trkpt lat="43.88261" lon="7.68996">
        <ele>343.354</ele>
        <time>2018-03-14T17:15:01Z</time>
      </trkpt>
      <trkpt lat="43.8826" lon="7.69">
        <ele>343.473</ele>
        <time>2018-03-14T17:15:08Z</time>
      </trkpt>
      <trkpt lat="43.88262" lon="7.69003">
        <ele>343.048</ele>
        <time>2018-03-14T17:15:31Z</time>
      </trkpt>
      <trkpt lat="43.88264" lon="7.69">
        <ele>342.107</ele>
        <time>2018-03-14T17:16:10Z</time>
      </trkpt>
      <trkpt lat="43.88266" lon="7.68997">
        <ele>341.989</ele>
        <time>2018-03-14T17:16:19Z</time>
      </trkpt>
      <trkpt lat="43.88268" lon="7.68994">
        <ele>341.79</ele>
        <time>2018-03-14T17:16:40Z</time>
      </trkpt>
      <trkpt lat="43.88271" lon="7.68995">
        <ele>341.815</ele>
        <time>2018-03-14T17:17:07Z</time>
      </trkpt>
      <trkpt lat="43.88268" lon="7.68994">
        <ele>341.224</ele>
        <time>2018-03-14T17:18:11Z</time>
      </trkpt>
      <trkpt lat="43.88266" lon="7.6899">
        <ele>341.023</ele>
        <time>2018-03-14T17:18:15Z</time>
      </trkpt>
      <trkpt lat="43.88263" lon="7.68989">
        <ele>341.69</ele>
        <time>2018-03-14T17:18:44Z</time>
      </trkpt>
      <trkpt lat="43.8826" lon="7.68988">
        <ele>341.705</ele>
        <time>2018-03-14T17:18:46Z</time>
      </trkpt>
      <trkpt lat="43.88257" lon="7.68986">
        <ele>341.964</ele>
        <time>2018-03-14T17:19:12Z</time>
      </trkpt>
      <trkpt lat="43.88254" lon="7.68984">
        <ele>341.6</ele>
        <time>2018-03-14T17:19:16Z</time>
      </trkpt>
      <trkpt lat="43.88252" lon="7.68981">
        <ele>341.473</ele>
        <time>2018-03-14T17:19:18Z</time>
      </trkpt>
      <trkpt lat="43.8825" lon="7.68977">
        <ele>341.404</ele>
        <time>2018-03-14T17:19:20Z</time>
      </trkpt>
      <trkpt lat="43.88249" lon="7.68973">
        <ele>341.352</ele>
        <time>2018-03-14T17:19:22Z</time>
      </trkpt>
      <trkpt lat="43.88248" lon="7.68968">
        <ele>341.301</ele>
        <time>2018-03-14T17:19:24Z</time>
      </trkpt>
      <trkpt lat="43.88246" lon="7.68965">
        <ele>341.391</ele>
        <time>2018-03-14T17:19:26Z</time>
      </trkpt>
      <trkpt lat="43.88245" lon="7.68961">
        <ele>341.495</ele>
        <time>2018-03-14T17:19:28Z</time>
      </trkpt>
      <trkpt lat="43.88243" lon="7.68957">
        <ele>341.507</ele>
        <time>2018-03-14T17:19:31Z</time>
      </trkpt>
      <trkpt lat="43.8824" lon="7.68953">
        <ele>341.655</ele>
        <time>2018-03-14T17:19:34Z</time>
      </trkpt>
      <trkpt lat="43.88237" lon="7.68951">
        <ele>341.899</ele>
        <time>2018-03-14T17:19:36Z</time>
      </trkpt>
      <trkpt lat="43.88235" lon="7.68948">
        <ele>342.393</ele>
        <time>2018-03-14T17:19:39Z</time>
      </trkpt>
      <trkpt lat="43.88233" lon="7.68945">
        <ele>342.606</ele>
        <time>2018-03-14T17:19:41Z</time>
      </trkpt>
      <trkpt lat="43.8823" lon="7.68942">
        <ele>342.973</ele>
        <time>2018-03-14T17:19:45Z</time>
      </trkpt>
      <trkpt lat="43.88227" lon="7.68941">
        <ele>342.966</ele>
        <time>2018-03-14T17:19:48Z</time>
      </trkpt>
      <trkpt lat="43.88224" lon="7.68942">
        <ele>343.033</ele>
        <time>2018-03-14T17:20:01Z</time>
      </trkpt>
      <trkpt lat="43.88221" lon="7.6894">
        <ele>343.108</ele>
        <time>2018-03-14T17:20:03Z</time>
      </trkpt>
      <trkpt lat="43.88216" lon="7.68939">
        <ele>343.403</ele>
        <time>2018-03-14T17:20:07Z</time>
      </trkpt>
      <trkpt lat="43.88214" lon="7.68937">
        <ele>343.514</ele>
        <time>2018-03-14T17:20:09Z</time>
      </trkpt>
      <trkpt lat="43.8821" lon="7.68934">
        <ele>343.711</ele>
        <time>2018-03-14T17:20:11Z</time>
      </trkpt>
      <trkpt lat="43.88206" lon="7.6893">
        <ele>343.826</ele>
        <time>2018-03-14T17:20:13Z</time>
      </trkpt>
      <trkpt lat="43.88203" lon="7.68927">
        <ele>343.872</ele>
        <time>2018-03-14T17:20:15Z</time>
      </trkpt>
      <trkpt lat="43.88199" lon="7.68926">
        <ele>343.833</ele>
        <time>2018-03-14T17:20:19Z</time>
      </trkpt>
      <trkpt lat="43.88196" lon="7.68922">
        <ele>343.461</ele>
        <time>2018-03-14T17:20:23Z</time>
      </trkpt>
      <trkpt lat="43.88193" lon="7.68919">
        <ele>343.318</ele>
        <time>2018-03-14T17:20:25Z</time>
      </trkpt>
      <trkpt lat="43.88191" lon="7.68916">
        <ele>343.069</ele>
        <time>2018-03-14T17:20:27Z</time>
      </trkpt>
      <trkpt lat="43.88188" lon="7.68912">
        <ele>342.701</ele>
        <time>2018-03-14T17:20:30Z</time>
      </trkpt>
      <trkpt lat="43.88187" lon="7.68909">
        <ele>342.577</ele>
        <time>2018-03-14T17:20:33Z</time>
      </trkpt>
      <trkpt lat="43.88185" lon="7.68905">
        <ele>342.29</ele>
        <time>2018-03-14T17:20:35Z</time>
      </trkpt>
      <trkpt lat="43.88183" lon="7.68901">
        <ele>342.166</ele>
        <time>2018-03-14T17:20:37Z</time>
      </trkpt>
      <trkpt lat="43.88182" lon="7.68895">
        <ele>342.438</ele>
        <time>2018-03-14T17:20:40Z</time>
      </trkpt>
      <trkpt lat="43.88181" lon="7.6889">
        <ele>342.698</ele>
        <time>2018-03-14T17:20:43Z</time>
      </trkpt>
      <trkpt lat="43.8818" lon="7.68886">
        <ele>342.667</ele>
        <time>2018-03-14T17:20:45Z</time>
      </trkpt>
      <trkpt lat="43.88178" lon="7.68883">
        <ele>342.585</ele>
        <time>2018-03-14T17:20:47Z</time>
      </trkpt>
      <trkpt lat="43.88176" lon="7.6888">
        <ele>342.495</ele>
        <time>2018-03-14T17:20:49Z</time>
      </trkpt>
      <trkpt lat="43.88174" lon="7.68877">
        <ele>342.477</ele>
        <time>2018-03-14T17:20:51Z</time>
      </trkpt>
      <trkpt lat="43.88172" lon="7.68874">
        <ele>342.62</ele>
        <time>2018-03-14T17:20:53Z</time>
      </trkpt>
      <trkpt lat="43.8817" lon="7.68871">
        <ele>342.966</ele>
        <time>2018-03-14T17:21:00Z</time>
      </trkpt>
      <trkpt lat="43.88169" lon="7.68866">
        <ele>342.745</ele>
        <time>2018-03-14T17:21:02Z</time>
      </trkpt>
      <trkpt lat="43.88168" lon="7.68859">
        <ele>342.585</ele>
        <time>2018-03-14T17:21:04Z</time>
      </trkpt>
      <trkpt lat="43.88167" lon="7.68852">
        <ele>342.651</ele>
        <time>2018-03-14T17:21:21Z</time>
      </trkpt>
      <trkpt lat="43.88165" lon="7.68848">
        <ele>343.156</ele>
        <time>2018-03-14T17:21:25Z</time>
      </trkpt>
      <trkpt lat="43.88162" lon="7.68845">
        <ele>343.339</ele>
        <time>2018-03-14T17:21:28Z</time>
      </trkpt>
      <trkpt lat="43.88159" lon="7.68841">
        <ele>343.34</ele>
        <time>2018-03-14T17:21:32Z</time>
      </trkpt>
      <trkpt lat="43.88158" lon="7.68836">
        <ele>343.406</ele>
        <time>2018-03-14T17:21:34Z</time>
      </trkpt>
      <trkpt lat="43.88161" lon="7.68834">
        <ele>343.401</ele>
        <time>2018-03-14T17:22:01Z</time>
      </trkpt>
      <trkpt lat="43.88163" lon="7.68834">
        <ele>343.293</ele>
        <time>2018-03-14T17:22:16Z</time>
      </trkpt>
      <trkpt lat="43.88161" lon="7.68833">
        <ele>343.425</ele>
        <time>2018-03-14T17:23:05Z</time>
      </trkpt>
      <trkpt lat="43.88158" lon="7.68832">
        <ele>343.558</ele>
        <time>2018-03-14T17:23:18Z</time>
      </trkpt>
      <trkpt lat="43.88157" lon="7.68827">
        <ele>343.962</ele>
        <time>2018-03-14T17:26:01Z</time>
      </trkpt>
      <trkpt lat="43.88156" lon="7.68823">
        <ele>344.213</ele>
        <time>2018-03-14T17:26:04Z</time>
      </trkpt>
      <trkpt lat="43.88156" lon="7.68819">
        <ele>343.534</ele>
        <time>2018-03-14T17:26:13Z</time>
      </trkpt>
      <trkpt lat="43.88154" lon="7.68816">
        <ele>341.613</ele>
        <time>2018-03-14T17:26:21Z</time>
      </trkpt>
      <trkpt lat="43.88154" lon="7.68812">
        <ele>342.307</ele>
        <time>2018-03-14T17:28:38Z</time>
      </trkpt>
      <trkpt lat="43.88153" lon="7.68808">
        <ele>343.243</ele>
        <time>2018-03-14T17:28:56Z</time>
      </trkpt>
      <trkpt lat="43.8815" lon="7.68805">
        <ele>343.259</ele>
        <time>2018-03-14T17:28:59Z</time>
      </trkpt>
      <trkpt lat="43.8815" lon="7.688">
        <ele>343.214</ele>
        <time>2018-03-14T17:29:32Z</time>
      </trkpt>
      <trkpt lat="43.88147" lon="7.68794">
        <ele>343.005</ele>
        <time>2018-03-14T17:29:34Z</time>
      </trkpt>
      <trkpt lat="43.88147" lon="7.68789">
        <ele>342.671</ele>
        <time>2018-03-14T17:29:38Z</time>
      </trkpt>
      <trkpt lat="43.88149" lon="7.68785">
        <ele>342.622</ele>
        <time>2018-03-14T17:29:41Z</time>
      </trkpt>
      <trkpt lat="43.88149" lon="7.6878">
        <ele>342.416</ele>
        <time>2018-03-14T17:29:43Z</time>
      </trkpt>
      <trkpt lat="43.88147" lon="7.68774">
        <ele>342.071</ele>
        <time>2018-03-14T17:29:45Z</time>
      </trkpt>
      <trkpt lat="43.88145" lon="7.6877">
        <ele>341.68</ele>
        <time>2018-03-14T17:29:48Z</time>
      </trkpt>
      <trkpt lat="43.88143" lon="7.68766">
        <ele>341.551</ele>
        <time>2018-03-14T17:29:50Z</time>
      </trkpt>
      <trkpt lat="43.88142" lon="7.68762">
        <ele>341.341</ele>
        <time>2018-03-14T17:29:52Z</time>
      </trkpt>
      <trkpt lat="43.88141" lon="7.68759">
        <ele>341.137</ele>
        <time>2018-03-14T17:29:54Z</time>
      </trkpt>
      <trkpt lat="43.88138" lon="7.68754">
        <ele>340.963</ele>
        <time>2018-03-14T17:29:57Z</time>
      </trkpt>
      <trkpt lat="43.8814" lon="7.6875">
        <ele>341.184</ele>
        <time>2018-03-14T17:30:17Z</time>
      </trkpt>
      <trkpt lat="43.88141" lon="7.68747">
        <ele>341.44</ele>
        <time>2018-03-14T17:30:21Z</time>
      </trkpt>
      <trkpt lat="43.8814" lon="7.68742">
        <ele>341.618</ele>
        <time>2018-03-14T17:30:23Z</time>
      </trkpt>
      <trkpt lat="43.88138" lon="7.68738">
        <ele>342.052</ele>
        <time>2018-03-14T17:30:27Z</time>
      </trkpt>
      <trkpt lat="43.88136" lon="7.68734">
        <ele>342.155</ele>
        <time>2018-03-14T17:30:29Z</time>
      </trkpt>
      <trkpt lat="43.88134" lon="7.68732">
        <ele>341.998</ele>
        <time>2018-03-14T17:30:33Z</time>
      </trkpt>
      <trkpt lat="43.8813" lon="7.68728">
        <ele>341.653</ele>
        <time>2018-03-14T17:30:36Z</time>
      </trkpt>
      <trkpt lat="43.88127" lon="7.68725">
        <ele>341.477</ele>
        <time>2018-03-14T17:30:38Z</time>
      </trkpt>
      <trkpt lat="43.88125" lon="7.68721">
        <ele>341.322</ele>
        <time>2018-03-14T17:30:41Z</time>
      </trkpt>
      <trkpt lat="43.88123" lon="7.68718">
        <ele>341.28</ele>
        <time>2018-03-14T17:30:45Z</time>
      </trkpt>
      <trkpt lat="43.8812" lon="7.68717">
        <ele>341.033</ele>
        <time>2018-03-14T17:30:50Z</time>
      </trkpt>
      <trkpt lat="43.88117" lon="7.68716">
        <ele>340.943</ele>
        <time>2018-03-14T17:30:52Z</time>
      </trkpt>
      <trkpt lat="43.88113" lon="7.68714">
        <ele>340.602</ele>
        <time>2018-03-14T17:30:55Z</time>
      </trkpt>
      <trkpt lat="43.88109" lon="7.68711">
        <ele>340.378</ele>
        <time>2018-03-14T17:30:58Z</time>
      </trkpt>
      <trkpt lat="43.88107" lon="7.68706">
        <ele>340.29</ele>
        <time>2018-03-14T17:31:00Z</time>
      </trkpt>
      <trkpt lat="43.88105" lon="7.68701">
        <ele>340.215</ele>
        <time>2018-03-14T17:31:02Z</time>
      </trkpt>
      <trkpt lat="43.88103" lon="7.68699">
        <ele>340.172</ele>
        <time>2018-03-14T17:31:03Z</time>
      </trkpt>
      <trkpt lat="43.881" lon="7.68696">
        <ele>339.49</ele>
        <time>2018-03-14T17:31:08Z</time>
      </trkpt>
      <trkpt lat="43.88099" lon="7.68692">
        <ele>338.161</ele>
        <time>2018-03-14T17:31:21Z</time>
      </trkpt>
      <trkpt lat="43.88097" lon="7.68689">
        <ele>337.733</ele>
        <time>2018-03-14T17:31:23Z</time>
      </trkpt>
      <trkpt lat="43.88094" lon="7.68685">
        <ele>336.751</ele>
        <time>2018-03-14T17:31:29Z</time>
      </trkpt>
      <trkpt lat="43.88091" lon="7.68683">
        <ele>336.515</ele>
        <time>2018-03-14T17:31:31Z</time>
      </trkpt>
      <trkpt lat="43.88088" lon="7.68681">
        <ele>336.304</ele>
        <time>2018-03-14T17:31:33Z</time>
      </trkpt>
      <trkpt lat="43.88084" lon="7.68677">
        <ele>336.005</ele>
        <time>2018-03-14T17:31:37Z</time>
      </trkpt>
      <trkpt lat="43.88081" lon="7.68677">
        <ele>335.592</ele>
        <time>2018-03-14T17:31:40Z</time>
      </trkpt>
      <trkpt lat="43.88079" lon="7.68674">
        <ele>335.252</ele>
        <time>2018-03-14T17:31:45Z</time>
      </trkpt>
      <trkpt lat="43.88076" lon="7.68672">
        <ele>335.116</ele>
        <time>2018-03-14T17:31:48Z</time>
      </trkpt>
      <trkpt lat="43.88074" lon="7.6867">
        <ele>334.003</ele>
        <time>2018-03-14T17:31:59Z</time>
      </trkpt>
      <trkpt lat="43.88072" lon="7.68666">
        <ele>332.719</ele>
        <time>2018-03-14T17:32:03Z</time>
      </trkpt>
      <trkpt lat="43.8807" lon="7.68662">
        <ele>332.03</ele>
        <time>2018-03-14T17:32:06Z</time>
      </trkpt>
      <trkpt lat="43.88068" lon="7.68659">
        <ele>331.213</ele>
        <time>2018-03-14T17:32:10Z</time>
      </trkpt>
      <trkpt lat="43.88066" lon="7.68656">
        <ele>330.379</ele>
        <time>2018-03-14T17:32:15Z</time>
      </trkpt>
      <trkpt lat="43.88063" lon="7.68654">
        <ele>329.666</ele>
        <time>2018-03-14T17:32:25Z</time>
      </trkpt>
      <trkpt lat="43.88061" lon="7.6865">
        <ele>329.106</ele>
        <time>2018-03-14T17:32:28Z</time>
      </trkpt>
      <trkpt lat="43.88058" lon="7.68651">
        <ele>328.302</ele>
        <time>2018-03-14T17:32:32Z</time>
      </trkpt>
      <trkpt lat="43.88055" lon="7.68651">
        <ele>325.707</ele>
        <time>2018-03-14T17:33:03Z</time>
      </trkpt>
      <trkpt lat="43.88056" lon="7.68646">
        <ele>325.41</ele>
        <time>2018-03-14T17:33:06Z</time>
      </trkpt>
      <trkpt lat="43.88056" lon="7.68642">
        <ele>324.208</ele>
        <time>2018-03-14T17:33:13Z</time>
      </trkpt>
      <trkpt lat="43.88054" lon="7.6864">
        <ele>322.88</ele>
        <time>2018-03-14T17:33:17Z</time>
      </trkpt>
      <trkpt lat="43.88051" lon="7.6864">
        <ele>322.776</ele>
        <time>2018-03-14T17:33:26Z</time>
      </trkpt>
      <trkpt lat="43.88048" lon="7.6864">
        <ele>321.93</ele>
        <time>2018-03-14T17:33:31Z</time>
      </trkpt>
      <trkpt lat="43.88045" lon="7.68638">
        <ele>321.328</ele>
        <time>2018-03-14T17:33:34Z</time>
      </trkpt>
      <trkpt lat="43.88043" lon="7.68636">
        <ele>320.566</ele>
        <time>2018-03-14T17:33:39Z</time>
      </trkpt>
      <trkpt lat="43.88043" lon="7.68631">
        <ele>319.862</ele>
        <time>2018-03-14T17:33:41Z</time>
      </trkpt>
      <trkpt lat="43.8804" lon="7.68627">
        <ele>319.605</ele>
        <time>2018-03-14T17:33:43Z</time>
      </trkpt>
      <trkpt lat="43.88038" lon="7.68621">
        <ele>319.457</ele>
        <time>2018-03-14T17:33:45Z</time>
      </trkpt>
      <trkpt lat="43.88037" lon="7.68617">
        <ele>319.157</ele>
        <time>2018-03-14T17:33:47Z</time>
      </trkpt>
      <trkpt lat="43.88037" lon="7.68613">
        <ele>317.811</ele>
        <time>2018-03-14T17:33:58Z</time>
      </trkpt>
      <trkpt lat="43.8804" lon="7.68608">
        <ele>317.551</ele>
        <time>2018-03-14T17:34:00Z</time>
      </trkpt>
      <trkpt lat="43.88041" lon="7.68604">
        <ele>317.206</ele>
        <time>2018-03-14T17:34:02Z</time>
      </trkpt>
      <trkpt lat="43.88043" lon="7.686">
        <ele>317.045</ele>
        <time>2018-03-14T17:34:04Z</time>
      </trkpt>
      <trkpt lat="43.88042" lon="7.68595">
        <ele>316.899</ele>
        <time>2018-03-14T17:34:06Z</time>
      </trkpt>
      <trkpt lat="43.88041" lon="7.68591">
        <ele>316.803</ele>
        <time>2018-03-14T17:34:07Z</time>
      </trkpt>
      <trkpt lat="43.8804" lon="7.68586">
        <ele>316.526</ele>
        <time>2018-03-14T17:34:09Z</time>
      </trkpt>
      <trkpt lat="43.88038" lon="7.68583">
        <ele>316.094</ele>
        <time>2018-03-14T17:34:12Z</time>
      </trkpt>
      <trkpt lat="43.88036" lon="7.68579">
        <ele>315.861</ele>
        <time>2018-03-14T17:34:14Z</time>
      </trkpt>
      <trkpt lat="43.88034" lon="7.68576">
        <ele>315.638</ele>
        <time>2018-03-14T17:34:16Z</time>
      </trkpt>
      <trkpt lat="43.88031" lon="7.68573">
        <ele>309.776</ele>
        <time>2018-03-14T17:36:24Z</time>
      </trkpt>
      <trkpt lat="43.88028" lon="7.68571">
        <ele>308.785</ele>
        <time>2018-03-14T17:36:30Z</time>
      </trkpt>
      <trkpt lat="43.88025" lon="7.6857">
        <ele>308.502</ele>
        <time>2018-03-14T17:36:33Z</time>
      </trkpt>
      <trkpt lat="43.88021" lon="7.68567">
        <ele>307.915</ele>
        <time>2018-03-14T17:36:41Z</time>
      </trkpt>
      <trkpt lat="43.88022" lon="7.68562">
        <ele>307.534</ele>
        <time>2018-03-14T17:36:46Z</time>
      </trkpt>
      <trkpt lat="43.8802" lon="7.68559">
        <ele>307.258</ele>
        <time>2018-03-14T17:36:49Z</time>
      </trkpt>
      <trkpt lat="43.88017" lon="7.68557">
        <ele>306.596</ele>
        <time>2018-03-14T17:36:52Z</time>
      </trkpt>
      <trkpt lat="43.88015" lon="7.68554">
        <ele>306.168</ele>
        <time>2018-03-14T17:36:54Z</time>
      </trkpt>
      <trkpt lat="43.88011" lon="7.68551">
        <ele>305.743</ele>
        <time>2018-03-14T17:36:59Z</time>
      </trkpt>
      <trkpt lat="43.88009" lon="7.68549">
        <ele>305.567</ele>
        <time>2018-03-14T17:37:02Z</time>
      </trkpt>
      <trkpt lat="43.88006" lon="7.68546">
        <ele>305.327</ele>
        <time>2018-03-14T17:37:04Z</time>
      </trkpt>
      <trkpt lat="43.88003" lon="7.68544">
        <ele>304.061</ele>
        <time>2018-03-14T17:37:12Z</time>
      </trkpt>
      <trkpt lat="43.88001" lon="7.68542">
        <ele>303.644</ele>
        <time>2018-03-14T17:37:14Z</time>
      </trkpt>
      <trkpt lat="43.87998" lon="7.6854">
        <ele>302.946</ele>
        <time>2018-03-14T17:37:17Z</time>
      </trkpt>
      <trkpt lat="43.87996" lon="7.68539">
        <ele>302.394</ele>
        <time>2018-03-14T17:37:21Z</time>
      </trkpt>
      <trkpt lat="43.87996" lon="7.68535">
        <ele>301.238</ele>
        <time>2018-03-14T17:37:40Z</time>
      </trkpt>
      <trkpt lat="43.87993" lon="7.68534">
        <ele>300.944</ele>
        <time>2018-03-14T17:37:42Z</time>
      </trkpt>
      <trkpt lat="43.87989" lon="7.68534">
        <ele>300.582</ele>
        <time>2018-03-14T17:37:44Z</time>
      </trkpt>
      <trkpt lat="43.87987" lon="7.68534">
        <ele>300.334</ele>
        <time>2018-03-14T17:37:46Z</time>
      </trkpt>
      <trkpt lat="43.87984" lon="7.68532">
        <ele>300.111</ele>
        <time>2018-03-14T17:37:49Z</time>
      </trkpt>
      <trkpt lat="43.87981" lon="7.6853">
        <ele>299.809</ele>
        <time>2018-03-14T17:37:51Z</time>
      </trkpt>
      <trkpt lat="43.87978" lon="7.68527">
        <ele>299.316</ele>
        <time>2018-03-14T17:37:53Z</time>
      </trkpt>
      <trkpt lat="43.87975" lon="7.68524">
        <ele>298.85</ele>
        <time>2018-03-14T17:37:55Z</time>
      </trkpt>
      <trkpt lat="43.87972" lon="7.68524">
        <ele>297.213</ele>
        <time>2018-03-14T17:38:02Z</time>
      </trkpt>
      <trkpt lat="43.87968" lon="7.68523">
        <ele>296.656</ele>
        <time>2018-03-14T17:38:05Z</time>
      </trkpt>
      <trkpt lat="43.87964" lon="7.68522">
        <ele>296.079</ele>
        <time>2018-03-14T17:38:08Z</time>
      </trkpt>
      <trkpt lat="43.87966" lon="7.68519">
        <ele>295.819</ele>
        <time>2018-03-14T17:38:12Z</time>
      </trkpt>
      <trkpt lat="43.87964" lon="7.68515">
        <ele>295.658</ele>
        <time>2018-03-14T17:38:14Z</time>
      </trkpt>
      <trkpt lat="43.87966" lon="7.68512">
        <ele>294.17</ele>
        <time>2018-03-14T17:38:22Z</time>
      </trkpt>
      <trkpt lat="43.87964" lon="7.6851">
        <ele>292.547</ele>
        <time>2018-03-14T17:38:26Z</time>
      </trkpt>
      <trkpt lat="43.8796" lon="7.68511">
        <ele>289.816</ele>
        <time>2018-03-14T17:38:33Z</time>
      </trkpt>
      <trkpt lat="43.87958" lon="7.68512">
        <ele>288.591</ele>
        <time>2018-03-14T17:38:37Z</time>
      </trkpt>
      <trkpt lat="43.87954" lon="7.68512">
        <ele>286.146</ele>
        <time>2018-03-14T17:38:48Z</time>
      </trkpt>
      <trkpt lat="43.87951" lon="7.68509">
        <ele>285.901</ele>
        <time>2018-03-14T17:38:50Z</time>
      </trkpt>
      <trkpt lat="43.8795" lon="7.68506">
        <ele>285.647</ele>
        <time>2018-03-14T17:38:59Z</time>
      </trkpt>
      <trkpt lat="43.87951" lon="7.68501">
        <ele>285.076</ele>
        <time>2018-03-14T17:39:07Z</time>
      </trkpt>
      <trkpt lat="43.87953" lon="7.68497">
        <ele>284.405</ele>
        <time>2018-03-14T17:39:10Z</time>
      </trkpt>
      <trkpt lat="43.87951" lon="7.68494">
        <ele>283.495</ele>
        <time>2018-03-14T17:39:14Z</time>
      </trkpt>
      <trkpt lat="43.87949" lon="7.68491">
        <ele>282.26</ele>
        <time>2018-03-14T17:39:18Z</time>
      </trkpt>
      <trkpt lat="43.87948" lon="7.68487">
        <ele>280.797</ele>
        <time>2018-03-14T17:39:22Z</time>
      </trkpt>
      <trkpt lat="43.87947" lon="7.68482">
        <ele>280.171</ele>
        <time>2018-03-14T17:39:24Z</time>
      </trkpt>
      <trkpt lat="43.87946" lon="7.68477">
        <ele>279.477</ele>
        <time>2018-03-14T17:39:28Z</time>
      </trkpt>
      <trkpt lat="43.87945" lon="7.68469">
        <ele>279.092</ele>
        <time>2018-03-14T17:39:30Z</time>
      </trkpt>
      <trkpt lat="43.87948" lon="7.68466">
        <ele>277.389</ele>
        <time>2018-03-14T17:39:47Z</time>
      </trkpt>
      <trkpt lat="43.87949" lon="7.68463">
        <ele>275.869</ele>
        <time>2018-03-14T17:39:54Z</time>
      </trkpt>
      <trkpt lat="43.87952" lon="7.68459">
        <ele>275.308</ele>
        <time>2018-03-14T17:39:57Z</time>
      </trkpt>
      <trkpt lat="43.87952" lon="7.68455">
        <ele>274.876</ele>
        <time>2018-03-14T17:40:00Z</time>
      </trkpt>
      <trkpt lat="43.87952" lon="7.68451">
        <ele>274.457</ele>
        <time>2018-03-14T17:40:03Z</time>
      </trkpt>
      <trkpt lat="43.87951" lon="7.68446">
        <ele>274.087</ele>
        <time>2018-03-14T17:40:05Z</time>
      </trkpt>
      <trkpt lat="43.8795" lon="7.68443">
        <ele>273.485</ele>
        <time>2018-03-14T17:40:11Z</time>
      </trkpt>
      <trkpt lat="43.87948" lon="7.68439">
        <ele>273.761</ele>
        <time>2018-03-14T17:40:19Z</time>
      </trkpt>
      <trkpt lat="43.87946" lon="7.68437">
        <ele>273.535</ele>
        <time>2018-03-14T17:40:22Z</time>
      </trkpt>
      <trkpt lat="43.87943" lon="7.68438">
        <ele>272.866</ele>
        <time>2018-03-14T17:40:28Z</time>
      </trkpt>
      <trkpt lat="43.8794" lon="7.68437">
        <ele>270.971</ele>
        <time>2018-03-14T17:40:44Z</time>
      </trkpt>
      <trkpt lat="43.87937" lon="7.68435">
        <ele>270.337</ele>
        <time>2018-03-14T17:40:50Z</time>
      </trkpt>
      <trkpt lat="43.87934" lon="7.68433">
        <ele>270.884</ele>
        <time>2018-03-14T17:41:34Z</time>
      </trkpt>
      <trkpt lat="43.87933" lon="7.68429">
        <ele>272.091</ele>
        <time>2018-03-14T17:41:40Z</time>
      </trkpt>
      <trkpt lat="43.87932" lon="7.68433">
        <ele>265.394</ele>
        <time>2018-03-14T17:42:43Z</time>
      </trkpt>
      <trkpt lat="43.8793" lon="7.6843">
        <ele>266.274</ele>
        <time>2018-03-14T17:43:53Z</time>
      </trkpt>
      <trkpt lat="43.87931" lon="7.68427">
        <ele>266.532</ele>
        <time>2018-03-14T17:44:02Z</time>
      </trkpt>
      <trkpt lat="43.87931" lon="7.68423">
        <ele>266.572</ele>
        <time>2018-03-14T17:44:04Z</time>
      </trkpt>
      <trkpt lat="43.87933" lon="7.68418">
        <ele>267.559</ele>
        <time>2018-03-14T17:44:16Z</time>
      </trkpt>
      <trkpt lat="43.87931" lon="7.68414">
        <ele>267.065</ele>
        <time>2018-03-14T17:44:37Z</time>
      </trkpt>
      <trkpt lat="43.87932" lon="7.68409">
        <ele>267.067</ele>
        <time>2018-03-14T17:44:40Z</time>
      </trkpt>
      <trkpt lat="43.87934" lon="7.68404">
        <ele>267.079</ele>
        <time>2018-03-14T17:44:42Z</time>
      </trkpt>
      <trkpt lat="43.87935" lon="7.68398">
        <ele>267.3</ele>
        <time>2018-03-14T17:44:44Z</time>
      </trkpt>
      <trkpt lat="43.87936" lon="7.68393">
        <ele>267.469</ele>
        <time>2018-03-14T17:44:46Z</time>
      </trkpt>
      <trkpt lat="43.87937" lon="7.68388">
        <ele>267.55</ele>
        <time>2018-03-14T17:44:49Z</time>
      </trkpt>
      <trkpt lat="43.87936" lon="7.68384">
        <ele>267.744</ele>
        <time>2018-03-14T17:44:52Z</time>
      </trkpt>
      <trkpt lat="43.87936" lon="7.68378">
        <ele>267.977</ele>
        <time>2018-03-14T17:44:54Z</time>
      </trkpt>
      <trkpt lat="43.87936" lon="7.68372">
        <ele>268.135</ele>
        <time>2018-03-14T17:44:56Z</time>
      </trkpt>
      <trkpt lat="43.87936" lon="7.68368">
        <ele>268.233</ele>
        <time>2018-03-14T17:44:59Z</time>
      </trkpt>
      <trkpt lat="43.87936" lon="7.68364">
        <ele>267.864</ele>
        <time>2018-03-14T17:45:19Z</time>
      </trkpt>
      <trkpt lat="43.87934" lon="7.68359">
        <ele>267.786</ele>
        <time>2018-03-14T17:45:21Z</time>
      </trkpt>
      <trkpt lat="43.87933" lon="7.68354">
        <ele>267.821</ele>
        <time>2018-03-14T17:45:23Z</time>
      </trkpt>
      <trkpt lat="43.87932" lon="7.68349">
        <ele>267.918</ele>
        <time>2018-03-14T17:45:25Z</time>
      </trkpt>
      <trkpt lat="43.87931" lon="7.68345">
        <ele>268.002</ele>
        <time>2018-03-14T17:45:27Z</time>
      </trkpt>
      <trkpt lat="43.87931" lon="7.68339">
        <ele>268.145</ele>
        <time>2018-03-14T17:45:30Z</time>
      </trkpt>
      <trkpt lat="43.8793" lon="7.68335">
        <ele>268.15</ele>
        <time>2018-03-14T17:45:33Z</time>
      </trkpt>
      <trkpt lat="43.8793" lon="7.6833">
        <ele>267.602</ele>
        <time>2018-03-14T17:45:43Z</time>
      </trkpt>
      <trkpt lat="43.87929" lon="7.68325">
        <ele>265.682</ele>
        <time>2018-03-14T17:45:50Z</time>
      </trkpt>
      <trkpt lat="43.87928" lon="7.68319">
        <ele>265.032</ele>
        <time>2018-03-14T17:45:53Z</time>
      </trkpt>
      <trkpt lat="43.87928" lon="7.68312">
        <ele>264.515</ele>
        <time>2018-03-14T17:45:56Z</time>
      </trkpt>
      <trkpt lat="43.87927" lon="7.68308">
        <ele>264.137</ele>
        <time>2018-03-14T17:45:58Z</time>
      </trkpt>
      <trkpt lat="43.87926" lon="7.68301">
        <ele>263.869</ele>
        <time>2018-03-14T17:46:00Z</time>
      </trkpt>
      <trkpt lat="43.87923" lon="7.68293">
        <ele>263.445</ele>
        <time>2018-03-14T17:46:13Z</time>
      </trkpt>
      <trkpt lat="43.87922" lon="7.6829">
        <ele>262.781</ele>
        <time>2018-03-14T17:46:16Z</time>
      </trkpt>
      <trkpt lat="43.8792" lon="7.68285">
        <ele>262.586</ele>
        <time>2018-03-14T17:46:18Z</time>
      </trkpt>
      <trkpt lat="43.87918" lon="7.68281">
        <ele>262.397</ele>
        <time>2018-03-14T17:46:20Z</time>
      </trkpt>
      <trkpt lat="43.87916" lon="7.68277">
        <ele>262.29</ele>
        <time>2018-03-14T17:46:22Z</time>
      </trkpt>
      <trkpt lat="43.87914" lon="7.68271">
        <ele>262.331</ele>
        <time>2018-03-14T17:46:24Z</time>
      </trkpt>
      <trkpt lat="43.87913" lon="7.68266">
        <ele>262.425</ele>
        <time>2018-03-14T17:46:26Z</time>
      </trkpt>
      <trkpt lat="43.87911" lon="7.68262">
        <ele>262.558</ele>
        <time>2018-03-14T17:46:28Z</time>
      </trkpt>
      <trkpt lat="43.87909" lon="7.68256">
        <ele>262.69</ele>
        <time>2018-03-14T17:46:30Z</time>
      </trkpt>
      <trkpt lat="43.87907" lon="7.68248">
        <ele>262.66</ele>
        <time>2018-03-14T17:46:32Z</time>
      </trkpt>
      <trkpt lat="43.87905" lon="7.68239">
        <ele>262.876</ele>
        <time>2018-03-14T17:46:36Z</time>
      </trkpt>
      <trkpt lat="43.87904" lon="7.68235">
        <ele>263.084</ele>
        <time>2018-03-14T17:46:38Z</time>
      </trkpt>
      <trkpt lat="43.87904" lon="7.6823">
        <ele>263.169</ele>
        <time>2018-03-14T17:46:40Z</time>
      </trkpt>
      <trkpt lat="43.87904" lon="7.68226">
        <ele>263.285</ele>
        <time>2018-03-14T17:46:42Z</time>
      </trkpt>
      <trkpt lat="43.87904" lon="7.68221">
        <ele>263.427</ele>
        <time>2018-03-14T17:46:44Z</time>
      </trkpt>
      <trkpt lat="43.87904" lon="7.68218">
        <ele>263.272</ele>
        <time>2018-03-14T17:46:54Z</time>
      </trkpt>
      <trkpt lat="43.87905" lon="7.68212">
        <ele>262.926</ele>
        <time>2018-03-14T17:46:57Z</time>
      </trkpt>
      <trkpt lat="43.87905" lon="7.68208">
        <ele>261.63</ele>
        <time>2018-03-14T17:47:12Z</time>
      </trkpt>
      <trkpt lat="43.87905" lon="7.68203">
        <ele>261.339</ele>
        <time>2018-03-14T17:47:15Z</time>
      </trkpt>
      <trkpt lat="43.87906" lon="7.68199">
        <ele>261.304</ele>
        <time>2018-03-14T17:47:18Z</time>
      </trkpt>
      <trkpt lat="43.87906" lon="7.68195">
        <ele>261.364</ele>
        <time>2018-03-14T17:47:20Z</time>
      </trkpt>
      <trkpt lat="43.87907" lon="7.68192">
        <ele>261.39</ele>
        <time>2018-03-14T17:47:23Z</time>
      </trkpt>
      <trkpt lat="43.87907" lon="7.68186">
        <ele>261.292</ele>
        <time>2018-03-14T17:47:25Z</time>
      </trkpt>
      <trkpt lat="43.87908" lon="7.68179">
        <ele>261.318</ele>
        <time>2018-03-14T17:47:28Z</time>
      </trkpt>
      <trkpt lat="43.8791" lon="7.68175">
        <ele>261.31</ele>
        <time>2018-03-14T17:47:31Z</time>
      </trkpt>
      <trkpt lat="43.87911" lon="7.6817">
        <ele>261.232</ele>
        <time>2018-03-14T17:47:33Z</time>
      </trkpt>
      <trkpt lat="43.87914" lon="7.68167">
        <ele>261.261</ele>
        <time>2018-03-14T17:47:36Z</time>
      </trkpt>
      <trkpt lat="43.87915" lon="7.68161">
        <ele>261.436</ele>
        <time>2018-03-14T17:47:45Z</time>
      </trkpt>
      <trkpt lat="43.87917" lon="7.68157">
        <ele>261.235</ele>
        <time>2018-03-14T17:47:47Z</time>
      </trkpt>
      <trkpt lat="43.87919" lon="7.68154">
        <ele>261.034</ele>
        <time>2018-03-14T17:47:49Z</time>
      </trkpt>
      <trkpt lat="43.87919" lon="7.68149">
        <ele>261.056</ele>
        <time>2018-03-14T17:47:51Z</time>
      </trkpt>
      <trkpt lat="43.87922" lon="7.68146">
        <ele>261.042</ele>
        <time>2018-03-14T17:47:53Z</time>
      </trkpt>
      <trkpt lat="43.87924" lon="7.68139">
        <ele>261.028</ele>
        <time>2018-03-14T17:47:56Z</time>
      </trkpt>
      <trkpt lat="43.87925" lon="7.68134">
        <ele>260.867</ele>
        <time>2018-03-14T17:47:59Z</time>
      </trkpt>
      <trkpt lat="43.87928" lon="7.68134">
        <ele>261.354</ele>
        <time>2018-03-14T17:48:09Z</time>
      </trkpt>
      <trkpt lat="43.87929" lon="7.6813">
        <ele>261.575</ele>
        <time>2018-03-14T17:48:11Z</time>
      </trkpt>
      <trkpt lat="43.87931" lon="7.68126">
        <ele>261.681</ele>
        <time>2018-03-14T17:48:13Z</time>
      </trkpt>
      <trkpt lat="43.87933" lon="7.68121">
        <ele>261.816</ele>
        <time>2018-03-14T17:48:15Z</time>
      </trkpt>
      <trkpt lat="43.87937" lon="7.68116">
        <ele>262.022</ele>
        <time>2018-03-14T17:48:17Z</time>
      </trkpt>
      <trkpt lat="43.87941" lon="7.68113">
        <ele>262.182</ele>
        <time>2018-03-14T17:48:19Z</time>
      </trkpt>
      <trkpt lat="43.87942" lon="7.6811">
        <ele>262.337</ele>
        <time>2018-03-14T17:48:21Z</time>
      </trkpt>
      <trkpt lat="43.87945" lon="7.68107">
        <ele>262.418</ele>
        <time>2018-03-14T17:48:23Z</time>
      </trkpt>
      <trkpt lat="43.87947" lon="7.68103">
        <ele>262.643</ele>
        <time>2018-03-14T17:48:27Z</time>
      </trkpt>
      <trkpt lat="43.87953" lon="7.68099">
        <ele>262.903</ele>
        <time>2018-03-14T17:48:30Z</time>
      </trkpt>
      <trkpt lat="43.87956" lon="7.68097">
        <ele>263.084</ele>
        <time>2018-03-14T17:48:32Z</time>
      </trkpt>
      <trkpt lat="43.87957" lon="7.68093">
        <ele>263.213</ele>
        <time>2018-03-14T17:49:07Z</time>
      </trkpt>
      <trkpt lat="43.87956" lon="7.6809">
        <ele>263.152</ele>
        <time>2018-03-14T17:49:12Z</time>
      </trkpt>
      <trkpt lat="43.87955" lon="7.68085">
        <ele>263.017</ele>
        <time>2018-03-14T17:49:17Z</time>
      </trkpt>
      <trkpt lat="43.87957" lon="7.68082">
        <ele>264.139</ele>
        <time>2018-03-14T17:49:35Z</time>
      </trkpt>
      <trkpt lat="43.87961" lon="7.68081">
        <ele>264.313</ele>
        <time>2018-03-14T17:49:37Z</time>
      </trkpt>
      <trkpt lat="43.87964" lon="7.68078">
        <ele>264.314</ele>
        <time>2018-03-14T17:49:39Z</time>
      </trkpt>
      <trkpt lat="43.87968" lon="7.68074">
        <ele>264.379</ele>
        <time>2018-03-14T17:49:41Z</time>
      </trkpt>
      <trkpt lat="43.87971" lon="7.68071">
        <ele>264.333</ele>
        <time>2018-03-14T17:49:43Z</time>
      </trkpt>
      <trkpt lat="43.87973" lon="7.68068">
        <ele>264.409</ele>
        <time>2018-03-14T17:49:45Z</time>
      </trkpt>
      <trkpt lat="43.87974" lon="7.68063">
        <ele>264.348</ele>
        <time>2018-03-14T17:49:47Z</time>
      </trkpt>
      <trkpt lat="43.87976" lon="7.6806">
        <ele>264.261</ele>
        <time>2018-03-14T17:49:49Z</time>
      </trkpt>
      <trkpt lat="43.87978" lon="7.68057">
        <ele>264.123</ele>
        <time>2018-03-14T17:49:51Z</time>
      </trkpt>
      <trkpt lat="43.8798" lon="7.68051">
        <ele>264.307</ele>
        <time>2018-03-14T17:50:01Z</time>
      </trkpt>
      <trkpt lat="43.87982" lon="7.68047">
        <ele>264.563</ele>
        <time>2018-03-14T17:50:03Z</time>
      </trkpt>
      <trkpt lat="43.87983" lon="7.68043">
        <ele>264.594</ele>
        <time>2018-03-14T17:50:05Z</time>
      </trkpt>
      <trkpt lat="43.87984" lon="7.6804">
        <ele>264.623</ele>
        <time>2018-03-14T17:50:07Z</time>
      </trkpt>
      <trkpt lat="43.87985" lon="7.68036">
        <ele>264.732</ele>
        <time>2018-03-14T17:50:09Z</time>
      </trkpt>
      <trkpt lat="43.87987" lon="7.68031">
        <ele>264.776</ele>
        <time>2018-03-14T17:50:12Z</time>
      </trkpt>
      <trkpt lat="43.87989" lon="7.68028">
        <ele>264.504</ele>
        <time>2018-03-14T17:50:15Z</time>
      </trkpt>
      <trkpt lat="43.87991" lon="7.68024">
        <ele>264.249</ele>
        <time>2018-03-14T17:50:17Z</time>
      </trkpt>
      <trkpt lat="43.87992" lon="7.6802">
        <ele>264.196</ele>
        <time>2018-03-14T17:50:19Z</time>
      </trkpt>
      <trkpt lat="43.87994" lon="7.68017">
        <ele>264.121</ele>
        <time>2018-03-14T17:50:21Z</time>
      </trkpt>
      <trkpt lat="43.87997" lon="7.68013">
        <ele>264.115</ele>
        <time>2018-03-14T17:50:23Z</time>
      </trkpt>
      <trkpt lat="43.87998" lon="7.6801">
        <ele>263.972</ele>
        <time>2018-03-14T17:50:25Z</time>
      </trkpt>
      <trkpt lat="43.88" lon="7.68006">
        <ele>263.932</ele>
        <time>2018-03-14T17:50:27Z</time>
      </trkpt>
      <trkpt lat="43.88001" lon="7.68001">
        <ele>264.129</ele>
        <time>2018-03-14T17:50:30Z</time>
      </trkpt>
      <trkpt lat="43.88002" lon="7.67996">
        <ele>264.121</ele>
        <time>2018-03-14T17:50:33Z</time>
      </trkpt>
      <trkpt lat="43.88003" lon="7.67992">
        <ele>264.072</ele>
        <time>2018-03-14T17:50:35Z</time>
      </trkpt>
      <trkpt lat="43.88005" lon="7.67989">
        <ele>264.001</ele>
        <time>2018-03-14T17:50:37Z</time>
      </trkpt>
      <trkpt lat="43.88007" lon="7.67986">
        <ele>263.852</ele>
        <time>2018-03-14T17:50:39Z</time>
      </trkpt>
      <trkpt lat="43.88007" lon="7.67981">
        <ele>263.798</ele>
        <time>2018-03-14T17:50:41Z</time>
      </trkpt>
      <trkpt lat="43.88008" lon="7.67974">
        <ele>263.494</ele>
        <time>2018-03-14T17:50:57Z</time>
      </trkpt>
      <trkpt lat="43.88008" lon="7.6797">
        <ele>263.078</ele>
        <time>2018-03-14T17:51:08Z</time>
      </trkpt>
      <trkpt lat="43.88009" lon="7.67965">
        <ele>262.902</ele>
        <time>2018-03-14T17:51:10Z</time>
      </trkpt>
      <trkpt lat="43.88009" lon="7.67961">
        <ele>262.855</ele>
        <time>2018-03-14T17:51:13Z</time>
      </trkpt>
      <trkpt lat="43.88007" lon="7.67958">
        <ele>262.619</ele>
        <time>2018-03-14T17:51:16Z</time>
      </trkpt>
      <trkpt lat="43.88005" lon="7.67954">
        <ele>262.485</ele>
        <time>2018-03-14T17:51:20Z</time>
      </trkpt>
      <trkpt lat="43.88005" lon="7.67948">
        <ele>262.408</ele>
        <time>2018-03-14T17:51:22Z</time>
      </trkpt>
      <trkpt lat="43.88005" lon="7.67944">
        <ele>262.347</ele>
        <time>2018-03-14T17:51:23Z</time>
      </trkpt>
      <trkpt lat="43.88003" lon="7.67939">
        <ele>262.286</ele>
        <time>2018-03-14T17:51:25Z</time>
      </trkpt>
      <trkpt lat="43.88004" lon="7.67933">
        <ele>262.281</ele>
        <time>2018-03-14T17:51:28Z</time>
      </trkpt>
      <trkpt lat="43.88005" lon="7.67928">
        <ele>262.145</ele>
        <time>2018-03-14T17:51:30Z</time>
      </trkpt>
      <trkpt lat="43.88008" lon="7.67925">
        <ele>261.854</ele>
        <time>2018-03-14T17:51:33Z</time>
      </trkpt>
      <trkpt lat="43.88009" lon="7.67919">
        <ele>261.864</ele>
        <time>2018-03-14T17:51:36Z</time>
      </trkpt>
      <trkpt lat="43.88008" lon="7.67915">
        <ele>261.832</ele>
        <time>2018-03-14T17:51:38Z</time>
      </trkpt>
      <trkpt lat="43.88008" lon="7.6791">
        <ele>261.704</ele>
        <time>2018-03-14T17:51:40Z</time>
      </trkpt>
      <trkpt lat="43.88008" lon="7.67906">
        <ele>261.57</ele>
        <time>2018-03-14T17:51:42Z</time>
      </trkpt>
      <trkpt lat="43.88007" lon="7.679">
        <ele>261.516</ele>
        <time>2018-03-14T17:51:46Z</time>
      </trkpt>
      <trkpt lat="43.88007" lon="7.67896">
        <ele>261.401</ele>
        <time>2018-03-14T17:51:49Z</time>
      </trkpt>
      <trkpt lat="43.88007" lon="7.67891">
        <ele>261.292</ele>
        <time>2018-03-14T17:51:52Z</time>
      </trkpt>
      <trkpt lat="43.88006" lon="7.67887">
        <ele>261.305</ele>
        <time>2018-03-14T17:51:54Z</time>
      </trkpt>
      <trkpt lat="43.88006" lon="7.67883">
        <ele>261.221</ele>
        <time>2018-03-14T17:51:56Z</time>
      </trkpt>
      <trkpt lat="43.88006" lon="7.67877">
        <ele>261.191</ele>
        <time>2018-03-14T17:51:59Z</time>
      </trkpt>
      <trkpt lat="43.88006" lon="7.67873">
        <ele>261.145</ele>
        <time>2018-03-14T17:52:01Z</time>
      </trkpt>
      <trkpt lat="43.88005" lon="7.67865">
        <ele>261.103</ele>
        <time>2018-03-14T17:52:05Z</time>
      </trkpt>
      <trkpt lat="43.88005" lon="7.67861">
        <ele>260.879</ele>
        <time>2018-03-14T17:52:07Z</time>
      </trkpt>
      <trkpt lat="43.88004" lon="7.67855">
        <ele>260.734</ele>
        <time>2018-03-14T17:52:11Z</time>
      </trkpt>
      <trkpt lat="43.88005" lon="7.6785">
        <ele>260.501</ele>
        <time>2018-03-14T17:52:16Z</time>
      </trkpt>
      <trkpt lat="43.88005" lon="7.67841">
        <ele>260.307</ele>
        <time>2018-03-14T17:52:19Z</time>
      </trkpt>
      <trkpt lat="43.88005" lon="7.67837">
        <ele>260.113</ele>
        <time>2018-03-14T17:52:21Z</time>
      </trkpt>
      <trkpt lat="43.88005" lon="7.67833">
        <ele>259.93</ele>
        <time>2018-03-14T17:52:23Z</time>
      </trkpt>
      <trkpt lat="43.88005" lon="7.67828">
        <ele>259.86</ele>
        <time>2018-03-14T17:52:26Z</time>
      </trkpt>
      <trkpt lat="43.88005" lon="7.67823">
        <ele>259.655</ele>
        <time>2018-03-14T17:52:29Z</time>
      </trkpt>
      <trkpt lat="43.88005" lon="7.67816">
        <ele>259.502</ele>
        <time>2018-03-14T17:52:32Z</time>
      </trkpt>
      <trkpt lat="43.88004" lon="7.6781">
        <ele>259.394</ele>
        <time>2018-03-14T17:52:34Z</time>
      </trkpt>
      <trkpt lat="43.88004" lon="7.67807">
        <ele>259.343</ele>
        <time>2018-03-14T17:52:36Z</time>
      </trkpt>
      <trkpt lat="43.88003" lon="7.67803">
        <ele>259.291</ele>
        <time>2018-03-14T17:52:38Z</time>
      </trkpt>
      <trkpt lat="43.88001" lon="7.67799">
        <ele>259.068</ele>
        <time>2018-03-14T17:52:42Z</time>
      </trkpt>
      <trkpt lat="43.88" lon="7.67796">
        <ele>259.115</ele>
        <time>2018-03-14T17:52:44Z</time>
      </trkpt>
      <trkpt lat="43.87998" lon="7.67793">
        <ele>259.52</ele>
        <time>2018-03-14T17:53:10Z</time>
      </trkpt>
      <trkpt lat="43.87998" lon="7.67787">
        <ele>259.292</ele>
        <time>2018-03-14T17:53:14Z</time>
      </trkpt>
      <trkpt lat="43.87997" lon="7.67783">
        <ele>259.264</ele>
        <time>2018-03-14T17:53:16Z</time>
      </trkpt>
      <trkpt lat="43.87998" lon="7.67779">
        <ele>259.18</ele>
        <time>2018-03-14T17:53:18Z</time>
      </trkpt>
      <trkpt lat="43.87998" lon="7.67775">
        <ele>259</ele>
        <time>2018-03-14T17:53:21Z</time>
      </trkpt>
      <trkpt lat="43.87998" lon="7.6777">
        <ele>258.931</ele>
        <time>2018-03-14T17:53:23Z</time>
      </trkpt>
      <trkpt lat="43.87998" lon="7.67764">
        <ele>258.784</ele>
        <time>2018-03-14T17:53:26Z</time>
      </trkpt>
      <trkpt lat="43.87997" lon="7.67758">
        <ele>258.725</ele>
        <time>2018-03-14T17:53:29Z</time>
      </trkpt>
      <trkpt lat="43.87998" lon="7.67754">
        <ele>258.517</ele>
        <time>2018-03-14T17:53:31Z</time>
      </trkpt>
      <trkpt lat="43.87998" lon="7.6775">
        <ele>258.292</ele>
        <time>2018-03-14T17:53:34Z</time>
      </trkpt>
      <trkpt lat="43.87997" lon="7.67746">
        <ele>258.168</ele>
        <time>2018-03-14T17:53:36Z</time>
      </trkpt>
      <trkpt lat="43.87997" lon="7.67741">
        <ele>258.122</ele>
        <time>2018-03-14T17:53:38Z</time>
      </trkpt>
      <trkpt lat="43.87997" lon="7.67737">
        <ele>258.045</ele>
        <time>2018-03-14T17:53:41Z</time>
      </trkpt>
      <trkpt lat="43.87998" lon="7.67733">
        <ele>257.947</ele>
        <time>2018-03-14T17:53:43Z</time>
      </trkpt>
      <trkpt lat="43.87999" lon="7.67729">
        <ele>257.859</ele>
        <time>2018-03-14T17:53:45Z</time>
      </trkpt>
      <trkpt lat="43.88" lon="7.67725">
        <ele>257.859</ele>
        <time>2018-03-14T17:53:47Z</time>
      </trkpt>
      <trkpt lat="43.88001" lon="7.67721">
        <ele>257.951</ele>
        <time>2018-03-14T17:53:49Z</time>
      </trkpt>
      <trkpt lat="43.88001" lon="7.67725">
        <ele>257.617</ele>
        <time>2018-03-14T17:53:53Z</time>
      </trkpt>
      <trkpt lat="43.87998" lon="7.67724">
        <ele>256.848</ele>
        <time>2018-03-14T17:54:02Z</time>
      </trkpt>
      <trkpt lat="43.88" lon="7.67721">
        <ele>256.081</ele>
        <time>2018-03-14T17:54:11Z</time>
      </trkpt>
      <trkpt lat="43.87999" lon="7.67716">
        <ele>256.191</ele>
        <time>2018-03-14T17:54:17Z</time>
      </trkpt>
      <trkpt lat="43.87999" lon="7.67712">
        <ele>256.079</ele>
        <time>2018-03-14T17:54:22Z</time>
      </trkpt>
      <trkpt lat="43.88002" lon="7.67704">
        <ele>256.273</ele>
        <time>2018-03-14T17:54:43Z</time>
      </trkpt>
      <trkpt lat="43.88003" lon="7.677">
        <ele>256.279</ele>
        <time>2018-03-14T17:54:47Z</time>
      </trkpt>
      <trkpt lat="43.88004" lon="7.67695">
        <ele>256.061</ele>
        <time>2018-03-14T17:54:49Z</time>
      </trkpt>
      <trkpt lat="43.88006" lon="7.67691">
        <ele>255.775</ele>
        <time>2018-03-14T17:54:52Z</time>
      </trkpt>
      <trkpt lat="43.88007" lon="7.67687">
        <ele>255.666</ele>
        <time>2018-03-14T17:54:54Z</time>
      </trkpt>
      <trkpt lat="43.88008" lon="7.67682">
        <ele>255.527</ele>
        <time>2018-03-14T17:54:56Z</time>
      </trkpt>
      <trkpt lat="43.8801" lon="7.67676">
        <ele>255.331</ele>
        <time>2018-03-14T17:54:59Z</time>
      </trkpt>
      <trkpt lat="43.88011" lon="7.67673">
        <ele>255.276</ele>
        <time>2018-03-14T17:55:01Z</time>
      </trkpt>
      <trkpt lat="43.88012" lon="7.67668">
        <ele>255.15</ele>
        <time>2018-03-14T17:55:03Z</time>
      </trkpt>
      <trkpt lat="43.88014" lon="7.67664">
        <ele>255.073</ele>
        <time>2018-03-14T17:55:06Z</time>
      </trkpt>
      <trkpt lat="43.88015" lon="7.67659">
        <ele>254.768</ele>
        <time>2018-03-14T17:55:09Z</time>
      </trkpt>
      <trkpt lat="43.88015" lon="7.67655">
        <ele>254.601</ele>
        <time>2018-03-14T17:55:11Z</time>
      </trkpt>
      <trkpt lat="43.88015" lon="7.67651">
        <ele>254.358</ele>
        <time>2018-03-14T17:55:16Z</time>
      </trkpt>
      <trkpt lat="43.88013" lon="7.67649">
        <ele>254.098</ele>
        <time>2018-03-14T17:55:25Z</time>
      </trkpt>
      <trkpt lat="43.88012" lon="7.67644">
        <ele>253.494</ele>
        <time>2018-03-14T17:55:29Z</time>
      </trkpt>
      <trkpt lat="43.88013" lon="7.6764">
        <ele>252.912</ele>
        <time>2018-03-14T17:55:33Z</time>
      </trkpt>
      <trkpt lat="43.88014" lon="7.67636">
        <ele>252.843</ele>
        <time>2018-03-14T17:55:35Z</time>
      </trkpt>
      <trkpt lat="43.88014" lon="7.67632">
        <ele>252.717</ele>
        <time>2018-03-14T17:55:37Z</time>
      </trkpt>
      <trkpt lat="43.88015" lon="7.67628">
        <ele>252.483</ele>
        <time>2018-03-14T17:55:39Z</time>
      </trkpt>
      <trkpt lat="43.88016" lon="7.67624">
        <ele>252.225</ele>
        <time>2018-03-14T17:55:48Z</time>
      </trkpt>
      <trkpt lat="43.88014" lon="7.67622">
        <ele>251.721</ele>
        <time>2018-03-14T17:55:57Z</time>
      </trkpt>
      <trkpt lat="43.88014" lon="7.67618">
        <ele>251.378</ele>
        <time>2018-03-14T17:56:01Z</time>
      </trkpt>
      <trkpt lat="43.88013" lon="7.67612">
        <ele>251.389</ele>
        <time>2018-03-14T17:56:03Z</time>
      </trkpt>
      <trkpt lat="43.88013" lon="7.67607">
        <ele>251.408</ele>
        <time>2018-03-14T17:56:06Z</time>
      </trkpt>
      <trkpt lat="43.88013" lon="7.67601">
        <ele>251.033</ele>
        <time>2018-03-14T17:56:09Z</time>
      </trkpt>
      <trkpt lat="43.88014" lon="7.67598">
        <ele>250.695</ele>
        <time>2018-03-14T17:56:11Z</time>
      </trkpt>
      <trkpt lat="43.88016" lon="7.67593">
        <ele>250.524</ele>
        <time>2018-03-14T17:56:14Z</time>
      </trkpt>
      <trkpt lat="43.88018" lon="7.67589">
        <ele>250.32</ele>
        <time>2018-03-14T17:56:18Z</time>
      </trkpt>
      <trkpt lat="43.88019" lon="7.67585">
        <ele>250.103</ele>
        <time>2018-03-14T17:56:20Z</time>
      </trkpt>
      <trkpt lat="43.8802" lon="7.67581">
        <ele>249.832</ele>
        <time>2018-03-14T17:56:22Z</time>
      </trkpt>
      <trkpt lat="43.8802" lon="7.67577">
        <ele>249.606</ele>
        <time>2018-03-14T17:56:24Z</time>
      </trkpt>
      <trkpt lat="43.88021" lon="7.67573">
        <ele>249.302</ele>
        <time>2018-03-14T17:56:26Z</time>
      </trkpt>
      <trkpt lat="43.88022" lon="7.67569">
        <ele>248.909</ele>
        <time>2018-03-14T17:56:29Z</time>
      </trkpt>
      <trkpt lat="43.88022" lon="7.67564">
        <ele>248.791</ele>
        <time>2018-03-14T17:56:31Z</time>
      </trkpt>
      <trkpt lat="43.88022" lon="7.67559">
        <ele>248.618</ele>
        <time>2018-03-14T17:56:33Z</time>
      </trkpt>
      <trkpt lat="43.88023" lon="7.67555">
        <ele>248.497</ele>
        <time>2018-03-14T17:56:35Z</time>
      </trkpt>
      <trkpt lat="43.88023" lon="7.67552">
        <ele>248.239</ele>
        <time>2018-03-14T17:56:37Z</time>
      </trkpt>
      <trkpt lat="43.88024" lon="7.67546">
        <ele>248.104</ele>
        <time>2018-03-14T17:56:40Z</time>
      </trkpt>
      <trkpt lat="43.88025" lon="7.6754">
        <ele>247.928</ele>
        <time>2018-03-14T17:56:43Z</time>
      </trkpt>
      <trkpt lat="43.88025" lon="7.67535">
        <ele>247.813</ele>
        <time>2018-03-14T17:56:45Z</time>
      </trkpt>
      <trkpt lat="43.88026" lon="7.67531">
        <ele>247.731</ele>
        <time>2018-03-14T17:56:47Z</time>
      </trkpt>
      <trkpt lat="43.88026" lon="7.67527">
        <ele>247.602</ele>
        <time>2018-03-14T17:56:49Z</time>
      </trkpt>
      <trkpt lat="43.88026" lon="7.67522">
        <ele>247.226</ele>
        <time>2018-03-14T17:56:52Z</time>
      </trkpt>
      <trkpt lat="43.88027" lon="7.67517">
        <ele>247.057</ele>
        <time>2018-03-14T17:56:54Z</time>
      </trkpt>
      <trkpt lat="43.88027" lon="7.67513">
        <ele>246.74</ele>
        <time>2018-03-14T17:56:57Z</time>
      </trkpt>
      <trkpt lat="43.88027" lon="7.67509">
        <ele>246.542</ele>
        <time>2018-03-14T17:56:59Z</time>
      </trkpt>
      <trkpt lat="43.88026" lon="7.67501">
        <ele>245.665</ele>
        <time>2018-03-14T17:57:07Z</time>
      </trkpt>
      <trkpt lat="43.88026" lon="7.67497">
        <ele>245.472</ele>
        <time>2018-03-14T17:57:09Z</time>
      </trkpt>
      <trkpt lat="43.88026" lon="7.67492">
        <ele>245.213</ele>
        <time>2018-03-14T17:57:13Z</time>
      </trkpt>
      <trkpt lat="43.88027" lon="7.67486">
        <ele>244.987</ele>
        <time>2018-03-14T17:57:16Z</time>
      </trkpt>
      <trkpt lat="43.88027" lon="7.67481">
        <ele>244.819</ele>
        <time>2018-03-14T17:57:18Z</time>
      </trkpt>
      <trkpt lat="43.88028" lon="7.67477">
        <ele>244.73</ele>
        <time>2018-03-14T17:57:20Z</time>
      </trkpt>
      <trkpt lat="43.88028" lon="7.67471">
        <ele>244.591</ele>
        <time>2018-03-14T17:57:22Z</time>
      </trkpt>
      <trkpt lat="43.88027" lon="7.67468">
        <ele>244.419</ele>
        <time>2018-03-14T17:57:24Z</time>
      </trkpt>
      <trkpt lat="43.88026" lon="7.67462">
        <ele>244.288</ele>
        <time>2018-03-14T17:57:26Z</time>
      </trkpt>
      <trkpt lat="43.88026" lon="7.67458">
        <ele>244.199</ele>
        <time>2018-03-14T17:57:28Z</time>
      </trkpt>
      <trkpt lat="43.88026" lon="7.67454">
        <ele>244.053</ele>
        <time>2018-03-14T17:57:31Z</time>
      </trkpt>
      <trkpt lat="43.88028" lon="7.6745">
        <ele>241.811</ele>
        <time>2018-03-14T17:58:14Z</time>
      </trkpt>
      <trkpt lat="43.88028" lon="7.67446">
        <ele>241.581</ele>
        <time>2018-03-14T17:58:17Z</time>
      </trkpt>
      <trkpt lat="43.88028" lon="7.67441">
        <ele>241.511</ele>
        <time>2018-03-14T17:58:21Z</time>
      </trkpt>
      <trkpt lat="43.88029" lon="7.67434">
        <ele>241.728</ele>
        <time>2018-03-14T17:58:23Z</time>
      </trkpt>
      <trkpt lat="43.8803" lon="7.67425">
        <ele>242.829</ele>
        <time>2018-03-14T17:58:28Z</time>
      </trkpt>
      <trkpt lat="43.88028" lon="7.67422">
        <ele>241.33</ele>
        <time>2018-03-14T17:58:37Z</time>
      </trkpt>
      <trkpt lat="43.88027" lon="7.67417">
        <ele>239.805</ele>
        <time>2018-03-14T17:58:41Z</time>
      </trkpt>
      <trkpt lat="43.88026" lon="7.67412">
        <ele>239.696</ele>
        <time>2018-03-14T17:58:43Z</time>
      </trkpt>
      <trkpt lat="43.88026" lon="7.67406">
        <ele>239.802</ele>
        <time>2018-03-14T17:58:45Z</time>
      </trkpt>
      <trkpt lat="43.88025" lon="7.674">
        <ele>240.003</ele>
        <time>2018-03-14T17:58:47Z</time>
      </trkpt>
      <trkpt lat="43.88024" lon="7.67395">
        <ele>240.083</ele>
        <time>2018-03-14T17:58:49Z</time>
      </trkpt>
      <trkpt lat="43.88023" lon="7.6739">
        <ele>240.328</ele>
        <time>2018-03-14T17:58:51Z</time>
      </trkpt>
      <trkpt lat="43.88022" lon="7.67386">
        <ele>240.544</ele>
        <time>2018-03-14T17:58:53Z</time>
      </trkpt>
      <trkpt lat="43.88022" lon="7.67382">
        <ele>241.017</ele>
        <time>2018-03-14T17:59:00Z</time>
      </trkpt>
      <trkpt lat="43.88018" lon="7.67374">
        <ele>241.235</ele>
        <time>2018-03-14T17:59:02Z</time>
      </trkpt>
      <trkpt lat="43.88014" lon="7.67365">
        <ele>241.398</ele>
        <time>2018-03-14T17:59:05Z</time>
      </trkpt>
      <trkpt lat="43.88012" lon="7.67362">
        <ele>241.566</ele>
        <time>2018-03-14T17:59:07Z</time>
      </trkpt>
      <trkpt lat="43.8801" lon="7.67358">
        <ele>241.832</ele>
        <time>2018-03-14T17:59:10Z</time>
      </trkpt>
      <trkpt lat="43.88009" lon="7.67355">
        <ele>241.955</ele>
        <time>2018-03-14T17:59:12Z</time>
      </trkpt>
      <trkpt lat="43.88008" lon="7.67349">
        <ele>242.027</ele>
        <time>2018-03-14T17:59:15Z</time>
      </trkpt>
      <trkpt lat="43.88007" lon="7.67345">
        <ele>242.043</ele>
        <time>2018-03-14T17:59:22Z</time>
      </trkpt>
      <trkpt lat="43.88005" lon="7.67342">
        <ele>242.017</ele>
        <time>2018-03-14T17:59:29Z</time>
      </trkpt>
      <trkpt lat="43.88002" lon="7.67339">
        <ele>241.403</ele>
        <time>2018-03-14T17:59:34Z</time>
      </trkpt>
      <trkpt lat="43.88001" lon="7.67335">
        <ele>241.464</ele>
        <time>2018-03-14T17:59:37Z</time>
      </trkpt>
      <trkpt lat="43.87999" lon="7.6733">
        <ele>241.487</ele>
        <time>2018-03-14T17:59:40Z</time>
      </trkpt>
      <trkpt lat="43.87999" lon="7.67326">
        <ele>241.458</ele>
        <time>2018-03-14T17:59:42Z</time>
      </trkpt>
      <trkpt lat="43.87998" lon="7.67321">
        <ele>241.532</ele>
        <time>2018-03-14T17:59:44Z</time>
      </trkpt>
      <trkpt lat="43.87997" lon="7.67317">
        <ele>241.979</ele>
        <time>2018-03-14T17:59:47Z</time>
      </trkpt>
      <trkpt lat="43.87997" lon="7.67312">
        <ele>242.342</ele>
        <time>2018-03-14T17:59:49Z</time>
      </trkpt>
      <trkpt lat="43.87996" lon="7.67308">
        <ele>242.584</ele>
        <time>2018-03-14T17:59:51Z</time>
      </trkpt>
      <trkpt lat="43.87995" lon="7.67304">
        <ele>242.942</ele>
        <time>2018-03-14T18:00:02Z</time>
      </trkpt>
      <trkpt lat="43.87996" lon="7.673">
        <ele>243.045</ele>
        <time>2018-03-14T18:00:04Z</time>
      </trkpt>
      <trkpt lat="43.87996" lon="7.67295">
        <ele>243.239</ele>
        <time>2018-03-14T18:00:06Z</time>
      </trkpt>
      <trkpt lat="43.87998" lon="7.67289">
        <ele>243.311</ele>
        <time>2018-03-14T18:00:08Z</time>
      </trkpt>
      <trkpt lat="43.87999" lon="7.67284">
        <ele>243.531</ele>
        <time>2018-03-14T18:00:10Z</time>
      </trkpt>
      <trkpt lat="43.87998" lon="7.67279">
        <ele>243.785</ele>
        <time>2018-03-14T18:00:12Z</time>
      </trkpt>
      <trkpt lat="43.87998" lon="7.67274">
        <ele>244.161</ele>
        <time>2018-03-14T18:00:15Z</time>
      </trkpt>
      <trkpt lat="43.87999" lon="7.67269">
        <ele>244.387</ele>
        <time>2018-03-14T18:00:18Z</time>
      </trkpt>
      <trkpt lat="43.88" lon="7.67265">
        <ele>244.482</ele>
        <time>2018-03-14T18:00:20Z</time>
      </trkpt>
      <trkpt lat="43.88001" lon="7.6726">
        <ele>244.621</ele>
        <time>2018-03-14T18:00:22Z</time>
      </trkpt>
      <trkpt lat="43.88001" lon="7.67254">
        <ele>244.876</ele>
        <time>2018-03-14T18:00:24Z</time>
      </trkpt>
      <trkpt lat="43.88002" lon="7.6725">
        <ele>245.155</ele>
        <time>2018-03-14T18:00:26Z</time>
      </trkpt>
      <trkpt lat="43.88003" lon="7.67246">
        <ele>245.436</ele>
        <time>2018-03-14T18:00:29Z</time>
      </trkpt>
      <trkpt lat="43.88004" lon="7.67242">
        <ele>245.666</ele>
        <time>2018-03-14T18:00:31Z</time>
      </trkpt>
      <trkpt lat="43.88006" lon="7.67239">
        <ele>245.78</ele>
        <time>2018-03-14T18:00:33Z</time>
      </trkpt>
      <trkpt lat="43.88007" lon="7.67234">
        <ele>245.964</ele>
        <time>2018-03-14T18:00:40Z</time>
      </trkpt>
      <trkpt lat="43.88009" lon="7.6723">
        <ele>246.136</ele>
        <time>2018-03-14T18:00:42Z</time>
      </trkpt>
      <trkpt lat="43.88011" lon="7.67225">
        <ele>246.451</ele>
        <time>2018-03-14T18:00:44Z</time>
      </trkpt>
      <trkpt lat="43.88012" lon="7.6722">
        <ele>246.979</ele>
        <time>2018-03-14T18:00:47Z</time>
      </trkpt>
      <trkpt lat="43.88011" lon="7.67215">
        <ele>247.256</ele>
        <time>2018-03-14T18:00:49Z</time>
      </trkpt>
      <trkpt lat="43.88011" lon="7.67211">
        <ele>247.561</ele>
        <time>2018-03-14T18:00:51Z</time>
      </trkpt>
      <trkpt lat="43.88012" lon="7.67207">
        <ele>247.918</ele>
        <time>2018-03-14T18:00:53Z</time>
      </trkpt>
      <trkpt lat="43.88017" lon="7.672">
        <ele>248.5</ele>
        <time>2018-03-14T18:00:56Z</time>
      </trkpt>
      <trkpt lat="43.88019" lon="7.67195">
        <ele>248.644</ele>
        <time>2018-03-14T18:00:58Z</time>
      </trkpt>
      <trkpt lat="43.88021" lon="7.67191">
        <ele>248.961</ele>
        <time>2018-03-14T18:01:01Z</time>
      </trkpt>
      <trkpt lat="43.88021" lon="7.67188">
        <ele>249.67</ele>
        <time>2018-03-14T18:01:10Z</time>
      </trkpt>
      <trkpt lat="43.88021" lon="7.67184">
        <ele>251.1</ele>
        <time>2018-03-14T18:01:16Z</time>
      </trkpt>
      <trkpt lat="43.8802" lon="7.67179">
        <ele>251.731</ele>
        <time>2018-03-14T18:01:18Z</time>
      </trkpt>
      <trkpt lat="43.88016" lon="7.67172">
        <ele>252.364</ele>
        <time>2018-03-14T18:01:21Z</time>
      </trkpt>
      <trkpt lat="43.88014" lon="7.67169">
        <ele>252.989</ele>
        <time>2018-03-14T18:01:24Z</time>
      </trkpt>
      <trkpt lat="43.88012" lon="7.67166">
        <ele>253.261</ele>
        <time>2018-03-14T18:01:26Z</time>
      </trkpt>
      <trkpt lat="43.88009" lon="7.67163">
        <ele>253.757</ele>
        <time>2018-03-14T18:01:29Z</time>
      </trkpt>
      <trkpt lat="43.88007" lon="7.67158">
        <ele>253.993</ele>
        <time>2018-03-14T18:01:31Z</time>
      </trkpt>
      <trkpt lat="43.88006" lon="7.67154">
        <ele>254.11</ele>
        <time>2018-03-14T18:01:33Z</time>
      </trkpt>
      <trkpt lat="43.88005" lon="7.67148">
        <ele>254.357</ele>
        <time>2018-03-14T18:01:36Z</time>
      </trkpt>
      <trkpt lat="43.88005" lon="7.67144">
        <ele>254.393</ele>
        <time>2018-03-14T18:01:38Z</time>
      </trkpt>
      <trkpt lat="43.88005" lon="7.6714">
        <ele>254.544</ele>
        <time>2018-03-14T18:01:40Z</time>
      </trkpt>
      <trkpt lat="43.88004" lon="7.67136">
        <ele>254.791</ele>
        <time>2018-03-14T18:01:42Z</time>
      </trkpt>
      <trkpt lat="43.88006" lon="7.67132">
        <ele>255.873</ele>
        <time>2018-03-14T18:01:55Z</time>
      </trkpt>
      <trkpt lat="43.88007" lon="7.67127">
        <ele>256.272</ele>
        <time>2018-03-14T18:01:57Z</time>
      </trkpt>
      <trkpt lat="43.88007" lon="7.67122">
        <ele>256.655</ele>
        <time>2018-03-14T18:01:59Z</time>
      </trkpt>
      <trkpt lat="43.88008" lon="7.67118">
        <ele>257.14</ele>
        <time>2018-03-14T18:02:01Z</time>
      </trkpt>
      <trkpt lat="43.88007" lon="7.67114">
        <ele>257.813</ele>
        <time>2018-03-14T18:02:04Z</time>
      </trkpt>
      <trkpt lat="43.88006" lon="7.6711">
        <ele>258.596</ele>
        <time>2018-03-14T18:02:07Z</time>
      </trkpt>
      <trkpt lat="43.88005" lon="7.67104">
        <ele>259.328</ele>
        <time>2018-03-14T18:02:10Z</time>
      </trkpt>
      <trkpt lat="43.88003" lon="7.67099">
        <ele>259.693</ele>
        <time>2018-03-14T18:02:12Z</time>
      </trkpt>
      <trkpt lat="43.88001" lon="7.67096">
        <ele>259.955</ele>
        <time>2018-03-14T18:02:14Z</time>
      </trkpt>
      <trkpt lat="43.87999" lon="7.67094">
        <ele>258.988</ele>
        <time>2018-03-14T18:02:26Z</time>
      </trkpt>
      <trkpt lat="43.87996" lon="7.6709">
        <ele>258.327</ele>
        <time>2018-03-14T18:02:35Z</time>
      </trkpt>
      <trkpt lat="43.87992" lon="7.6709">
        <ele>257.976</ele>
        <time>2018-03-14T18:02:38Z</time>
      </trkpt>
      <trkpt lat="43.87987" lon="7.67089">
        <ele>257.766</ele>
        <time>2018-03-14T18:02:40Z</time>
      </trkpt>
      <trkpt lat="43.87984" lon="7.67087">
        <ele>257.69</ele>
        <time>2018-03-14T18:02:42Z</time>
      </trkpt>
      <trkpt lat="43.8798" lon="7.67085">
        <ele>257.215</ele>
        <time>2018-03-14T18:02:46Z</time>
      </trkpt>
      <trkpt lat="43.87977" lon="7.67083">
        <ele>257.007</ele>
        <time>2018-03-14T18:02:48Z</time>
      </trkpt>
      <trkpt lat="43.87974" lon="7.6708">
        <ele>256.723</ele>
        <time>2018-03-14T18:02:50Z</time>
      </trkpt>
      <trkpt lat="43.87973" lon="7.67076">
        <ele>256.398</ele>
        <time>2018-03-14T18:02:52Z</time>
      </trkpt>
      <trkpt lat="43.8797" lon="7.67073">
        <ele>256.189</ele>
        <time>2018-03-14T18:02:54Z</time>
      </trkpt>
      <trkpt lat="43.87968" lon="7.6707">
        <ele>256.186</ele>
        <time>2018-03-14T18:02:56Z</time>
      </trkpt>
      <trkpt lat="43.87966" lon="7.67066">
        <ele>256.151</ele>
        <time>2018-03-14T18:02:58Z</time>
      </trkpt>
      <trkpt lat="43.87962" lon="7.67063">
        <ele>256.1</ele>
        <time>2018-03-14T18:03:00Z</time>
      </trkpt>
      <trkpt lat="43.8796" lon="7.6706">
        <ele>256.297</ele>
        <time>2018-03-14T18:03:03Z</time>
      </trkpt>
      <trkpt lat="43.87957" lon="7.6706">
        <ele>257.715</ele>
        <time>2018-03-14T18:03:16Z</time>
      </trkpt>
      <trkpt lat="43.87955" lon="7.67056">
        <ele>259.963</ele>
        <time>2018-03-14T18:03:33Z</time>
      </trkpt>
      <trkpt lat="43.87953" lon="7.67052">
        <ele>259.538</ele>
        <time>2018-03-14T18:03:42Z</time>
      </trkpt>
      <trkpt lat="43.87951" lon="7.67048">
        <ele>259.474</ele>
        <time>2018-03-14T18:03:45Z</time>
      </trkpt>
      <trkpt lat="43.87951" lon="7.67043">
        <ele>259.491</ele>
        <time>2018-03-14T18:03:47Z</time>
      </trkpt>
      <trkpt lat="43.8795" lon="7.67039">
        <ele>259.5</ele>
        <time>2018-03-14T18:03:49Z</time>
      </trkpt>
      <trkpt lat="43.87949" lon="7.67036">
        <ele>259.496</ele>
        <time>2018-03-14T18:03:52Z</time>
      </trkpt>
      <trkpt lat="43.87949" lon="7.6703">
        <ele>259.596</ele>
        <time>2018-03-14T18:03:55Z</time>
      </trkpt>
      <trkpt lat="43.87947" lon="7.67027">
        <ele>259.714</ele>
        <time>2018-03-14T18:03:57Z</time>
      </trkpt>
      <trkpt lat="43.87947" lon="7.67022">
        <ele>259.826</ele>
        <time>2018-03-14T18:03:59Z</time>
      </trkpt>
      <trkpt lat="43.87947" lon="7.67017">
        <ele>259.916</ele>
        <time>2018-03-14T18:04:02Z</time>
      </trkpt>
      <trkpt lat="43.87946" lon="7.67013">
        <ele>259.911</ele>
        <time>2018-03-14T18:04:04Z</time>
      </trkpt>
      <trkpt lat="43.87946" lon="7.67007">
        <ele>260.302</ele>
        <time>2018-03-14T18:04:07Z</time>
      </trkpt>
      <trkpt lat="43.87946" lon="7.67002">
        <ele>260.991</ele>
        <time>2018-03-14T18:04:11Z</time>
      </trkpt>
      <trkpt lat="43.87946" lon="7.66995">
        <ele>262.118</ele>
        <time>2018-03-14T18:04:20Z</time>
      </trkpt>
      <trkpt lat="43.87945" lon="7.66991">
        <ele>262.4</ele>
        <time>2018-03-14T18:04:22Z</time>
      </trkpt>
      <trkpt lat="43.87944" lon="7.66986">
        <ele>262.698</ele>
        <time>2018-03-14T18:04:24Z</time>
      </trkpt>
      <trkpt lat="43.87943" lon="7.66982">
        <ele>263.262</ele>
        <time>2018-03-14T18:04:27Z</time>
      </trkpt>
      <trkpt lat="43.8794" lon="7.6698">
        <ele>263.796</ele>
        <time>2018-03-14T18:04:30Z</time>
      </trkpt>
      <trkpt lat="43.87938" lon="7.66978">
        <ele>264.02</ele>
        <time>2018-03-14T18:04:41Z</time>
      </trkpt>
      <trkpt lat="43.87938" lon="7.66984">
        <ele>261.767</ele>
        <time>2018-03-14T18:04:54Z</time>
      </trkpt>
      <trkpt lat="43.87936" lon="7.66981">
        <ele>260.4</ele>
        <time>2018-03-14T18:04:59Z</time>
      </trkpt>
      <trkpt lat="43.87937" lon="7.66977">
        <ele>260.259</ele>
        <time>2018-03-14T18:05:01Z</time>
      </trkpt>
      <trkpt lat="43.87937" lon="7.66973">
        <ele>260.238</ele>
        <time>2018-03-14T18:05:03Z</time>
      </trkpt>
      <trkpt lat="43.87936" lon="7.66968">
        <ele>260.232</ele>
        <time>2018-03-14T18:05:05Z</time>
      </trkpt>
      <trkpt lat="43.87934" lon="7.66964">
        <ele>260.751</ele>
        <time>2018-03-14T18:05:11Z</time>
      </trkpt>
      <trkpt lat="43.87938" lon="7.6696">
        <ele>261.96</ele>
        <time>2018-03-14T18:05:16Z</time>
      </trkpt>
      <trkpt lat="43.87938" lon="7.66954">
        <ele>262.923</ele>
        <time>2018-03-14T18:05:26Z</time>
      </trkpt>
      <trkpt lat="43.87938" lon="7.66949">
        <ele>263.054</ele>
        <time>2018-03-14T18:05:28Z</time>
      </trkpt>
      <trkpt lat="43.87936" lon="7.66946">
        <ele>263.507</ele>
        <time>2018-03-14T18:05:31Z</time>
      </trkpt>
      <trkpt lat="43.87935" lon="7.6694">
        <ele>264.103</ele>
        <time>2018-03-14T18:05:35Z</time>
      </trkpt>
      <trkpt lat="43.87931" lon="7.66936">
        <ele>264.741</ele>
        <time>2018-03-14T18:05:40Z</time>
      </trkpt>
      <trkpt lat="43.87928" lon="7.66934">
        <ele>264.959</ele>
        <time>2018-03-14T18:05:42Z</time>
      </trkpt>
      <trkpt lat="43.87925" lon="7.66933">
        <ele>264.95</ele>
        <time>2018-03-14T18:05:44Z</time>
      </trkpt>
      <trkpt lat="43.87922" lon="7.66931">
        <ele>264.975</ele>
        <time>2018-03-14T18:05:47Z</time>
      </trkpt>
      <trkpt lat="43.8792" lon="7.66928">
        <ele>264.942</ele>
        <time>2018-03-14T18:05:56Z</time>
      </trkpt>
      <trkpt lat="43.87917" lon="7.66926">
        <ele>264.916</ele>
        <time>2018-03-14T18:05:58Z</time>
      </trkpt>
      <trkpt lat="43.87915" lon="7.66924">
        <ele>264.777</ele>
        <time>2018-03-14T18:06:00Z</time>
      </trkpt>
      <trkpt lat="43.87912" lon="7.66922">
        <ele>264.613</ele>
        <time>2018-03-14T18:06:02Z</time>
      </trkpt>
      <trkpt lat="43.8791" lon="7.66917">
        <ele>264.416</ele>
        <time>2018-03-14T18:06:04Z</time>
      </trkpt>
      <trkpt lat="43.87908" lon="7.66915">
        <ele>264.361</ele>
        <time>2018-03-14T18:06:06Z</time>
      </trkpt>
      <trkpt lat="43.87906" lon="7.66911">
        <ele>264.169</ele>
        <time>2018-03-14T18:06:10Z</time>
      </trkpt>
      <trkpt lat="43.87907" lon="7.66906">
        <ele>263.529</ele>
        <time>2018-03-14T18:06:26Z</time>
      </trkpt>
      <trkpt lat="43.87906" lon="7.66903">
        <ele>263.585</ele>
        <time>2018-03-14T18:06:28Z</time>
      </trkpt>
      <trkpt lat="43.87905" lon="7.66898">
        <ele>263.578</ele>
        <time>2018-03-14T18:06:30Z</time>
      </trkpt>
      <trkpt lat="43.87903" lon="7.66895">
        <ele>263.492</ele>
        <time>2018-03-14T18:06:32Z</time>
      </trkpt>
      <trkpt lat="43.87902" lon="7.66891">
        <ele>263.436</ele>
        <time>2018-03-14T18:06:34Z</time>
      </trkpt>
      <trkpt lat="43.87901" lon="7.66887">
        <ele>263.448</ele>
        <time>2018-03-14T18:06:36Z</time>
      </trkpt>
      <trkpt lat="43.87898" lon="7.66882">
        <ele>263.519</ele>
        <time>2018-03-14T18:06:39Z</time>
      </trkpt>
      <trkpt lat="43.87896" lon="7.66876">
        <ele>263.892</ele>
        <time>2018-03-14T18:06:43Z</time>
      </trkpt>
      <trkpt lat="43.87895" lon="7.66872">
        <ele>264.628</ele>
        <time>2018-03-14T18:06:45Z</time>
      </trkpt>
      <trkpt lat="43.87894" lon="7.66868">
        <ele>265.319</ele>
        <time>2018-03-14T18:06:47Z</time>
      </trkpt>
      <trkpt lat="43.87894" lon="7.66863">
        <ele>266.43</ele>
        <time>2018-03-14T18:06:50Z</time>
      </trkpt>
      <trkpt lat="43.87894" lon="7.66858">
        <ele>267.291</ele>
        <time>2018-03-14T18:06:53Z</time>
      </trkpt>
      <trkpt lat="43.87893" lon="7.66852">
        <ele>267.724</ele>
        <time>2018-03-14T18:06:55Z</time>
      </trkpt>
      <trkpt lat="43.87893" lon="7.66847">
        <ele>268.24</ele>
        <time>2018-03-14T18:06:57Z</time>
      </trkpt>
      <trkpt lat="43.87891" lon="7.66842">
        <ele>268.705</ele>
        <time>2018-03-14T18:06:59Z</time>
      </trkpt>
      <trkpt lat="43.87891" lon="7.66838">
        <ele>269.565</ele>
        <time>2018-03-14T18:07:05Z</time>
      </trkpt>
      <trkpt lat="43.87895" lon="7.66828">
        <ele>270.333</ele>
        <time>2018-03-14T18:07:08Z</time>
      </trkpt>
      <trkpt lat="43.87895" lon="7.66818">
        <ele>272.137</ele>
        <time>2018-03-14T18:07:12Z</time>
      </trkpt>
      <trkpt lat="43.87895" lon="7.66814">
        <ele>275.119</ele>
        <time>2018-03-14T18:07:21Z</time>
      </trkpt>
      <trkpt lat="43.87892" lon="7.66813">
        <ele>276.561</ele>
        <time>2018-03-14T18:07:31Z</time>
      </trkpt>
      <trkpt lat="43.87891" lon="7.66809">
        <ele>276.701</ele>
        <time>2018-03-14T18:07:33Z</time>
      </trkpt>
      <trkpt lat="43.87891" lon="7.66805">
        <ele>277.161</ele>
        <time>2018-03-14T18:07:36Z</time>
      </trkpt>
      <trkpt lat="43.87891" lon="7.66799">
        <ele>277.675</ele>
        <time>2018-03-14T18:07:39Z</time>
      </trkpt>
      <trkpt lat="43.8789" lon="7.66795">
        <ele>277.927</ele>
        <time>2018-03-14T18:07:41Z</time>
      </trkpt>
      <trkpt lat="43.8789" lon="7.66791">
        <ele>278.651</ele>
        <time>2018-03-14T18:07:45Z</time>
      </trkpt>
      <trkpt lat="43.87889" lon="7.66788">
        <ele>280.185</ele>
        <time>2018-03-14T18:07:59Z</time>
      </trkpt>
      <trkpt lat="43.87889" lon="7.66784">
        <ele>280.737</ele>
        <time>2018-03-14T18:08:01Z</time>
      </trkpt>
      <trkpt lat="43.87887" lon="7.66776">
        <ele>281.487</ele>
        <time>2018-03-14T18:08:04Z</time>
      </trkpt>
      <trkpt lat="43.87886" lon="7.66772">
        <ele>281.742</ele>
        <time>2018-03-14T18:08:06Z</time>
      </trkpt>
      <trkpt lat="43.87884" lon="7.66769">
        <ele>282.17</ele>
        <time>2018-03-14T18:08:08Z</time>
      </trkpt>
      <trkpt lat="43.87883" lon="7.66762">
        <ele>282.568</ele>
        <time>2018-03-14T18:08:10Z</time>
      </trkpt>
      <trkpt lat="43.87882" lon="7.66756">
        <ele>282.856</ele>
        <time>2018-03-14T18:08:12Z</time>
      </trkpt>
      <trkpt lat="43.87883" lon="7.66751">
        <ele>283.165</ele>
        <time>2018-03-14T18:08:14Z</time>
      </trkpt>
      <trkpt lat="43.87883" lon="7.66746">
        <ele>283.507</ele>
        <time>2018-03-14T18:08:16Z</time>
      </trkpt>
      <trkpt lat="43.87882" lon="7.66742">
        <ele>282.686</ele>
        <time>2018-03-14T18:08:38Z</time>
      </trkpt>
      <trkpt lat="43.87879" lon="7.6674">
        <ele>282.393</ele>
        <time>2018-03-14T18:08:42Z</time>
      </trkpt>
      <trkpt lat="43.87877" lon="7.66738">
        <ele>281.962</ele>
        <time>2018-03-14T18:08:45Z</time>
      </trkpt>
      <trkpt lat="43.87873" lon="7.66736">
        <ele>281.651</ele>
        <time>2018-03-14T18:08:47Z</time>
      </trkpt>
      <trkpt lat="43.87869" lon="7.66733">
        <ele>281.209</ele>
        <time>2018-03-14T18:08:50Z</time>
      </trkpt>
      <trkpt lat="43.87866" lon="7.6673">
        <ele>280.598</ele>
        <time>2018-03-14T18:08:54Z</time>
      </trkpt>
      <trkpt lat="43.87867" lon="7.66726">
        <ele>280.166</ele>
        <time>2018-03-14T18:08:56Z</time>
      </trkpt>
      <trkpt lat="43.87866" lon="7.66722">
        <ele>279.911</ele>
        <time>2018-03-14T18:09:00Z</time>
      </trkpt>
      <trkpt lat="43.87865" lon="7.66718">
        <ele>280.074</ele>
        <time>2018-03-14T18:09:03Z</time>
      </trkpt>
      <trkpt lat="43.87865" lon="7.66714">
        <ele>280.236</ele>
        <time>2018-03-14T18:09:06Z</time>
      </trkpt>
      <trkpt lat="43.87863" lon="7.66711">
        <ele>280.317</ele>
        <time>2018-03-14T18:09:10Z</time>
      </trkpt>
      <trkpt lat="43.8786" lon="7.66708">
        <ele>280.253</ele>
        <time>2018-03-14T18:09:14Z</time>
      </trkpt>
      <trkpt lat="43.87861" lon="7.66704">
        <ele>280.233</ele>
        <time>2018-03-14T18:09:16Z</time>
      </trkpt>
      <trkpt lat="43.87858" lon="7.66701">
        <ele>280.181</ele>
        <time>2018-03-14T18:09:25Z</time>
      </trkpt>
      <trkpt lat="43.87858" lon="7.66697">
        <ele>280.02</ele>
        <time>2018-03-14T18:09:34Z</time>
      </trkpt>
      <trkpt lat="43.87857" lon="7.66694">
        <ele>279.839</ele>
        <time>2018-03-14T18:09:37Z</time>
      </trkpt>
      <trkpt lat="43.87856" lon="7.66689">
        <ele>279.716</ele>
        <time>2018-03-14T18:09:40Z</time>
      </trkpt>
      <trkpt lat="43.87853" lon="7.66685">
        <ele>279.423</ele>
        <time>2018-03-14T18:09:42Z</time>
      </trkpt>
      <trkpt lat="43.87851" lon="7.66681">
        <ele>279.03</ele>
        <time>2018-03-14T18:09:45Z</time>
      </trkpt>
      <trkpt lat="43.8785" lon="7.66677">
        <ele>278.827</ele>
        <time>2018-03-14T18:09:47Z</time>
      </trkpt>
      <trkpt lat="43.87848" lon="7.66673">
        <ele>278.689</ele>
        <time>2018-03-14T18:09:49Z</time>
      </trkpt>
      <trkpt lat="43.87846" lon="7.66668">
        <ele>278.584</ele>
        <time>2018-03-14T18:09:50Z</time>
      </trkpt>
      <trkpt lat="43.87845" lon="7.66665">
        <ele>278.552</ele>
        <time>2018-03-14T18:09:52Z</time>
      </trkpt>
      <trkpt lat="43.87843" lon="7.6666">
        <ele>278.715</ele>
        <time>2018-03-14T18:09:54Z</time>
      </trkpt>
      <trkpt lat="43.87842" lon="7.66657">
        <ele>279.159</ele>
        <time>2018-03-14T18:09:59Z</time>
      </trkpt>
      <trkpt lat="43.8784" lon="7.66653">
        <ele>279.959</ele>
        <time>2018-03-14T18:10:04Z</time>
      </trkpt>
      <trkpt lat="43.87839" lon="7.66649">
        <ele>280.258</ele>
        <time>2018-03-14T18:10:06Z</time>
      </trkpt>
      <trkpt lat="43.87838" lon="7.66645">
        <ele>280.649</ele>
        <time>2018-03-14T18:10:09Z</time>
      </trkpt>
      <trkpt lat="43.87837" lon="7.6664">
        <ele>281.353</ele>
        <time>2018-03-14T18:10:12Z</time>
      </trkpt>
      <trkpt lat="43.87836" lon="7.66636">
        <ele>281.695</ele>
        <time>2018-03-14T18:10:14Z</time>
      </trkpt>
      <trkpt lat="43.87834" lon="7.66631">
        <ele>282.05</ele>
        <time>2018-03-14T18:10:16Z</time>
      </trkpt>
      <trkpt lat="43.87834" lon="7.66624">
        <ele>282.662</ele>
        <time>2018-03-14T18:10:19Z</time>
      </trkpt>
      <trkpt lat="43.87834" lon="7.66619">
        <ele>283.021</ele>
        <time>2018-03-14T18:10:21Z</time>
      </trkpt>
      <trkpt lat="43.87833" lon="7.66616">
        <ele>283.368</ele>
        <time>2018-03-14T18:10:23Z</time>
      </trkpt>
      <trkpt lat="43.87832" lon="7.66609">
        <ele>283.741</ele>
        <time>2018-03-14T18:10:26Z</time>
      </trkpt>
      <trkpt lat="43.87832" lon="7.66604">
        <ele>284.294</ele>
        <time>2018-03-14T18:10:29Z</time>
      </trkpt>
      <trkpt lat="43.87832" lon="7.666">
        <ele>284.746</ele>
        <time>2018-03-14T18:10:31Z</time>
      </trkpt>
      <trkpt lat="43.87833" lon="7.66593">
        <ele>285.057</ele>
        <time>2018-03-14T18:10:33Z</time>
      </trkpt>
      <trkpt lat="43.87833" lon="7.66588">
        <ele>285.198</ele>
        <time>2018-03-14T18:10:35Z</time>
      </trkpt>
      <trkpt lat="43.87832" lon="7.66584">
        <ele>286.714</ele>
        <time>2018-03-14T18:10:46Z</time>
      </trkpt>
      <trkpt lat="43.87834" lon="7.66581">
        <ele>288.327</ele>
        <time>2018-03-14T18:10:56Z</time>
      </trkpt>
      <trkpt lat="43.87836" lon="7.66577">
        <ele>288.865</ele>
        <time>2018-03-14T18:10:58Z</time>
      </trkpt>
      <trkpt lat="43.87836" lon="7.66572">
        <ele>289.288</ele>
        <time>2018-03-14T18:11:00Z</time>
      </trkpt>
      <trkpt lat="43.87839" lon="7.66567">
        <ele>289.765</ele>
        <time>2018-03-14T18:11:02Z</time>
      </trkpt>
      <trkpt lat="43.8784" lon="7.66564">
        <ele>290.205</ele>
        <time>2018-03-14T18:11:04Z</time>
      </trkpt>
      <trkpt lat="43.87842" lon="7.6656">
        <ele>290.386</ele>
        <time>2018-03-14T18:11:06Z</time>
      </trkpt>
      <trkpt lat="43.87845" lon="7.66557">
        <ele>290.596</ele>
        <time>2018-03-14T18:11:08Z</time>
      </trkpt>
      <trkpt lat="43.87847" lon="7.66553">
        <ele>290.876</ele>
        <time>2018-03-14T18:11:10Z</time>
      </trkpt>
      <trkpt lat="43.8785" lon="7.66549">
        <ele>291.128</ele>
        <time>2018-03-14T18:11:12Z</time>
      </trkpt>
      <trkpt lat="43.87853" lon="7.66546">
        <ele>291.579</ele>
        <time>2018-03-14T18:11:14Z</time>
      </trkpt>
      <trkpt lat="43.87856" lon="7.66545">
        <ele>292.332</ele>
        <time>2018-03-14T18:11:17Z</time>
      </trkpt>
      <trkpt lat="43.87858" lon="7.66542">
        <ele>292.973</ele>
        <time>2018-03-14T18:11:20Z</time>
      </trkpt>
      <trkpt lat="43.87862" lon="7.66541">
        <ele>293.333</ele>
        <time>2018-03-14T18:11:22Z</time>
      </trkpt>
      <trkpt lat="43.8786" lon="7.66544">
        <ele>294.279</ele>
        <time>2018-03-14T18:11:38Z</time>
      </trkpt>
      <trkpt lat="43.87863" lon="7.66542">
        <ele>294.676</ele>
        <time>2018-03-14T18:11:44Z</time>
      </trkpt>
      <trkpt lat="43.87865" lon="7.66539">
        <ele>294.404</ele>
        <time>2018-03-14T18:11:49Z</time>
      </trkpt>
      <trkpt lat="43.87868" lon="7.66536">
        <ele>293.963</ele>
        <time>2018-03-14T18:11:52Z</time>
      </trkpt>
      <trkpt lat="43.8787" lon="7.6653">
        <ele>293.771</ele>
        <time>2018-03-14T18:11:54Z</time>
      </trkpt>
      <trkpt lat="43.87871" lon="7.66528">
        <ele>292.809</ele>
        <time>2018-03-14T18:12:08Z</time>
      </trkpt>
      <trkpt lat="43.87872" lon="7.66523">
        <ele>292.798</ele>
        <time>2018-03-14T18:12:13Z</time>
      </trkpt>
      <trkpt lat="43.87875" lon="7.66518">
        <ele>292.848</ele>
        <time>2018-03-14T18:12:15Z</time>
      </trkpt>
      <trkpt lat="43.87877" lon="7.66517">
        <ele>293.245</ele>
        <time>2018-03-14T18:12:22Z</time>
      </trkpt>
      <trkpt lat="43.8788" lon="7.66519">
        <ele>293.121</ele>
        <time>2018-03-14T18:12:44Z</time>
      </trkpt>
      <trkpt lat="43.87881" lon="7.66524">
        <ele>292.657</ele>
        <time>2018-03-14T18:12:48Z</time>
      </trkpt>
      <trkpt lat="43.87881" lon="7.66527">
        <ele>292.545</ele>
        <time>2018-03-14T18:12:55Z</time>
      </trkpt>
      <trkpt lat="43.87884" lon="7.66527">
        <ele>292.387</ele>
        <time>2018-03-14T18:13:01Z</time>
      </trkpt>
      <trkpt lat="43.87883" lon="7.66523">
        <ele>292.106</ele>
        <time>2018-03-14T18:13:04Z</time>
      </trkpt>
      <trkpt lat="43.87887" lon="7.66522">
        <ele>292.119</ele>
        <time>2018-03-14T18:13:06Z</time>
      </trkpt>
      <trkpt lat="43.8789" lon="7.66521">
        <ele>292.353</ele>
        <time>2018-03-14T18:13:18Z</time>
      </trkpt>
      <trkpt lat="43.87893" lon="7.66518">
        <ele>292.254</ele>
        <time>2018-03-14T18:13:20Z</time>
      </trkpt>
      <trkpt lat="43.87897" lon="7.66514">
        <ele>292.11</ele>
        <time>2018-03-14T18:13:22Z</time>
      </trkpt>
      <trkpt lat="43.879" lon="7.66512">
        <ele>292.107</ele>
        <time>2018-03-14T18:13:23Z</time>
      </trkpt>
      <trkpt lat="43.87902" lon="7.66509">
        <ele>292.209</ele>
        <time>2018-03-14T18:13:27Z</time>
      </trkpt>
      <trkpt lat="43.87904" lon="7.66505">
        <ele>292.517</ele>
        <time>2018-03-14T18:13:30Z</time>
      </trkpt>
      <trkpt lat="43.87908" lon="7.66501">
        <ele>292.617</ele>
        <time>2018-03-14T18:13:33Z</time>
      </trkpt>
      <trkpt lat="43.8791" lon="7.66499">
        <ele>293.504</ele>
        <time>2018-03-14T18:13:46Z</time>
      </trkpt>
      <trkpt lat="43.87912" lon="7.66496">
        <ele>293.502</ele>
        <time>2018-03-14T18:13:49Z</time>
      </trkpt>
      <trkpt lat="43.87914" lon="7.66492">
        <ele>293.427</ele>
        <time>2018-03-14T18:13:51Z</time>
      </trkpt>
      <trkpt lat="43.87916" lon="7.66489">
        <ele>293.391</ele>
        <time>2018-03-14T18:13:54Z</time>
      </trkpt>
      <trkpt lat="43.87917" lon="7.66485">
        <ele>293.297</ele>
        <time>2018-03-14T18:13:56Z</time>
      </trkpt>
      <trkpt lat="43.87918" lon="7.66481">
        <ele>293.115</ele>
        <time>2018-03-14T18:13:58Z</time>
      </trkpt>
      <trkpt lat="43.8792" lon="7.66478">
        <ele>292.927</ele>
        <time>2018-03-14T18:14:00Z</time>
      </trkpt>
      <trkpt lat="43.87921" lon="7.66473">
        <ele>292.534</ele>
        <time>2018-03-14T18:14:03Z</time>
      </trkpt>
      <trkpt lat="43.87923" lon="7.66469">
        <ele>292.176</ele>
        <time>2018-03-14T18:14:06Z</time>
      </trkpt>
      <trkpt lat="43.87923" lon="7.66465">
        <ele>291.938</ele>
        <time>2018-03-14T18:14:08Z</time>
      </trkpt>
      <trkpt lat="43.87924" lon="7.66461">
        <ele>291.745</ele>
        <time>2018-03-14T18:14:10Z</time>
      </trkpt>
      <trkpt lat="43.87927" lon="7.66459">
        <ele>291.558</ele>
        <time>2018-03-14T18:14:11Z</time>
      </trkpt>
      <trkpt lat="43.87929" lon="7.66456">
        <ele>291.594</ele>
        <time>2018-03-14T18:14:23Z</time>
      </trkpt>
      <trkpt lat="43.87927" lon="7.66454">
        <ele>291.217</ele>
        <time>2018-03-14T18:14:39Z</time>
      </trkpt>
      <trkpt lat="43.87928" lon="7.66459">
        <ele>290.421</ele>
        <time>2018-03-14T18:14:56Z</time>
      </trkpt>
      <trkpt lat="43.87929" lon="7.66464">
        <ele>290.616</ele>
        <time>2018-03-14T18:14:58Z</time>
      </trkpt>
      <trkpt lat="43.87931" lon="7.66468">
        <ele>290.746</ele>
        <time>2018-03-14T18:15:00Z</time>
      </trkpt>
      <trkpt lat="43.8793" lon="7.66473">
        <ele>291.156</ele>
        <time>2018-03-14T18:15:04Z</time>
      </trkpt>
      <trkpt lat="43.87927" lon="7.66476">
        <ele>291.348</ele>
        <time>2018-03-14T18:15:07Z</time>
      </trkpt>
      <trkpt lat="43.8793" lon="7.66473">
        <ele>293.686</ele>
        <time>2018-03-14T18:15:34Z</time>
      </trkpt>
      <trkpt lat="43.87933" lon="7.66469">
        <ele>294.063</ele>
        <time>2018-03-14T18:15:36Z</time>
      </trkpt>
      <trkpt lat="43.87935" lon="7.66465">
        <ele>294.446</ele>
        <time>2018-03-14T18:15:38Z</time>
      </trkpt>
      <trkpt lat="43.87936" lon="7.6646">
        <ele>294.907</ele>
        <time>2018-03-14T18:15:40Z</time>
      </trkpt>
      <trkpt lat="43.87936" lon="7.66456">
        <ele>295.486</ele>
        <time>2018-03-14T18:15:44Z</time>
      </trkpt>
    </trkseg>
  </trk>
</gpx>